[[{"header":{"parameterUnit":"m.s-1","parameterCategory":1,"la1":30.6,"la2":28.766,"lo1":-90.7593,"lo2":-88.6598,"dy":0.0162,"dx":0.0183,"nx":116,"ny":114,"refTime":"2023-04-03T18:00:00:Z","depth":0,"parameterNumber":2,"parameterNumberName":"U-component_of_WINDS"},"data":[0.0,0.0,0.0,0.0,0.0,0.0,0.0,0.0,0.0,0.0,0.0,0.0,0.0,0.0,0.0,0.0,0.0,0.0,0.0,0.0,0.0,0.0,0.0,0.0,0.0,0.0,0.0,0.0,0.0,0.0,0.0,0.0,0.0,0.0,0.0,0.0,0.0,0.0,0.0,0.0,0.0,0.0,0.0,0.0,0.0,0.0,0.0,0.0,0.0,0.0,0.0,0.0,0.0,0.0,0.0,0.0,0.0,0.0,0.0,0.0,0.0,0.0,0.0,0.0,0.0,0.0,0.0,0.0,0.0,0.0,0.0,0.0,0.0,0.0,0.0,0.0,0.0,0.0,0.0,0.0,0.0,0.0,0.0,0.0,0.0,0.0,0.0,0.0,0.0,0.0,0.0,0.0,0.0,0.0,0.0,0.0,0.0,0.0,0.0,0.0,0.0,0.0,0.0,0.0,0.0,0.0,0.0,0.0,0.0,0.0,0.0,0.0,0.0,0.0,0.0,0.0,0.0,0.0,0.0,0.0,0.0,0.0,0.0,0.0,0.0,0.0,0.0,0.0,0.0,0.0,0.0,0.0,0.0,0.0,0.0,0.0,0.0,0.0,0.0,0.0,0.0,0.0,0.0,0.0,0.0,0.0,0.0,0.0,0.0,0.0,0.0,0.0,0.0,0.0,0.0,0.0,0.0,0.0,0.0,0.0,0.0,0.0,0.0,0.0,0.0,0.0,0.0,0.0,0.0,0.0,0.0,0.0,0.0,0.0,0.0,0.0,0.0,0.0,0.0,0.0,0.0,0.0,0.0,0.0,0.0,0.0,0.0,0.0,0.0,0.0,0.0,0.0,0.0,0.0,0.0,0.0,0.0,0.0,0.0,0.0,0.0,0.0,0.0,0.0,0.0,0.0,0.0,0.0,0.0,0.0,0.0,0.0,0.0,0.0,0.0,0.0,0.0,0.0,0.0,0.0,0.0,0.0,0.0,0.0,0.0,0.0,0.0,0.0,0.0,0.0,0.0,0.0,0.0,0.0,0.0,0.0,0.0,0.0,0.0,0.0,0.0,0.0,0.0,0.0,0.0,0.0,0.0,0.0,0.0,0.0,0.0,0.0,0.0,0.0,0.0,0.0,0.0,0.0,0.0,0.0,0.0,0.0,0.0,0.0,0.0,0.0,0.0,0.0,0.0,0.0,0.0,0.0,0.0,0.0,0.0,0.0,0.0,0.0,0.0,0.0,0.0,0.0,0.0,0.0,0.0,0.0,0.0,0.0,0.0,0.0,0.0,0.0,0.0,0.0,0.0,0.0,0.0,0.0,0.0,0.0,0.0,0.0,0.0,0.0,0.0,0.0,0.0,0.0,0.0,0.0,0.0,0.0,0.0,0.0,0.0,0.0,0.0,0.0,0.0,0.0,0.0,0.0,0.0,0.0,0.0,0.0,0.0,0.0,0.0,0.0,0.0,0.0,0.0,0.0,0.0,0.0,0.0,0.0,0.0,0.0,0.0,0.0,0.0,0.0,0.0,0.0,0.0,0.0,0.0,0.0,0.0,0.0,0.0,0.0,0.0,0.0,0.0,0.0,0.0,0.0,0.0,0.0,0.0,0.0,0.0,0.0,0.0,0.0,0.0,0.0,0.0,0.0,0.0,0.0,0.0,0.0,0.0,0.0,0.0,0.0,0.0,0.0,0.0,0.0,0.0,0.0,0.0,0.0,0.0,0.0,0.0,0.0,0.0,0.0,0.0,0.0,0.0,0.0,0.0,0.0,0.0,0.0,0.0,0.0,0.0,0.0,0.0,0.0,0.0,0.0,0.0,0.0,0.0,0.0,0.0,0.0,0.0,0.0,0.0,0.0,0.0,0.0,0.0,0.0,0.0,0.0,0.0,0.0,0.0,0.0,0.0,0.0,0.0,0.0,0.0,0.0,0.0,0.0,0.0,0.0,0.0,0.0,0.0,0.0,0.0,0.0,0.0,0.0,0.0,0.0,0.0,0.0,0.0,0.0,0.0,0.0,0.0,0.0,0.0,0.0,0.0,0.0,0.0,0.0,0.0,0.0,0.0,0.0,0.0,0.0,0.0,0.0,0.0,0.0,0.0,0.0,0.0,0.0,0.0,0.0,0.0,0.0,0.0,0.0,0.0,0.0,0.0,0.0,0.0,0.0,0.0,0.0,0.0,0.0,0.0,0.0,0.0,0.0,0.0,0.0,0.0,0.0,0.0,0.0,0.0,0.0,0.0,0.0,0.0,0.0,0.0,0.0,0.0,0.0,0.0,0.0,0.0,0.0,0.0,0.0,0.0,0.0,0.0,0.0,0.0,0.0,0.0,0.0,0.0,0.0,0.0,0.0,0.0,0.0,0.0,0.0,0.0,0.0,0.0,0.0,0.0,0.0,0.0,0.0,0.0,0.0,0.0,0.0,0.0,0.0,0.0,0.0,0.0,0.0,0.0,0.0,0.0,0.0,0.0,0.0,0.0,0.0,0.0,0.0,0.0,0.0,0.0,0.0,0.0,0.0,0.0,0.0,0.0,0.0,0.0,0.0,0.0,0.0,0.0,0.0,0.0,0.0,0.0,0.0,0.0,0.0,0.0,0.0,0.0,0.0,0.0,0.0,0.0,0.0,0.0,0.0,0.0,0.0,0.0,0.0,0.0,0.0,0.0,0.0,0.0,0.0,0.0,0.0,0.0,0.0,0.0,0.0,0.0,0.0,0.0,0.0,0.0,0.0,0.0,0.0,0.0,0.0,0.0,0.0,0.0,0.0,0.0,0.0,0.0,0.0,0.0,0.0,0.0,0.0,0.0,0.0,0.0,0.0,0.0,0.0,0.0,0.0,0.0,0.0,0.0,0.0,0.0,0.0,0.0,0.0,0.0,0.0,0.0,0.0,0.0,0.0,0.0,0.0,0.0,0.0,0.0,0.0,0.0,0.0,0.0,0.0,0.0,0.0,0.0,0.0,0.0,0.0,0.0,0.0,0.0,0.0,0.0,0.0,0.0,0.0,0.0,0.0,0.0,0.0,0.0,0.0,0.0,0.0,0.0,0.0,0.0,0.0,0.0,0.0,0.0,0.0,0.0,0.0,0.0,0.0,0.0,0.0,0.0,0.0,0.0,0.0,0.0,0.0,0.0,0.0,0.0,0.0,0.0,0.0,0.0,0.0,0.0,0.0,0.0,0.0,0.0,0.0,0.0,0.0,0.0,0.0,0.0,0.0,0.0,0.0,0.0,0.0,0.0,0.0,0.0,0.0,0.0,0.0,0.0,0.0,0.0,0.0,0.0,0.0,0.0,0.0,0.0,0.0,0.0,0.0,0.0,0.0,0.0,0.0,0.0,0.0,0.0,0.0,0.0,0.0,0.0,0.0,0.0,0.0,0.0,0.0,0.0,0.0,0.0,0.0,0.0,0.0,0.0,0.0,0.0,0.0,0.0,0.0,0.0,0.0,0.0,0.0,0.0,0.0,0.0,0.0,0.0,0.0,0.0,0.0,0.0,0.0,0.0,0.0,0.0,0.0,0.0,0.0,0.0,0.0,0.0,0.0,0.0,0.0,0.0,0.0,0.0,0.0,0.0,0.0,0.0,0.0,0.0,0.0,0.0,0.0,0.0,0.0,0.0,0.0,0.0,0.0,0.0,0.0,0.0,0.0,0.0,0.0,0.0,0.0,0.0,0.0,0.0,0.0,0.0,0.0,0.0,0.0,0.0,0.0,0.0,0.0,0.0,0.0,0.0,0.0,0.0,0.0,0.0,0.0,0.0,0.0,0.0,0.0,0.0,0.0,0.0,0.0,0.0,0.0,0.0,0.0,0.0,0.0,0.0,0.0,0.0,0.0,0.0,0.0,0.0,0.0,0.0,0.0,0.0,0.0,0.0,0.0,0.0,0.0,0.0,0.0,0.0,0.0,0.0,0.0,0.0,0.0,0.0,0.0,0.0,0.0,0.0,0.0,0.0,0.0,0.0,0.0,0.0,0.0,0.0,0.0,0.0,0.0,0.0,0.0,0.0,0.0,0.0,0.0,0.0,0.0,0.0,0.0,0.0,0.0,0.0,0.0,0.0,0.0,0.0,0.0,0.0,0.0,0.0,0.0,0.0,0.0,0.0,0.0,0.0,0.0,0.0,0.0,0.0,0.0,0.0,0.0,0.0,0.0,0.0,0.0,0.0,0.0,0.0,0.0,0.0,0.0,0.0,0.0,0.0,0.0,0.0,0.0,0.0,0.0,0.0,0.0,0.0,0.0,0.0,0.0,0.0,0.0,0.0,0.0,0.0,0.0,0.0,0.0,0.0,0.0,0.0,0.0,0.0,0.0,0.0,0.0,0.0,0.0,0.0,0.0,0.0,0.0,0.0,0.0,0.0,0.0,0.0,0.0,0.0,0.0,0.0,0.0,0.0,0.0,0.0,0.0,0.0,0.0,0.0,0.0,0.0,0.0,0.0,0.0,0.0,0.0,0.0,0.0,0.0,0.0,0.0,0.0,0.0,0.0,0.0,0.0,0.0,0.0,0.0,0.0,0.0,0.0,0.0,0.0,0.0,0.0,0.0,0.0,0.0,0.0,0.0,0.0,0.0,0.0,0.0,0.0,0.0,0.0,0.0,0.0,0.0,0.0,0.0,0.0,0.0,0.0,0.0,0.0,0.0,0.0,0.0,0.0,0.0,0.0,0.0,0.0,0.0,0.0,0.0,0.0,0.0,0.0,0.0,0.0,0.0,0.0,0.0,0.0,0.0,0.0,0.0,0.0,0.0,0.0,0.0,0.0,0.0,0.0,0.0,0.0,0.0,0.0,0.0,0.0,0.0,0.0,0.0,0.0,0.0,0.0,0.0,0.0,0.0,0.0,0.0,0.0,0.0,0.0,0.0,0.0,0.0,0.0,0.0,0.0,0.0,0.0,0.0,0.0,0.0,0.0,0.0,0.0,0.0,0.0,0.0,0.0,0.0,0.0,0.0,0.0,0.0,0.0,0.0,0.0,0.0,0.0,0.0,0.0,0.0,0.0,0.0,0.0,0.0,0.0,0.0,0.0,0.0,0.0,0.0,0.0,0.0,0.0,0.0,0.0,0.0,0.0,0.0,0.0,0.0,0.0,0.0,0.0,0.0,0.0,0.0,0.0,0.0,0.0,0.0,0.0,0.0,0.0,0.0,0.0,0.0,0.0,0.0,0.0,0.0,0.0,0.0,0.0,0.0,0.0,0.0,0.0,0.0,0.0,0.0,0.0,0.0,0.0,0.0,0.0,0.0,0.0,0.0,0.0,0.0,0.0,0.0,0.0,0.0,0.0,0.0,0.0,0.0,0.0,0.0,0.0,0.0,0.0,0.0,0.0,0.0,0.0,0.0,0.0,0.0,0.0,0.0,0.0,0.0,0.0,0.0,0.0,0.0,0.0,0.0,0.0,0.0,0.0,0.0,0.0,0.0,0.0,0.0,0.0,0.0,0.0,0.0,0.0,0.0,0.0,0.0,0.0,0.0,0.0,0.0,0.0,0.0,0.0,0.0,0.0,0.0,0.0,0.0,0.0,0.0,0.0,0.0,0.0,0.0,0.0,0.0,0.0,0.0,0.0,0.0,0.0,0.0,0.0,0.0,0.0,0.0,0.0,0.0,0.0,0.0,0.0,0.0,0.0,0.0,0.0,0.0,0.0,0.0,0.0,0.0,0.0,0.0,0.0,0.0,0.0,0.0,0.0,0.0,0.0,0.0,0.0,0.0,0.0,0.0,0.0,0.0,0.0,0.0,0.0,0.0,0.0,0.0,0.0,0.0,0.0,0.0,0.0,0.0,0.0,0.0,0.0,0.0,0.0,0.0,0.0,0.0,0.0,0.0,0.0,0.0,0.0,0.0,0.0,0.0,0.0,0.0,0.0,0.0,0.0,0.0,0.0,0.0,0.0,0.0,0.0,0.0,0.0,0.0,0.0,0.0,0.0,0.0,0.0,0.0,0.0,0.0,0.0,0.0,0.0,0.0,0.0,0.0,0.0,0.0,0.0,0.0,0.0,0.0,0.0,0.0,0.0,0.0,0.0,0.0,0.0,0.0,0.0,0.0,0.0,0.0,0.0,0.0,0.0,0.0,0.0,0.0,0.0,0.0,0.0,-1.5257,-1.5592,0.0,0.0,0.0,0.0,0.0,0.0,0.0,0.0,0.0,0.0,0.0,0.0,0.0,0.0,0.0,0.0,0.0,0.0,0.0,0.0,0.0,0.0,0.0,0.0,0.0,0.0,0.0,0.0,0.0,0.0,0.0,0.0,0.0,0.0,0.0,0.0,0.0,-0.2955,-0.2955,-0.2982,-0.3036,-0.3036,-0.3036,-0.306,0.0,0.0,0.0,0.0,0.0,0.0,0.0,0.0,0.0,0.0,0.0,0.0,0.0,0.0,0.0,0.0,0.0,0.0,0.0,0.0,0.0,0.0,0.0,0.0,0.0,0.0,0.0,0.0,0.0,0.0,0.0,0.0,0.0,0.0,0.0,0.0,0.0,0.0,0.0,0.0,0.0,0.0,0.0,0.0,0.0,0.0,0.0,0.0,0.0,0.0,0.0,0.0,0.0,0.0,0.0,0.0,0.0,0.0,0.0,0.0,0.0,0.0,0.0,0.0,0.0,0.0,0.0,0.0,0.0,0.0,-1.5326,-1.5372,0.0,0.0,0.0,0.0,0.0,0.0,0.0,0.0,0.0,0.0,0.0,0.0,0.0,0.0,0.0,0.0,0.0,0.0,0.0,0.0,0.0,0.0,0.0,0.1116,0.0749,0.074,0.0298,0.0,0.0,0.0,0.0,0.0,0.0,0.0,0.0,-0.1988,-0.2213,-0.2716,-0.283,-0.2942,-0.3072,-0.3173,-0.3273,-0.3308,-0.322,0.0,0.0,0.0,0.0,0.0,0.0,0.0,0.0,0.0,0.0,0.0,0.0,0.0,0.0,0.0,0.0,0.0,0.0,0.0,0.0,0.0,0.0,0.0,0.0,0.0,0.0,0.0,0.0,0.0,0.0,0.0,0.0,0.0,0.0,0.0,0.0,0.0,0.0,0.0,0.0,0.0,0.0,0.0,0.0,0.0,0.0,0.0,0.0,0.0,0.0,0.0,0.0,0.0,0.0,0.0,0.0,0.0,0.0,0.0,0.0,0.0,0.0,0.0,-1.3278,-1.3518,-1.3824,-1.3921,-1.4275,-1.4882,-1.5427,-1.5185,-1.4434,-1.4723,0.0,0.0,0.0,0.0,0.0,0.0,0.0,0.0,0.0,0.0,0.0,0.0,0.0,0.0,0.0,0.0,0.0,0.0,0.0,0.0,0.0,0.0494,0.0109,0.0128,0.0051,0.0,0.0,0.0,0.0,0.0,0.0,0.0,-0.1478,-0.15,-0.153,-0.162,-0.2141,-0.2471,-0.2615,-0.314,-0.3487,-0.3698,-0.3357,-0.3278,-0.3389,0.0,0.0,0.0,0.0,0.0,0.0,0.0,0.0,0.0,0.0,0.0,0.0,0.0,0.0,0.0,0.0,0.0,0.0,0.0,0.0,0.0,0.0,0.0,0.0,0.0,0.0,0.0,0.0,0.0,0.0,0.0,0.0,0.0,0.0,0.0,0.0,0.0,0.0,0.0,0.0,0.0,-1.2262,-1.2662,0.0,0.0,0.0,0.0,0.0,0.0,0.0,0.0,0.0,0.0,0.0,0.0,0.0,-1.2788,-1.2905,-1.3585,-1.3965,-1.4026,-1.4862,-1.5062,-1.4738,-1.5165,-1.494,-1.4274,-1.5153,0.0,-1.4785,-1.4443,0.0,0.0,0.0,0.0,0.0,0.0,0.0,0.0,0.0,0.0,0.0,0.0,0.0,0.0,0.0,0.0,0.0,0.0,0.0,0.0,0.0,0.0216,0.0108,0.0104,0.0182,0.0203,0.012,0.0117,0.0,0.0,0.0,-0.0918,-0.1389,-0.1399,-0.1435,-0.1521,-0.2179,-0.2558,-0.2625,-0.3229,-0.3586,-0.3682,-0.3589,-0.3578,-0.3644,-0.3914,0.0,0.0,0.0,0.0,0.0,0.0,0.0,0.0,0.0,0.0,0.0,0.0,0.0,0.0,0.0,0.0,0.0,0.0,0.0,0.0,0.0,0.0,0.0,0.0,0.0,0.0,0.0,0.0,0.0,0.0,0.0,0.0,0.0,0.0,0.0,0.0,0.0,0.0,0.0,-1.1995,-1.2299,-1.2759,-1.21,-1.1606,0.0,0.0,0.0,0.0,0.0,0.0,0.0,0.0,0.0,-1.2578,-1.2783,-1.3023,-1.3232,-1.3838,-1.4124,-1.416,-1.455,-1.4651,-1.445,-1.4651,-1.466,-1.4512,-1.4937,-1.5129,-1.5149,-1.471,-1.4119,-1.3486,0.0,0.0,0.0,0.0,-1.3232,-1.3271,0.0,0.0,0.0,0.0,0.0,0.0,0.0,0.0,0.0,0.0,0.0,0.0,0.0052,0.0159,0.0239,0.0239,0.0343,0.0333,0.0216,0.0189,-0.007,-0.0672,-0.0582,-0.0739,-0.1208,-0.1107,-0.1097,-0.1195,-0.1896,-0.2319,-0.2486,-0.3133,-0.3501,-0.368,-0.3824,-0.3841,-0.3804,-0.4017,-0.4408,-0.4909,0.0,0.0,0.0,0.0,0.0,0.0,0.0,0.0,0.0,0.0,0.0,0.0,0.0,0.0,0.0,0.0,0.0,0.0,0.0,0.0,0.0,0.0,0.0,0.0,0.0,0.0,0.0,0.0,0.0,0.0,0.0,0.0,0.0,0.0,0.0,0.0,0.0,-1.2061,-1.2217,-1.2666,-1.2054,-1.1535,0.0,0.0,0.0,0.0,0.0,0.0,-1.2164,-1.2119,-1.2387,-1.3018,-1.3145,-1.335,-1.3636,-1.4065,-1.427,-1.427,-1.4377,-1.4436,-1.4436,-1.4436,-1.4611,-1.4941,-1.4941,-1.5059,-1.5225,-1.4912,-1.4404,-1.3818,-1.3685,-1.3636,-1.3636,-1.3636,-1.3636,-1.3685,0.0,0.0,0.0,0.0,0.0,0.0,0.0,0.0,0.0,0.0,0.0,0.0194,0.0201,0.0313,0.0399,0.0399,0.0387,0.0348,0.0216,0.0207,-0.0067,-0.0671,-0.0269,-0.0247,-0.0716,-0.029,-0.0077,-0.008,-0.0689,-0.1288,-0.1847,-0.2598,-0.3273,-0.3892,-0.4013,-0.3971,-0.3804,-0.3688,-0.3987,-0.4535,-0.4755,0.0,0.0,0.0,0.0,0.0,0.0,0.0,0.0,0.0,0.0,0.0,0.0,0.0,0.0,0.0,0.0,0.0,0.0,0.0,0.0,0.0,0.0,0.0,0.0,0.0,0.0,0.0,0.0,0.0,0.0,0.0,0.0,0.0,0.0,0.0,0.0,0.0,0.0,-1.2184,-1.1868,0.0,0.0,0.0,0.0,-1.0879,-1.131,-1.1751,-1.2184,-1.2978,-1.3428,-1.3477,-1.3831,-1.4055,-1.4075,-1.4531,-1.4746,-1.4784,-1.5156,-1.5313,-1.5313,-1.5313,-1.5361,-1.5381,-1.5381,-1.5166,-1.4842,-1.4795,-1.4756,-1.4678,-1.4241,-1.4075,-1.4075,-1.4075,-1.4075,-1.4075,0.0,0.0,0.0,0.0,0.0,0.0,0.0,0.0,0.0023,0.0115,0.0168,0.0224,0.0327,0.0479,0.0606,0.0606,0.0627,0.0602,0.047,0.0373,0.0202,-0.0112,-0.0046,-0.0072,-0.0251,-0.0077,0.0,0.0,-0.0604,-0.1022,-0.1251,-0.2377,-0.3012,-0.3293,-0.384,-0.4026,-0.3871,-0.3912,-0.4145,-0.4556,-0.5038,-0.5279,0.0,0.0,0.0,0.0,0.0,0.0,0.0,0.0,0.0,0.0,0.0,0.0,0.0,0.0,0.0,0.0,0.0,0.0,0.0,0.0,0.0,0.0,0.0,0.0,0.0,0.0,0.0,0.0,0.0,0.0,0.0,0.0,0.0,0.0,0.0,0.0,0.0,-1.2568,-1.2266,0.0,-1.1755,-1.1357,-1.1428,-1.2119,-1.2347,-1.2739,-1.3393,-1.3714,-1.389,-1.389,-1.4326,-1.4551,-1.4551,-1.4971,-1.5186,-1.5186,-1.5342,-1.541,-1.541,-1.541,-1.5478,-1.5575,-1.5575,-1.5554,-1.5501,-1.5416,-1.5153,-1.4766,-1.4619,-1.4551,-1.4521,-1.4211,-1.4104,-1.4104,0.0,0.0,0.0,0.0,0.0,0.0,0.0,0.0,0.0045,0.018,0.0238,0.0323,0.0453,0.0639,0.0772,0.0772,0.0819,0.0738,0.0546,0.0449,0.0319,0.0135,0.0047,0.0,0.0,0.0,0.0,0.0,-0.0386,-0.0694,-0.0923,-0.1865,-0.2544,-0.3014,-0.3593,-0.3984,-0.4181,-0.4219,-0.4244,-0.4346,-0.499,-0.5147,-0.5128,0.0,0.0,0.0,0.0,0.0,0.0,0.0,0.0,0.0,0.0,0.0,0.0,0.0,0.0,0.0,0.0,0.0,0.0,0.0,0.0,0.0,0.0,0.0,0.0,0.0,0.0,0.0,0.0,0.0,0.0,0.0,0.0,0.0,0.0,-1.1937,-1.2299,-1.3032,-1.2842,-1.2584,-1.2437,-1.2201,-1.2328,-1.3037,-1.3096,-1.3398,-1.4065,-1.425,-1.4328,-1.4328,-1.4775,-1.5,-1.5,-1.5273,-1.541,-1.541,-1.5557,-1.5635,-1.5635,-1.5791,-1.5841,-1.5822,-1.5822,-1.592,-1.5998,-1.5732,-1.5585,-1.5497,-1.5146,-1.5,-1.4961,-1.464,-1.463,-1.4738,0.0,0.0,0.0,0.0,0.0,0.0,0.0,0.0,0.0045,0.018,0.0327,0.0461,0.0604,0.0782,0.0905,0.0905,0.0904,0.0747,0.0432,0.0406,0.0281,0.0023,0.0,0.0,0.0,0.0,0.0,0.0,0.0,-0.0309,-0.0866,-0.1019,-0.1834,-0.3194,-0.3318,-0.3867,-0.4681,-0.4561,-0.4276,-0.3997,-0.4514,-0.4632,-0.4645,0.0,0.0,0.0,0.0,0.0,0.0,0.0,0.0,0.0,0.0,0.0,0.0,0.0,0.0,0.0,0.0,0.0,0.0,0.0,0.0,0.0,0.0,0.0,0.0,0.0,0.0,0.0,0.0,0.0,0.0,0.0,0.0,0.0,-1.2164,-1.2627,-1.3057,-1.3477,-1.3525,-1.3369,-1.2983,-1.2944,-1.312,-1.3516,-1.3545,-1.373,-1.4124,-1.458,-1.4833,-1.4833,-1.5205,-1.541,-1.541,-1.542,-1.542,-1.542,-1.5899,-1.6105,-1.6105,-1.6523,-1.6494,-1.6145,-1.6145,-1.6205,-1.6297,-1.5684,-1.6077,-1.6891,-1.5831,-1.5439,-1.5449,-1.5449,-1.5723,-1.6056,0.0,0.0,0.0,0.0,0.0,0.0,0.0,0.0,0.0091,0.0304,0.0389,0.0504,0.0784,0.0874,0.0905,0.0905,0.0864,0.0757,0.055,0.0465,0.028,0.0,0.0,0.0,0.0,0.0,0.0,0.0,0.0,-0.0098,-0.0271,-0.082,-0.1631,-0.2564,-0.3154,-0.3898,-0.4723,-0.4797,-0.4797,-0.474,-0.5108,-0.5038,-0.4843,0.0,0.0,0.0,0.0,0.0,0.0,0.0,0.0,0.0,0.0,0.0,0.0,0.0,0.0,0.0,0.0,0.0,0.0,0.0,0.0,0.0,0.0,0.0,0.0,0.0,0.0,0.0,0.0,0.0,0.0,0.0,-1.2044,-1.2582,-1.2686,-1.3066,-1.3486,-1.389,-1.3938,-1.389,-1.3773,-1.3763,-1.3965,-1.4404,-1.4434,-1.4619,-1.5011,-1.5176,-1.5244,-1.5244,-1.5352,-1.541,-1.541,-1.5723,-1.5723,-1.542,-1.6182,-1.6377,-1.6105,-1.6523,-1.6723,-1.6761,-1.6761,-1.6917,-1.7154,-1.6725,-1.6784,-1.7046,-1.6225,-1.6084,-1.6336,-1.6336,-1.6414,-1.6533,0.0,0.0,0.0,0.0,0.0,0.0,0.0,0.0,0.0091,0.0357,0.0394,0.0508,0.0831,0.0871,0.0899,0.086,0.0777,0.0656,0.0526,0.0327,0.0166,0.0,0.0,0.0,0.0,0.0,0.0,0.0,0.0,0.0,0.0,-0.0427,-0.1263,-0.2403,-0.2846,-0.368,-0.4838,-0.4973,-0.5097,-0.518,-0.5338,-0.5254,-0.5136,-0.6205,-0.6626,-0.6676,-0.7224,-0.7647,-0.7921,-0.7738,0.0,0.0,0.0,0.0,0.0,0.0,0.0,0.0,0.0,0.0,0.0,0.0,0.0,0.0,0.0,0.0,0.0,0.0,0.0,0.0,0.0,0.0,0.0,0.0,-1.2842,-1.3467,-1.3678,-1.3887,-1.4199,-1.4591,-1.464,-1.464,-1.464,-1.464,-1.4747,-1.5029,-1.5049,-1.5156,-1.54,-1.541,-1.541,-1.541,-1.541,-1.5527,-1.5772,-1.5998,-1.6086,-1.6087,-1.6701,-1.6875,-1.6662,-1.707,-1.7233,-1.7162,-1.7162,-1.7312,-1.7515,-1.705,-1.7189,-1.7553,0.0,0.0,0.0,0.0,-1.6863,-1.6726,0.0,0.0,0.0,0.0,0.0,0.0,0.0,-0.0045,0.0069,0.0287,0.0372,0.0508,0.0791,0.0861,0.0864,0.0814,0.0677,0.054,0.038,0.0145,0.0,0.0,0.0,0.0,0.0,0.0,0.0,0.0,0.0,0.0,0.0,0.0,-0.0887,-0.2505,-0.2505,-0.3455,-0.5046,-0.5123,-0.5263,-0.5467,-0.5374,-0.5354,-0.5432,-0.6443,-0.7045,-0.7403,-0.8084,-0.8459,-0.8567,-0.8136,0.0,0.0,0.0,0.0,0.0,0.0,0.0,0.0,0.0,0.0,0.0,0.0,0.0,0.0,0.0,0.0,0.0,0.0,0.0,0.0,0.0,0.0,0.0,0.0,-1.373,-1.4426,-1.4941,-1.5028,-1.5136,-1.5381,-1.5459,-1.5469,-1.542,-1.541,-1.541,-1.5439,-1.5459,-1.5488,-1.5517,-1.5537,0.0,0.0,0.0,-1.5812,-1.6317,-1.6315,-1.6512,-1.6901,-1.7295,-1.7465,-1.7425,-1.7822,-1.7803,-1.7484,-1.7484,-1.7573,-1.7655,-1.7128,-1.7455,-1.8234,-1.7265,-1.6875,-1.6924,-1.737,-1.7272,-1.6966,0.0,0.0,0.0,0.0,0.0,0.0,0.0,-0.0254,-0.0048,-0.0149,0.0155,0.0533,0.085,0.0841,0.0823,0.0868,0.0656,0.0436,0.025,0.0077,0.0,0.0,0.0,0.0,0.0,0.0,0.0,0.0,0.0,0.0,0.0,0.0,-0.0895,-0.2488,-0.2488,-0.3505,-0.5243,-0.5413,-0.5633,-0.5797,-0.5735,-0.5656,-0.5655,-0.6657,-0.7142,-0.7418,-0.824,-0.8711,-0.8886,-0.8561,-0.8394,-0.8237,-0.7912,-0.7921,0.0,0.0,0.0,0.0,0.0,0.0,0.0,0.0,0.0,0.0,0.0,0.0,0.0,0.0,0.0,0.0,0.0,0.0,0.0,-1.3724,-1.4582,-1.542,-1.621,-1.6471,-1.6296,-1.5488,-1.5723,-1.5831,-1.5449,-1.541,-1.5478,-1.5643,-1.5831,-1.5998,-1.6128,-1.6341,-1.6506,-1.6692,-1.6682,-1.6553,-1.6317,-1.7126,-1.7135,-1.6293,-1.753,0.0,-1.757,-1.788,-1.8061,-1.8117,-1.8117,-1.8218,-1.8308,-1.8195,-1.8265,-1.8428,-1.8124,-1.7988,-1.7998,-1.8221,-1.8235,-1.8175,0.0,0.0,0.0,0.0,0.0,0.0,0.0,-0.0844,-0.0638,-0.0425,-0.0202,0.0128,0.061,0.0609,0.0519,0.0327,0.0122,-0.0071,-0.0232,-0.0105,0.0,0.0,0.0,0.0,0.0,0.0,0.0,0.0,0.0,0.0,0.0,0.0,-0.088,-0.2503,-0.2503,-0.3558,-0.5321,-0.5518,-0.5671,-0.5812,-0.5782,-0.5718,-0.5734,-0.6935,-0.7519,-0.7776,-0.8669,-0.9153,-0.9286,-0.8837,-0.8745,-0.8758,-0.8438,-0.8682,-0.8798,0.0,0.0,0.0,0.0,0.0,0.0,0.0,0.0,0.0,0.0,0.0,0.0,0.0,0.0,-1.209,-1.2734,0.0,-1.4138,-1.4961,-1.5644,-1.62,-1.6638,-1.6978,-1.6902,-1.6152,-1.6352,-1.6432,-1.6094,-1.6125,-1.6127,-1.592,-1.6386,-1.6445,-1.5881,-1.6375,-1.6545,-1.6367,-1.6417,-1.6477,-1.6558,-1.699,-1.7118,-1.7012,-1.7743,-1.7985,-1.7819,-1.8113,-1.8279,-1.8303,-1.8371,-1.8448,-1.8516,-1.8516,-1.8516,-1.8516,-1.8539,-1.8472,-1.8414,-1.8482,-1.8516,-1.8516,0.0,0.0,0.0,0.0,0.0,0.0,0.0,-0.1465,-0.1253,-0.0815,-0.061,-0.0341,0.0075,0.022,0.0048,-0.0447,-0.0593,-0.0752,-0.0892,-0.0591,-0.0399,-0.0396,-0.0281,-0.0229,-0.0228,-0.0069,0.0,0.0,0.0,0.0,0.0,-0.0156,-0.1053,-0.2503,-0.2699,-0.3752,-0.5359,-0.5556,-0.5723,-0.5826,-0.5801,-0.5838,-0.6018,-0.7203,-0.7767,-0.8037,-0.9028,-0.9468,-0.9446,-0.8965,-0.8898,-0.9018,-0.8891,-0.9333,-0.9583,-0.8112,-0.8099,0.0,0.0,0.0,0.0,0.0,0.0,0.0,0.0,-1.1071,-1.1465,-1.2375,-1.2642,-1.3012,-1.4046,-1.4619,-1.5186,-1.6085,-1.6525,-1.6787,-1.6921,-1.7383,-1.7475,-1.6936,-1.7005,-1.7038,-1.6833,-1.6918,-1.6822,-1.6343,-1.6887,-1.6808,-1.5792,-1.6357,-1.6517,-1.6058,-1.6136,-1.6414,-1.6797,-1.685,-1.7212,-1.7896,-1.8019,-1.8198,-1.8424,-1.8494,-1.8522,-1.8524,-1.8546,-1.8583,-1.8617,-1.8617,-1.8617,-1.864,-1.8808,-1.8741,-1.8617,-1.8617,-1.8667,-1.8738,0.0,0.0,0.0,0.0,0.0,0.0,0.0,0.0,-0.1494,-0.1719,-0.1007,-0.0576,-0.0829,-0.0462,-0.0493,-0.1131,-0.1245,-0.1404,-0.1654,-0.1735,-0.1808,-0.1873,-0.131,-0.0961,-0.0971,-0.0325,0.0,0.0,0.0,0.0,0.0,-0.0805,-0.1649,-0.2543,-0.3482,-0.4538,-0.5598,-0.5789,-0.6012,-0.621,-0.5918,-0.6254,-0.696,-0.7385,-0.7539,-0.7726,-0.8961,-0.9177,-0.8898,-0.8831,-0.8657,-0.8536,-0.8888,-0.9055,-0.8975,-0.8179,-0.8209,-0.8332,-0.7491,-0.8044,-0.9151,-1.0369,-1.0712,-1.116,0.0,-1.29,-1.29,-1.3724,-1.4228,-1.4541,-1.4687,-1.5059,-1.5635,-1.6482,-1.6815,-1.7184,-1.7754,-1.8305,-1.8374,-1.7595,-1.7503,-1.7451,-1.7252,-1.7096,-1.7014,-1.7068,-1.7045,-1.7025,-1.6998,-1.709,-1.7193,-1.7297,-1.7328,-1.7155,-1.6797,-1.7739,-1.8086,-1.7908,-1.8443,-1.9151,-1.992,-1.8946,-1.8839,-1.9355,-1.8948,-1.8875,-1.9031,-1.9031,-1.9031,-1.9042,-1.9075,-1.9031,-1.9031,-1.9031,-1.93,-1.9589,0.0,0.0,0.0,0.0,0.0,0.0,0.0,0.0,0.0,-0.2036,-0.1676,-0.1377,-0.1239,-0.1292,-0.1458,-0.1746,-0.1857,-0.197,-0.2089,-0.2039,-0.2022,-0.2027,-0.1897,-0.1809,-0.1789,-0.1574,-0.1472,-0.1472,-0.1455,-0.1474,-0.1449,-0.1821,-0.2518,-0.3441,-0.391,-0.4732,-0.5789,-0.5864,-0.6,-0.6171,-0.6038,-0.6271,-0.6786,-0.7051,-0.7304,-0.7636,-0.8679,-0.8984,0.0,-0.841,-0.8398,-0.8575,-0.8502,-0.8506,-0.847,-0.8105,-0.7824,-0.7678,-0.7889,-0.8832,-1.0008,-1.1049,-1.1692,-1.2314,-1.3281,-1.3555,-1.3848,-1.4679,-1.5019,-1.541,-1.6255,-1.6282,-1.6449,-1.7268,-1.739,-1.7476,-1.7896,-1.8134,-1.8195,-1.7928,-1.7676,-1.7555,-1.7636,-1.7636,-1.7535,-1.722,-1.7579,-1.7418,-1.6477,-1.686,-1.7083,-1.7073,-1.7174,-1.7246,-1.7318,-1.7781,-1.8006,-1.8027,-1.8383,-1.878,-1.9196,-1.8948,-1.9011,-1.9253,-1.9057,-1.9008,-1.9108,-1.9108,-1.9108,-1.9108,-1.9108,-1.9264,-1.9471,-1.9202,-1.9222,-1.9367,0.0,0.0,0.0,0.0,0.0,0.0,0.0,0.0,0.0,0.0,-0.2184,-0.1967,-0.1633,-0.2028,-0.2324,-0.2324,-0.2433,-0.2528,-0.2602,-0.2495,-0.249,-0.2585,-0.2536,-0.2499,-0.2551,-0.2464,-0.2452,-0.2452,-0.2551,-0.2582,-0.2582,-0.2893,-0.3439,-0.4181,-0.4426,-0.5029,-0.5838,-0.5914,-0.6003,-0.6126,-0.6213,-0.6471,-0.6808,-0.7009,-0.729,-0.7721,-0.8279,-0.8491,-0.8409,-0.7798,-0.785,-0.8126,-0.7873,-0.7882,-0.7979,-0.7831,-0.738,-0.7172,-0.8372,-0.9419,-1.048,-1.1804,-1.269,-1.3398,-1.4062,-1.4328,-1.4669,-1.5439,-1.5625,-1.5969,-1.7007,-1.6874,-1.6857,-1.7484,-1.7576,-1.7598,-1.765,-1.788,-1.7956,-1.7766,-1.7512,-1.7451,-1.763,-1.7816,-1.7754,-1.7314,-1.7707,-1.7431,-1.6204,-1.657,-1.6853,-1.6847,-1.6957,-1.7234,-1.7699,-1.7823,-1.807,-1.8383,-1.8503,-1.8746,-1.9039,-1.9212,-1.9222,-1.9108,-1.9108,-1.9108,-1.9108,-1.9108,-1.9108,-1.9108,-1.9108,-1.9316,-1.9564,-1.9233,-1.9181,-1.9274,0.0,0.0,0.0,0.0,0.0,0.0,0.0,0.0,0.0,0.0,0.0,0.0,0.0,-0.2553,-0.2868,-0.2868,-0.2936,-0.3077,-0.3355,-0.3493,-0.369,-0.4033,-0.3341,-0.3029,-0.3176,-0.2613,-0.2305,-0.2305,-0.263,-0.2779,-0.2818,-0.3867,-0.437,-0.4445,-0.5258,-0.5654,-0.5719,-0.599,-0.6108,-0.614,-0.6537,-0.7049,-0.7562,-0.7511,-0.7687,-0.7943,-0.7729,-0.7466,-0.7216,-0.6935,-0.6845,-0.6871,-0.6997,-0.7256,-0.7474,-0.7274,-0.6979,-0.7078,-0.8734,-0.9488,-1.0409,-1.282,-1.3753,-1.4397,-1.5723,-1.5664,-1.5498,-1.5977,-1.6166,-1.6246,-1.6154,-1.6336,-1.6546,-1.6711,-1.7189,-1.7398,-1.7053,-1.7827,-1.7998,-1.696,-1.6948,-1.7007,-1.7018,-1.7328,-1.7523,-1.7481,-1.7073,-1.6848,-1.6777,-1.6535,-1.6601,-1.6966,-1.7017,-1.7234,-1.7699,-1.8143,-1.8621,-1.9077,-1.9088,-1.952,-2.0333,-1.9934,-1.9533,-1.9108,-1.9108,-1.9108,-1.9108,-1.9108,-1.9108,-1.9108,-1.9108,-1.9108,-1.9119,-1.9108,-1.9388,-1.971,0.0,0.0,0.0,0.0,0.0,0.0,0.0,0.0,0.0,0.0,0.0,0.0,0.0,0.0,0.0,0.0,-0.3204,-0.333,-0.3527,-0.3657,-0.3809,-0.4021,-0.3848,-0.3738,-0.3805,-0.3773,-0.3774,-0.3774,-0.4092,-0.4253,-0.4256,-0.473,-0.4987,-0.5138,-0.5569,-0.5841,-0.5987,-0.6151,-0.6522,-0.6936,-0.667,-0.7189,-0.8052,-0.7205,-0.7172,-0.7451,0.0,-0.6798,-0.7007,-0.6648,-0.6772,-0.7065,-0.7067,-0.7027,-0.6871,-0.6407,-0.7261,-0.8492,-0.9099,-1.0741,-1.2586,-1.3997,-1.4893,-1.5557,-1.5997,-1.5977,-1.5919,-1.6065,-1.5674,-1.5457,-1.5899,-1.571,-1.5618,-1.598,-1.6615,-1.7022,-1.6992,-1.7277,-1.7347,-1.6988,-1.6748,-1.6601,-1.6601,-1.6956,-1.7184,-1.7184,-1.7039,-1.6917,-1.6917,-1.6842,-1.716,-1.7905,-1.7926,-1.8154,-1.862,-1.8797,-1.8942,-1.9108,-1.9108,-1.9264,-1.952,-1.9409,-1.9253,-1.9108,-1.9108,-1.9108,-1.9108,-1.9108,-1.9108,-1.9108,-1.9108,-1.9108,-1.9108,-1.9108,-1.9202,-1.9316,0.0,0.0,0.0,0.0,0.0,0.0,0.0,0.0,0.0,0.0,0.0,0.0,0.0,0.0,0.0,0.0,0.0,-0.3383,-0.352,-0.3607,-0.3746,-0.3997,-0.4006,-0.4052,-0.4142,-0.4284,-0.4377,-0.4426,-0.4758,-0.4947,-0.4993,-0.5096,-0.5218,-0.5359,-0.5508,-0.562,-0.5755,-0.6063,-0.6494,-0.6958,-0.6886,-0.7302,-0.7889,-0.7273,-0.7113,0.0,-0.651,-0.6546,-0.6817,-0.6346,-0.641,-0.6691,-0.6644,-0.6517,-0.6353,-0.6231,-0.734,-0.8876,-0.9963,-1.177,-1.3684,-1.5215,-1.5949,-1.6378,-1.6535,-1.632,-1.6046,-1.5889,-1.5331,-1.4936,-1.5215,-1.5079,-1.4948,-1.4985,-1.5631,-1.6159,-1.6226,-1.6399,-1.6645,-1.6975,-1.6758,-1.6612,-1.6612,-1.6841,-1.6944,-1.6789,-1.7079,-1.7192,-1.7017,-1.7316,-1.7792,-1.8393,-1.8414,-1.8631,-1.9098,-1.9108,-1.9108,-1.9108,-1.9108,-1.9108,-1.9108,-1.9108,-1.9108,-1.9108,-1.9108,-1.9108,-1.9108,-1.9108,-1.9108,-1.9108,-1.9108,-1.9108,-1.9108,-1.9108,-1.9108,-1.9108,0.0,0.0,0.0,0.0,0.0,0.0,0.0,0.0,0.0,0.0,0.0,0.0,0.0,0.0,0.0,0.0,0.0,0.0,-0.3433,-0.3422,-0.3596,-0.3984,-0.3851,-0.3902,-0.4163,-0.4108,-0.4142,-0.427,-0.4615,-0.4842,-0.4963,-0.5031,-0.5094,-0.5122,-0.5132,-0.5156,-0.5205,-0.581,-0.6131,-0.6374,-0.7173,-0.7407,-0.7312,-0.7646,-0.7504,-0.707,-0.6769,-0.6695,-0.6651,-0.6085,-0.591,-0.5926,-0.594,0.0,0.0,0.0,-0.7462,-0.8514,-1.134,-1.2664,-1.3874,-1.6393,-1.6884,-1.6865,-1.7256,-1.6701,-1.5938,-1.5469,-1.5133,-1.4735,-1.415,-1.4436,-1.4525,-1.383,-1.448,-1.5043,-1.4901,-1.5402,-1.6115,-1.6944,-1.7068,-1.7079,-1.7079,-1.7058,-1.6872,-1.6516,-1.7222,-1.7492,-1.7099,-1.7916,-1.8424,-1.8445,-1.8445,-1.8652,-1.9098,-1.9108,-1.9108,-1.9108,-1.9108,-1.9108,-1.9108,-1.9108,-1.9108,-1.9108,-1.9108,-1.9108,-1.9108,-1.9108,-1.9108,-1.9108,-1.9108,-1.9108,-1.9108,-1.9108,-1.9108,-1.9108,0.0,0.0,0.0,0.0,0.0,0.0,0.0,0.0,0.0,0.0,0.0,0.0,0.0,0.0,0.0,0.0,0.0,0.0,-0.4182,-0.3799,-0.3635,-0.384,-0.3716,-0.3681,-0.3753,-0.3825,-0.3893,-0.3931,-0.4208,-0.4435,-0.4549,-0.4684,-0.4976,-0.5401,-0.5551,-0.5834,-0.6249,-0.6528,-0.7046,-0.7591,-0.7367,-0.7604,-0.8067,-0.77,-0.7409,-0.7202,-0.7479,-0.7446,-0.7277,-0.7111,0.0,0.0,0.0,-0.7826,-0.7904,0.0,0.0,-1.2249,-1.3338,-1.5102,-1.6795,-1.7298,-1.7414,-1.7268,-1.6943,-1.6282,-1.5615,-1.5181,-1.4298,-1.3556,-1.3437,-1.3852,-1.417,-1.4023,-1.5143,-1.6032,-1.5994,-1.6676,-1.7265,-1.7502,-1.7843,-1.804,-1.804,-1.7719,-1.7482,-1.7368,-1.7254,-1.743,-1.8009,-1.8289,-1.8569,-1.8911,-1.8922,-1.8984,-1.9108,-1.9108,-1.9108,-1.9108,-1.9108,-1.9108,-1.9108,-1.9108,-1.9108,-1.9108,-1.9108,-1.9108,-1.9108,-1.9108,-1.9108,-1.9108,-1.9108,-1.9108,-1.9108,-1.9108,-1.9108,-1.9108,0.0,0.0,0.0,0.0,0.0,0.0,0.0,0.0,0.0,0.0,0.0,0.0,0.0,0.0,0.0,0.0,0.0,0.0,0.0,-0.4399,-0.4272,-0.4414,-0.4281,-0.423,-0.4304,-0.4325,-0.4388,-0.451,-0.4661,-0.4823,-0.5022,-0.5,-0.5212,-0.5594,-0.5772,-0.6051,-0.6399,-0.6781,-0.7225,0.0,0.0,-0.7823,-0.8105,-0.8152,-0.7862,-0.7516,-0.8211,-0.8404,-0.8299,0.0,0.0,-0.8773,-0.9045,-0.9313,-0.9782,-1.11,0.0,-1.3785,-1.5039,-1.6336,-1.7423,-1.7885,-1.7648,-1.7137,-1.6391,-1.5753,-1.5109,-1.4298,-1.3729,-1.3328,-1.3178,-1.3425,-1.3684,-1.3773,-1.4579,-1.538,-1.6019,-1.6694,-1.7429,-1.8226,-1.8713,-1.9015,-1.9015,-1.8578,-1.8319,-1.8319,-1.8081,-1.8061,-1.8361,-1.8797,-1.9046,-1.9108,-1.9295,-1.9502,-1.9665,-1.9502,-1.9409,-1.9409,-1.9202,-1.9108,-1.9108,-1.9108,-1.9108,-1.9108,-1.9108,-1.9108,-1.9108,-1.9108,-1.9108,-1.9108,-1.9108,-1.9108,-1.9108,-1.9108,-1.9108,-1.9108,0.0,0.0,0.0,0.0,0.0,0.0,0.0,0.0,0.0,0.0,-0.5108,0.0,0.0,0.0,0.0,0.0,0.0,0.0,0.0,0.0,-0.5046,-0.5162,-0.5061,-0.5073,-0.5167,-0.5078,-0.5139,-0.5368,-0.5386,-0.5506,-0.5754,-0.5571,-0.5619,-0.5818,-0.5937,-0.6095,-0.6316,-0.6844,-0.7141,-0.7324,-0.7894,-0.8031,-0.7946,0.0,-0.8406,-0.7919,-0.8807,-0.9242,-0.9321,0.0,-0.9104,-0.965,-0.9936,-1.0681,-1.1682,-1.2919,-1.359,-1.4407,-1.6389,-1.6889,-1.7073,-1.8097,-1.7648,-1.6715,-1.5771,-1.5186,-1.4502,-1.3278,-1.3338,-1.3501,-1.3065,-1.3152,-1.3333,-1.3463,-1.371,-1.4335,-1.5597,-1.6309,-1.7232,-1.8745,-1.944,-1.9772,-1.971,-1.9347,-1.9108,-1.9108,-1.916,-1.9025,-1.8621,-1.9357,-1.9637,-1.9295,-1.9616,-1.9979,-2.0338,-1.9955,-1.9761,-1.9699,-1.9295,-1.9108,-1.9108,-1.9108,-1.9108,-1.9108,-1.9108,-1.9108,-1.9108,-1.9108,-1.9108,-1.9108,-1.9108,-1.9108,-1.9108,-1.9108,-1.9108,-1.9108,0.0,0.0,0.0,0.0,0.0,0.0,0.0,0.0,0.0,0.0,-0.6131,-0.5585,0.0,0.0,0.0,0.0,0.0,0.0,0.0,0.0,0.0,-0.504,-0.5072,-0.5072,-0.504,-0.5176,-0.5219,-0.5154,-0.5254,-0.5411,-0.5562,-0.5525,-0.581,-0.6373,-0.6394,-0.671,-0.7257,-0.737,-0.7714,-0.8152,-0.7901,-0.819,-0.8706,-0.8137,0.0,0.0,-0.8685,0.0,-0.9402,-0.9362,-0.9669,-1.0278,-1.1409,-1.2404,-1.344,-1.4804,-1.5769,-1.6487,-1.6875,-1.7523,-1.8017,-1.7736,-1.7246,-1.6556,-1.5505,-1.4657,0.0,-1.3282,-1.3183,-1.3055,-1.2613,-1.3206,-1.3796,-1.3891,-1.4702,-1.5573,-1.6205,-1.7315,-1.8019,-1.7936,-1.9023,-1.9647,-1.9264,-1.915,-1.9108,-1.9108,-1.9461,-1.9637,-1.9564,-1.971,-1.9927,-2.0182,-1.9948,-1.9834,-1.9907,-1.9834,-1.9606,-1.9222,-1.9139,-1.9108,-1.9108,-1.9108,-1.9108,-1.9108,-1.9108,-1.9108,-1.9108,-1.9108,-1.9108,-1.9108,-1.9108,-1.9108,-1.9108,-1.9108,-1.9108,-1.9108,0.0,0.0,0.0,0.0,0.0,0.0,0.0,-0.7406,-0.7472,-0.7236,-0.712,-0.6856,-0.6382,-0.6204,-0.6174,0.0,0.0,0.0,0.0,0.0,0.0,0.0,0.0,0.0,-0.5879,-0.5986,-0.6029,-0.6029,0.0,-0.6215,-0.6398,-0.6398,-0.6605,-0.7021,-0.7021,-0.7377,-0.7966,-0.8,-0.8165,-0.8406,-0.8453,-0.8415,-0.8317,0.0,0.0,0.0,0.0,0.0,0.0,-0.9169,-0.9485,-1.0118,-1.1747,-1.3204,-1.4604,-1.5963,-1.6676,-1.712,-1.7616,-1.7709,-1.7626,-1.7533,-1.6951,-1.6116,-1.4851,0.0,0.0,-1.2719,-1.2829,-1.304,-1.2811,-1.3196,-1.3645,-1.3987,-1.4574,-1.5297,-1.6278,-1.7129,-1.7864,-1.8371,-1.9253,-1.9793,-1.9768,-1.9606,-1.9461,-1.9461,-1.9668,-1.9793,-1.9793,-1.9793,-1.9965,-2.0374,-2.0021,-1.9907,-2.01,-1.9907,-1.9679,-1.9461,-1.9222,-1.9108,-1.9108,-1.9108,-1.9108,-1.9108,-1.9108,-1.9108,-1.9108,-1.9108,-1.9243,-1.944,-1.9202,-1.9253,-1.943,-1.9191,-1.9108,-1.9108,0.0,0.0,0.0,0.0,0.0,0.0,0.0,-0.7489,-0.776,-0.7376,-0.7839,-0.8001,-0.7518,-0.7204,-0.7002,0.0,0.0,0.0,0.0,0.0,0.0,0.0,0.0,0.0,0.0,0.0,0.0,-0.6893,-0.6935,0.0,0.0,0.0,0.0,0.0,-0.7648,-0.7921,-0.8395,-0.8468,-0.8462,0.0,0.0,-0.854,0.0,0.0,0.0,0.0,0.0,0.0,0.0,0.0,-0.9025,-0.9633,-1.1188,-1.3072,-1.4914,-1.5963,-1.6624,-1.7151,-1.7781,-1.7585,-1.7193,-1.7359,-1.6704,-1.5652,-1.4251,-1.375,0.0,-1.2172,-1.246,-1.2912,-1.2984,-1.3096,-1.3363,-1.3899,-1.4167,-1.4759,-1.6081,-1.6676,-1.7409,-1.8506,-1.9243,-1.9741,-1.9965,-1.9793,-1.9647,-1.9647,-1.9741,-1.9886,-2.0072,-1.999,-2.011,-2.0555,-2.0048,-1.9969,-2.0276,-1.9969,-1.9741,-1.9647,-1.9285,-1.9108,-1.9108,-1.9108,-1.9108,-1.9108,-1.9108,-1.9108,-1.9108,-1.9108,-1.9316,-1.9616,-1.9243,-1.9326,-1.9606,-1.9233,-1.9108,-1.9108,0.0,0.0,0.0,0.0,0.0,0.0,0.0,-0.7744,-0.7852,-0.7765,-0.8008,-0.8223,-0.8272,-0.805,-0.7651,0.0,0.0,0.0,0.0,0.0,0.0,0.0,0.0,0.0,0.0,0.0,0.0,-0.6893,-0.709,0.0,0.0,0.0,0.0,0.0,0.0,-0.8226,-0.839,-0.8409,0.0,0.0,0.0,0.0,0.0,0.0,0.0,0.0,0.0,-0.8218,-0.8263,0.0,0.0,-0.9036,-0.9511,-1.1541,-1.3741,-1.3876,0.0,0.0,-1.6653,-1.7108,-1.7554,-1.7142,-1.6397,-1.5353,-1.3969,0.0,-1.2589,-1.2173,-1.2201,-1.2355,-1.2589,-1.2956,-1.3286,-1.3515,-1.3961,-1.4645,-1.5645,-1.6469,-1.7058,-1.7182,-1.835,-1.9015,-1.8631,-1.8942,-1.917,-1.917,-1.9554,-2.0155,-2.0948,-2.0586,-2.0576,-2.1005,-2.0249,-1.9813,-1.9855,-1.9813,-1.9585,-1.917,-1.9119,-1.9108,-1.9108,-1.9108,-1.9108,-1.9108,-1.9108,-1.9108,-1.9108,-1.9108,-1.9129,-1.916,-1.9119,-1.9129,-1.916,-1.9119,-1.9108,-1.9108,0.0,0.0,0.0,0.0,0.0,0.0,-0.7619,-0.778,-0.7891,-0.7802,-0.8105,-0.8368,-0.8501,-0.8423,-0.8075,-0.7367,0.0,0.0,0.0,0.0,0.0,0.0,0.0,0.0,0.0,0.0,-0.7027,-0.7083,-0.7167,0.0,0.0,0.0,0.0,0.0,0.0,-0.8714,-0.8771,-0.8846,0.0,0.0,0.0,0.0,0.0,0.0,0.0,0.0,0.0,0.0,-0.8201,-0.8201,0.0,0.0,-0.8628,-0.9781,0.0,0.0,-1.4419,-1.5508,-1.6198,-1.6643,-1.687,-1.6694,-1.5742,-1.4645,-1.3745,0.0,-1.2231,-1.2027,-1.2161,-1.2444,-1.2893,-1.3097,-1.3357,-1.3787,-1.3879,-1.4407,-1.5925,-1.5691,-1.6001,-1.7647,-1.7854,-1.8102,-1.8766,-1.8994,-1.9336,-1.9841,-2.0058,-2.0565,-2.1476,-2.0824,-2.0602,-2.1104,-2.0493,-2.0162,-2.0162,-1.9927,-1.9699,-1.9523,-1.9233,-1.9108,-1.9119,-1.9388,-1.9367,-1.9119,-1.9399,-1.9357,-1.9108,-1.9108,-1.9264,-1.9492,-1.9212,-1.9274,-1.9492,-1.9202,-1.9108,-1.9108,0.0,0.0,0.0,0.0,0.0,-0.7838,-0.7638,-0.778,-0.7891,-0.7802,-0.8151,-0.8448,-0.8573,-0.86,-0.8384,-0.7804,-0.762,0.0,0.0,0.0,0.0,0.0,0.0,0.0,0.0,0.0,-0.7181,-0.7398,-0.7475,-0.8006,0.0,0.0,-0.8985,-0.9947,0.0,0.0,0.0,0.0,0.0,0.0,0.0,0.0,0.0,0.0,0.0,0.0,0.0,0.0,0.0,0.0,0.0,0.0,0.0,-0.8521,-0.9392,0.0,-1.3251,-1.4521,-1.5504,-1.6167,-1.6539,-1.6444,-1.5339,-1.4124,0.0,0.0,-1.1898,-1.1892,-1.2095,-1.245,-1.3141,-1.3266,-1.3466,-1.4047,-1.3951,-1.4324,-1.5773,-1.5245,-1.5484,-1.7574,-1.7316,-1.7492,-1.8776,-1.9025,-1.943,-2.0172,-2.0224,-2.0627,-2.1549,-2.0979,-2.0772,-2.1104,-2.0622,-2.0385,-2.0385,-2.011,-1.999,-1.9955,-1.9624,-1.9468,-1.9479,-1.9844,-1.9813,-1.9489,-1.981,-1.973,-1.9316,-1.9316,-1.9419,-1.9554,-1.9233,-1.9305,-1.9554,-1.9222,-1.9108,-1.9108,0.0,0.0,0.0,0.0,0.0,0.0,-0.7638,-0.778,-0.7891,-0.7802,-0.8151,-0.8448,-0.8573,-0.86,-0.8541,-0.8397,-0.8193,0.0,0.0,0.0,0.0,0.0,0.0,0.0,0.0,0.0,-0.7419,-0.7891,-0.8082,-0.8641,-0.9474,-0.9146,-0.967,-1.0855,0.0,0.0,0.0,0.0,0.0,0.0,0.0,0.0,0.0,0.0,0.0,0.0,0.0,0.0,0.0,0.0,0.0,0.0,0.0,-0.8015,-0.8133,-0.9223,-1.1809,-1.4314,-1.4324,-1.5632,-1.6903,-1.6487,-1.5339,-1.4041,0.0,0.0,-1.1491,-1.1831,-1.19,-1.2216,-1.3199,-1.3396,-1.3587,-1.4206,-1.4304,0.0,-1.4945,-1.539,-1.5884,-1.6371,-1.6748,-1.7368,-1.8331,-1.8839,-1.9295,-1.9772,-1.9803,-2.0207,-2.1073,-2.1114,-2.1104,-2.1114,-2.0622,-2.0385,-2.0385,-2.0385,-2.0385,-2.0385,-2.0374,-2.0374,-2.0374,-2.0385,-2.0374,-2.0374,-2.0385,-2.0162,-1.9793,-1.9793,-1.9523,-1.9108,-1.9108,-1.9108,-1.9108,-1.9108,-1.9108,-1.9108,0.0,0.0,0.0,0.0,0.0,0.0,0.0,-0.7874,-0.7951,-0.805,-0.8192,-0.8321,-0.8448,-0.8374,-0.8389,-0.8534,-0.826,0.0,0.0,0.0,0.0,0.0,0.0,0.0,0.0,-0.8842,-0.9017,-0.8996,-0.9343,-0.9993,-1.0931,-1.051,-1.0831,-1.1765,-1.132,-1.08,0.0,0.0,0.0,0.0,0.0,0.0,-0.9843,0.0,0.0,0.0,0.0,0.0,0.0,0.0,0.0,0.0,0.0,0.0,0.0,-0.8795,-1.0101,0.0,-1.2939,-1.3951,-1.4795,-1.5308,-1.4548,-1.3611,-1.3334,-1.2487,-1.1861,-1.2285,-1.2373,-1.2577,-1.326,-1.3396,-1.3587,-1.4206,-1.402,-1.4324,-1.577,-1.5245,-1.5494,-1.7543,-1.8154,-1.8537,-1.8859,-1.9015,-1.9419,-2.0151,-2.0213,-2.0617,-2.1538,-2.159,-2.159,-2.159,-2.1445,-2.1373,-2.1373,-2.1052,-2.0897,-2.086,-2.054,-2.0385,-2.0395,-2.0715,-2.0684,-2.0405,-2.0762,-2.0462,-1.9793,-1.9793,-1.9523,-1.9108,-1.9108,-1.9108,-1.9139,-1.9461,-1.9378,-1.915,0.0,0.0,0.0,0.0,0.0,0.0,0.0,-0.8553,-0.858,-0.8712,-0.8586,-0.8613,-0.889,-0.8712,-0.8738,-0.9164,-0.9015,0.0,0.0,0.0,0.0,0.0,0.0,0.0,-0.9177,-0.9373,-0.9567,-0.9717,-1.0039,-1.0736,-1.1813,-1.1365,-1.1528,-1.2184,-1.1679,-1.1109,0.0,0.0,0.0,0.0,0.0,0.0,-1.0282,0.0,0.0,0.0,0.0,0.0,0.0,0.0,0.0,0.0,0.0,0.0,0.0,0.0,-0.9278,-1.0146,-1.1828,-1.3019,-1.3934,-1.4351,-1.3813,0.0,0.0,-1.2556,-1.2073,-1.238,-1.2571,-1.2817,-1.3233,-1.3552,-1.3988,-1.4702,-1.4728,-1.5059,-1.6247,-1.5773,-1.5942,-1.7678,-1.8423,-1.8839,-1.8839,-1.916,-1.9634,-2.0333,-2.055,-2.101,-2.1766,-2.1807,-2.1807,-2.1807,-2.1807,-2.1807,-2.1807,-2.1518,-2.1373,-2.1373,-2.1083,-2.0948,-2.0959,-2.1248,-2.1217,-2.0912,-2.1062,-2.069,0.0,-1.9865,-1.9627,-1.9347,-1.917,-1.9316,-1.9592,-1.9751,-1.972,-1.9603,0.0,0.0,0.0,0.0,0.0,0.0,0.0,-0.9588,-0.9588,-0.9588,-0.9283,-0.9237,-0.9736,-0.9439,-0.9465,-1.0141,0.0,0.0,0.0,0.0,0.0,0.0,0.0,0.0,-0.9447,-0.9215,-0.9456,-1.0206,-1.0397,-1.1095,-1.2242,-1.1878,-1.1878,-1.2174,-1.1367,-1.0987,-1.09,-1.0143,-1.0052,-1.0389,-1.0065,-1.021,0.0,0.0,0.0,0.0,0.0,0.0,0.0,0.0,0.0,0.0,0.0,0.0,0.0,0.0,0.0,0.0,0.0,-1.2667,-1.3922,-1.3655,-1.3207,-1.2785,-1.2683,-1.2404,0.0,-1.2256,-1.2589,-1.2907,-1.3171,-1.3812,-1.4604,-1.5494,-1.6029,-1.633,-1.6402,-1.6788,-1.7048,-1.6987,-1.7864,-1.8445,-1.8414,-1.9253,-1.999,-2.0405,-2.0829,-2.1311,-2.1776,-2.1807,-2.1807,-2.1807,-2.1807,-2.1807,-2.1807,-2.1807,-2.1807,-2.1807,-2.1807,-2.1807,-2.1807,-2.1807,-2.1787,-2.1735,-2.1331,-2.0866,-2.0348,-1.9965,-1.9803,-1.9699,-1.9274,-1.9603,-2.0338,-1.9979,-2.0048,-2.0327,0.0,0.0,0.0,0.0,0.0,0.0,0.0,0.0,0.0,0.0,-0.951,-0.9536,-0.9762,-0.9335,-0.9361,0.0,0.0,0.0,0.0,0.0,0.0,0.0,0.0,0.0,-1.0913,-1.1586,-1.17,-1.1255,-1.1943,-1.2448,-1.2725,-1.2746,-1.2545,-1.2194,-1.2195,-1.1848,-1.1247,-1.0556,-1.0367,-1.0534,-1.0367,-1.0406,0.0,0.0,0.0,0.0,-1.0784,-1.0598,0.0,0.0,0.0,0.0,0.0,0.0,0.0,0.0,-1.0139,-1.0765,-1.1146,0.0,-1.2287,-1.3208,-1.3239,-1.305,0.0,-1.303,-1.2882,-1.2952,-1.3114,-1.3273,-1.3341,-1.3871,-1.449,-1.507,-1.5245,-1.5566,-1.6309,-1.7067,-1.7409,-1.7028,-1.8143,-1.8797,-1.8445,-1.9253,-2.0124,-2.0886,-2.1052,-2.1311,-2.1776,-2.1807,-2.1807,-2.1807,-2.1807,-2.1807,-2.1807,-2.1807,-2.1807,-2.1807,-2.1807,-2.1807,-2.1807,-2.1807,-2.1611,-2.129,-2.1538,-2.099,-1.9969,-2.0172,-1.9862,-1.9253,-1.915,-1.945,-1.9979,-2.0182,-2.012,-1.9979,0.0,0.0,0.0,0.0,0.0,0.0,0.0,0.0,0.0,0.0,0.0,-1.0131,-1.0541,-1.0131,0.0,0.0,0.0,0.0,0.0,0.0,0.0,0.0,0.0,-1.163,-1.175,-1.1898,-1.1943,-1.1888,-1.2353,-1.2686,-1.2905,-1.2748,-1.2414,-1.1904,-1.1689,-1.1346,-1.0914,-1.0556,-1.0438,-1.0505,-1.0495,0.0,0.0,0.0,0.0,0.0,-1.0678,-1.0563,0.0,-1.0217,-1.0034,-0.9818,0.0,0.0,0.0,0.0,-1.0389,-1.0864,-1.1261,-1.1366,-1.1571,-1.2473,-1.2634,-1.2626,-1.2956,-1.3087,-1.3176,-1.3194,-1.3314,-1.3481,-1.3685,-1.4039,-1.4666,-1.5735,-1.5763,-1.5877,-1.6581,-1.6933,-1.7253,-1.7616,-1.8309,-1.8932,-1.9282,-1.9965,-2.0586,-2.1073,-2.1311,-2.1538,-2.1797,-2.1807,-2.1807,-2.1807,-2.1807,-2.1807,-2.1807,-2.1807,-2.1807,-2.1807,-2.1807,-2.1807,-2.1807,-2.1807,-2.1662,-2.1435,-2.1476,-2.0948,-2.0069,-2.01,-1.9865,-1.9419,-1.9419,-1.9824,-2.041,-2.0648,-2.0721,-2.0705,0.0,0.0,0.0,0.0,0.0,0.0,0.0,0.0,0.0,0.0,0.0,0.0,0.0,0.0,0.0,0.0,0.0,0.0,0.0,0.0,0.0,0.0,-1.1741,-1.1608,-1.2203,-1.1562,-1.1521,-1.2203,-1.2203,-1.2398,-1.2773,-1.2334,-1.193,-1.1512,-1.0725,-1.0399,-1.0418,-1.0399,-1.0418,-1.0438,-1.0553,0.0,0.0,0.0,0.0,0.0,0.0,0.0,0.0,-1.038,-1.0122,-0.9825,-1.0106,0.0,0.0,0.0,0.0,0.0,-1.1305,-1.1412,-1.1428,-1.1961,-1.2051,-1.2121,-1.261,-1.298,-1.3242,-1.3242,-1.3399,-1.3658,-1.4057,-1.428,-1.4966,-1.6634,-1.6746,-1.6715,-1.7068,-1.6881,-1.7138,-1.8268,-1.8538,-1.9044,-2.0213,-2.0803,-2.1145,-2.1217,-2.159,-2.1807,-2.1807,-2.1807,-2.1807,-2.1807,-2.1807,-2.1807,-2.1807,-2.1807,-2.1766,-2.1694,-2.1694,-2.1694,-2.1694,-2.1694,-2.1694,-2.1683,-2.1362,-2.0876,-2.0296,-2.0021,-1.9813,-1.9699,-1.9772,-2.0311,-2.0984,-2.1093,-2.1321,-2.1455,0.0,0.0,0.0,0.0,0.0,0.0,0.0,0.0,0.0,0.0,0.0,0.0,0.0,0.0,0.0,0.0,0.0,0.0,0.0,0.0,0.0,-1.2505,-1.2148,-1.2033,-1.2203,-1.2461,-1.2461,-1.2203,-1.2203,-1.2242,-1.2301,-1.1987,-1.1672,-1.1316,-1.0617,-1.0409,-1.0563,-1.0448,-1.0467,-1.0582,-1.0602,0.0,0.0,0.0,0.0,0.0,0.0,0.0,0.0,-1.038,-1.0056,-0.9648,-0.9689,0.0,0.0,0.0,0.0,0.0,-1.0903,-1.1245,-1.158,-1.2725,-1.2666,-1.2483,-1.3135,-1.3311,-1.3372,-1.3372,-1.3799,-1.4171,-1.4268,-1.4599,-1.5245,-1.6312,-1.7067,-1.7513,-1.7585,-1.7885,-1.8175,-1.8383,-1.9108,-1.9668,-1.9876,-2.0617,-2.128,-2.1662,-2.1766,-2.1807,-2.1807,-2.1807,-2.1807,-2.1807,-2.1807,-2.1807,-2.1807,-2.1807,-2.1611,-2.1217,-2.1217,-2.1217,-2.1217,-2.1217,-2.1217,-2.1238,-2.1559,-2.1,-1.9917,-2.0193,-1.9872,-1.9253,-1.9647,-2.0079,-2.0576,-2.0932,-2.087,-2.0503,0.0,0.0,0.0,0.0,0.0,0.0,0.0,0.0,0.0,0.0,0.0,0.0,0.0,0.0,0.0,0.0,0.0,0.0,0.0,0.0,-1.2298,-1.2505,-1.2215,-1.2208,-1.2578,-1.2549,-1.2408,-1.2203,-1.2437,-1.2461,-1.2194,-1.1898,-1.139,-1.0746,-1.0547,-1.0448,-1.0438,-1.0486,-1.0495,-1.0495,0.0,0.0,0.0,0.0,0.0,0.0,0.0,0.0,0.0,0.0,-1.0185,-0.9941,-0.967,0.0,0.0,0.0,0.0,0.0,-1.0803,-1.1272,-1.1767,-1.2655,-1.2738,-1.2693,-1.3011,-1.3246,-1.3481,-1.3809,-1.4109,-1.4459,-1.4956,-1.5028,-1.5297,-1.6257,-1.7554,-1.8288,-1.7771,-1.8102,-1.86,-1.9098,-1.9533,-2.0083,-2.0793,-2.1248,-2.158,-2.1787,-2.1807,-2.1807,-2.1807,-2.1807,-2.1807,-2.1807,-2.1807,-2.1807,-2.1807,-2.1559,-2.1455,-2.1487,-2.1487,-2.1362,-2.1124,-2.1373,-2.1352,-2.1145,-2.1611,-2.1166,-2.0151,-2.0607,-2.0265,-1.9554,-2.0224,-2.0617,-2.0855,-2.1321,-2.1005,-2.0323,0.0,0.0,0.0,0.0,0.0,0.0,0.0,0.0,0.0,0.0,0.0,0.0,0.0,0.0,0.0,0.0,0.0,0.0,0.0,-1.2116,-1.2183,-1.2329,-1.1992,-1.2161,-1.2895,-1.2559,-1.2359,-1.2359,-1.2715,-1.2549,-1.1892,-1.1626,-1.1099,-1.0332,-1.0467,-1.0467,-1.038,-1.0505,-1.0515,-1.0457,0.0,0.0,0.0,0.0,0.0,0.0,0.0,0.0,0.0,0.0,0.0,0.0,0.0,0.0,0.0,-0.9435,-0.9648,-0.999,-1.0596,-1.1209,-1.1825,-1.2411,-1.2688,-1.2863,-1.3101,-1.3385,-1.3778,-1.4351,-1.4552,-1.4852,-1.5556,-1.5566,-1.5711,-1.6415,-1.7989,-1.8901,-1.8288,-1.8578,-1.9168,-2.0021,-2.0114,-2.0534,-2.1694,-2.1807,-2.1807,-2.1807,-2.1807,-2.1807,-2.1807,-2.1704,-2.1694,-2.1797,-2.1694,-2.1694,-2.1807,-2.1455,-2.1393,-2.1642,-2.1538,-2.1352,-2.1124,-2.1476,-2.1507,-2.13,-2.1652,-2.1342,-2.0581,-2.0932,-2.0638,-2.0031,-2.0803,-2.1186,-2.129,-2.1424,-2.1031,-2.0354,0.0,0.0,0.0,0.0,0.0,0.0,0.0,0.0,0.0,0.0,0.0,0.0,0.0,0.0,0.0,0.0,0.0,0.0,0.0,-1.1752,-1.1644,-1.1846,-1.1476,-1.1774,-1.2886,-1.2876,-1.2856,-1.2856,-1.2886,-1.2259,-1.0975,-1.0977,-1.0774,-1.038,-1.0332,-1.0409,-1.0563,-1.0457,-1.0476,-1.0582,-1.0602,0.0,0.0,0.0,0.0,0.0,0.0,0.0,0.0,0.0,0.0,0.0,0.0,0.0,-0.8561,-0.8936,-0.8799,-0.8796,-1.0019,-1.0825,-1.1508,-1.2231,-1.262,-1.305,-1.3989,-1.4206,-1.4361,-1.4852,-1.5297,-1.5608,-1.568,-1.6324,-1.6893,-1.6955,-1.8164,-1.9233,-1.9596,-1.9996,-2.0426,-2.0959,-2.1021,-2.1228,-2.1756,-2.1807,-2.1807,-2.1807,-2.1807,-2.1807,-2.1807,-2.1393,-2.1362,-2.1797,-2.1393,-2.1373,-2.1797,-2.1776,-2.1559,-2.1155,-2.0695,-2.0695,-2.1114,-2.1145,-2.1383,-2.1756,-2.1797,-2.1518,-2.1062,-2.1104,-2.0824,-2.0431,-2.0917,-2.1383,-2.1652,-2.0824,-2.0447,-2.0261,0.0,0.0,0.0,0.0,0.0,0.0,0.0,0.0,0.0,0.0,0.0,0.0,0.0,0.0,0.0,0.0,0.0,0.0,0.0,-1.1255,-1.1263,-1.1425,-1.1075,-1.1262,-1.2064,-1.2334,-1.2457,-1.2457,-1.222,-1.1829,-1.133,-1.1118,-1.0784,-1.0332,-1.0448,-1.0467,-1.0409,-1.0486,-1.0505,-1.0476,-1.0476,-1.0448,0.0,0.0,0.0,0.0,0.0,0.0,0.0,0.0,-1.0185,-0.999,-0.9698,-0.9211,-0.8799,-0.8955,-0.9065,-0.9268,-0.9848,-1.1025,-1.2135,-1.2208,-1.2756,-1.3456,-1.4035,-1.4229,-1.4438,-1.4904,-1.537,-1.5773,-1.6091,-1.6622,-1.7192,-1.7781,-1.8828,-1.9793,-2.0503,-2.099,-2.1352,-2.1518,-2.1549,-2.1611,-2.1787,-2.1807,-2.1683,-2.1393,-2.1642,-2.1683,-2.1393,-2.1487,-2.1621,-2.1797,-2.1631,-2.1631,-2.1807,-2.1518,-2.1435,-2.1538,-2.1373,-2.1217,-2.1124,-2.1414,-2.1487,-2.1393,-2.1683,-2.1538,-2.1135,-2.1424,-2.1269,-2.086,-2.1362,-2.1652,-2.1725,-2.1093,-2.0633,-2.0338,0.0,0.0,0.0,0.0,0.0,0.0,0.0,0.0,0.0,0.0,0.0,0.0,0.0,0.0,0.0,0.0,0.0,0.0,-1.096,-1.0857,-1.0891,-1.1046,-1.0709,-1.0784,-1.1369,-1.165,-1.1921,-1.2203,-1.2061,-1.179,-1.1379,-1.1423,-1.1109,-1.0498,-1.0636,-1.0636,-1.0558,-1.0527,-1.0467,-1.0399,-1.038,-1.037,0.0,0.0,0.0,0.0,0.0,0.0,0.0,0.0,-1.0303,-1.0244,-0.9913,-0.9435,-0.9004,-0.9004,-0.9111,-0.9361,-0.9883,-1.1105,-1.2292,-1.2404,-1.3142,-1.3903,-1.4231,-1.4533,-1.4873,-1.5339,-1.5691,-1.607,-1.6508,-1.681,-1.7399,-1.8652,-1.9378,-2.0166,-2.1186,-2.1611,-2.1807,-2.1807,-2.1807,-2.1807,-2.1807,-2.1807,-2.1611,-2.1155,-2.1538,-2.1538,-2.0928,-2.1197,-2.1373,-2.1373,-2.1373,-2.1373,-2.1373,-2.1342,-2.1414,-2.159,-2.1735,-2.1642,-2.1342,-2.1662,-2.1549,-2.1145,-2.1611,-2.1538,-2.1155,-2.1621,-2.1621,-2.1362,-2.1683,-2.1807,-2.1735,-2.1124,-2.07,-2.0302,0.0,0.0,0.0,0.0,0.0,0.0,0.0,0.0,0.0,0.0,0.0,0.0,0.0,0.0,0.0,0.0,0.0,0.0,-1.1005,-1.0631,-1.0493,-1.0692,-1.0319,-1.035,-1.0878,-1.0908,-1.1316,-1.2203,-1.2656,-1.222,-1.0937,-1.1784,-1.1736,-1.0918,-1.0918,-1.098,-1.1053,-1.0528,-1.0341,-1.038,-1.0332,-1.0303,-1.0303,0.0,0.0,0.0,0.0,0.0,0.0,0.0,-1.0303,-1.0303,-1.0303,-0.9697,-0.9004,-0.9014,-0.8767,-0.8799,-1.0147,-1.0984,-1.1788,-1.2899,-1.3756,-1.4403,-1.4727,-1.5269,-1.5842,-1.6309,-1.6413,-1.6529,-1.6934,-1.7017,-1.7606,-1.9492,-1.9793,-2.0269,-2.159,-2.1797,-2.1797,-2.1797,-2.1797,-2.1807,-2.1807,-2.1797,-2.1611,-2.1145,-2.1538,-2.1393,-2.0436,-2.0395,-2.0395,-2.0385,-2.0385,-2.0385,-2.0385,-2.1331,-2.1559,-2.1114,-2.158,-2.1797,-2.1807,-2.1797,-2.1549,-2.1145,-2.159,-2.1528,-2.1145,-2.1611,-2.1797,-2.1807,-2.1807,-2.1807,-2.1694,-2.0736,-2.0395,-2.0261,0.0,0.0,0.0,0.0,0.0,0.0,0.0,0.0,0.0,0.0,0.0,0.0,0.0,0.0,0.0,0.0,0.0,0.0,-1.0192,-1.0126,-1.018,-1.0261,-1.0244,-1.0322,-1.0459,-1.0762,-1.1191,-1.178,-1.1917,-1.177,-1.1389,-1.1318,-1.1318,-1.1389,-1.1441,-1.1274,-1.096,-1.0883,-1.0656,-1.0332,-1.0322,-1.0303,-1.0303,0.0,0.0,0.0,0.0,0.0,0.0,0.0,0.0,0.0,-1.0303,-0.9697,-0.9062,-0.9338,-0.9219,-0.922,-1.0273,-1.1237,-1.2095,-1.2812,-1.3652,-1.4511,-1.5271,-1.5312,-1.5421,-1.6247,-1.6632,-1.6955,-1.742,-1.7234,-1.7502,-1.9067,-1.9316,-1.9564,-2.0301,-2.1197,-2.1569,-2.087,-2.1414,-2.1807,-2.1807,-2.1507,-2.1269,-2.1124,-2.1238,-2.1062,-2.0416,-2.0695,-2.0726,-2.0395,-2.0385,-2.0385,-2.0385,-2.07,-2.0762,-2.0602,-2.1093,-2.1487,-2.1797,-2.1466,-2.1248,-2.1104,-2.0917,-2.0762,-2.0622,-2.1124,-2.1507,-2.1807,-2.1807,-2.1807,-2.1735,-2.1135,-2.0907,-2.0783,0.0,0.0,0.0,0.0,0.0,0.0,0.0,0.0,0.0,0.0,-1.1513,-1.1347,0.0,0.0,0.0,0.0,0.0,0.0,-0.9938,-0.998,-1.0088,-1.0186,-1.0264,-1.0303,-1.0303,-1.089,-1.1154,-1.1076,-1.1439,-1.1496,-1.133,-1.1396,-1.1572,-1.1848,-1.1881,-1.1636,-1.1183,-1.1069,-1.0823,-1.0537,-1.0537,-1.0537,-1.0537,0.0,0.0,0.0,0.0,0.0,0.0,0.0,0.0,0.0,-1.0303,-0.9814,-0.9307,-0.9597,-0.957,-0.9657,-1.069,-1.1511,-1.232,-1.3222,-1.4035,-1.478,-1.5515,-1.5898,-1.6291,-1.7055,-1.7253,-1.742,-1.7874,-1.7595,-1.773,-1.916,-1.9222,-1.9326,-1.9934,-2.0741,-2.1015,-2.0457,-2.0917,-2.1331,-2.1507,-2.1114,-2.0798,-2.0798,-2.0798,-2.0565,-1.9924,-2.0493,-2.0545,-1.9903,-2.0234,-2.022,-1.9893,-2.0245,-2.0385,-2.0395,-2.0897,-2.1259,-2.1528,-2.1435,-2.1186,-2.0814,-2.0358,-2.0369,-2.0684,-2.0963,-2.1383,-2.1807,-2.1807,-2.1807,-2.1745,-2.128,-2.1114,-2.099,0.0,0.0,0.0,0.0,0.0,0.0,0.0,0.0,0.0,0.0,-1.109,-1.0864,0.0,0.0,0.0,0.0,0.0,0.0,0.0,-1.0088,-1.0176,-1.0361,-1.0361,-1.0361,-1.0361,-1.1124,-1.1144,-1.0361,-1.1183,-1.1379,-1.0986,-1.1814,-1.2233,-1.2262,-1.2262,-1.2021,-1.1577,-1.1133,-1.0947,-1.0908,-1.0869,-1.0879,-1.0908,-1.0869,0.0,0.0,0.0,0.0,0.0,0.0,0.0,0.0,-1.0303,-0.998,-0.9648,-0.9837,-0.9862,-1.0085,-1.1277,-1.1849,-1.2476,-1.3938,-1.4718,-1.5245,-1.5701,-1.6779,-1.7802,-1.8185,-1.804,-1.7946,-1.8403,-1.8092,-1.8206,-1.9523,-1.9378,-1.9378,-2.0131,-2.0312,-2.0354,-2.0281,-2.0333,-2.055,-2.101,-2.0638,-2.0343,-2.0385,-2.0354,-2.0006,-1.9212,-1.9913,-1.9965,-1.9129,-1.9872,-1.9903,-1.9108,-1.9893,-2.0261,-2.0307,-2.0772,-2.099,-2.101,-2.1466,-2.1176,-2.0276,-1.9907,-2.0228,-2.099,-2.099,-2.1259,-2.1683,-2.1725,-2.1745,-2.1694,-2.1321,-2.1155,-2.099,0.0,0.0,0.0,0.0,0.0,0.0,0.0,0.0,0.0,0.0,0.0,0.0,0.0,0.0,0.0,0.0,0.0,0.0,0.0,-1.029,-1.0311,-1.0762,-1.0771,-1.0771,-1.0771,-1.0947,-1.0957,-1.0771,-1.132,-1.1557,-1.1447,-1.195,-1.2389,-1.2744,-1.2744,-1.2328,-1.1596,-1.1477,-1.1242,-1.0879,-1.0547,-1.0615,-1.0879,-1.0547,-1.0381,0.0,0.0,0.0,0.0,0.0,0.0,0.0,-1.0303,-0.998,-0.9747,-1.0459,-1.0338,-1.0318,-1.1924,-1.2298,-1.2596,-1.3962,-1.5204,-1.6198,-1.6624,-1.7234,-1.7626,-1.7358,-1.8102,-1.8839,-1.8942,-1.8579,-1.8454,-1.915,-1.917,-1.9046,-1.8847,-1.9748,-2.0162,-1.9448,-1.9996,-2.0426,-2.0529,-2.0162,-2.0048,-2.0364,-2.01,-1.9855,-1.9658,-1.9834,-1.9679,-1.9119,-1.9295,-1.9305,-1.9108,-1.9295,-1.9399,-1.9399,-1.9865,-2.0083,-2.0104,-2.0514,-2.0224,-1.9388,-1.9295,-1.9575,-2.0083,-2.0083,-2.0317,-2.0762,-2.1124,-2.1269,-2.13,-2.1559,-2.1424,-2.1031,0.0,0.0,0.0,0.0,0.0,0.0,0.0,0.0,0.0,0.0,0.0,0.0,0.0,0.0,0.0,0.0,0.0,0.0,0.0,0.0,-1.0881,-1.1211,-1.1426,-1.1436,-1.1252,-1.1242,-1.1242,-1.1242,-1.1261,-1.1486,-1.1885,-1.2096,-1.2461,-1.2905,-1.2905,-1.2416,-1.1606,-1.1606,-1.133,-1.0868,-1.0674,-1.0713,-1.0889,-1.0664,-1.0479,-1.0303,-1.0303,0.0,0.0,0.0,0.0,0.0,0.0,0.0,-1.0029,-1.0508,-1.0548,-1.0705,-1.2005,-1.2397,-1.2804,-1.4268,-1.5515,-1.6436,-1.6674,-1.7048,-1.7306,-1.7058,-1.7947,-1.8839,-1.9056,-1.8725,-1.8559,-1.9025,-1.8911,-1.8766,-1.8745,-1.9323,-1.9603,-1.916,-1.9489,-1.9862,-2.0089,-1.973,-1.9647,-2.0069,-1.972,-1.9461,-1.9461,-1.9679,-1.9585,-1.9119,-1.9316,-1.9326,-1.9108,-1.9108,-1.9212,-1.944,-1.9679,-1.9793,-1.9803,-2.0006,-1.9841,-1.9419,-1.9202,-1.9367,-1.9793,-1.9793,-2.0052,-2.0416,-2.0653,-2.0746,-2.0777,-2.1052,-2.0953,-2.0684,0.0,0.0,0.0,0.0,0.0,0.0,0.0,0.0,0.0,0.0,0.0,0.0,0.0,0.0,0.0,0.0,0.0,0.0,0.0,0.0,0.0,-1.1702,-1.2031,-1.2028,-1.1702,-1.1702,-1.1702,-1.1702,-1.1261,-1.1475,-1.232,-1.2242,-1.2461,-1.2905,-1.2905,-1.2416,-1.1606,-1.1606,-1.133,-1.0878,-1.083,-1.085,-1.0878,-1.083,-1.0586,-1.0303,-1.0303,-1.0303,-1.0303,0.0,0.0,0.0,0.0,0.0,-1.0312,-1.0459,-1.0636,-1.101,-1.1903,-1.2493,-1.3196,-1.4635,-1.5628,-1.6309,-1.6392,-1.6663,-1.6924,-1.6996,-1.7668,-1.8414,-1.8808,-1.8526,-1.8392,-1.8808,-1.8516,-1.8423,-1.8922,-1.8922,-1.8932,-1.9088,-1.9036,-1.917,-1.9627,-1.9326,-1.9264,-1.9647,-1.9316,-1.9108,-1.9108,-1.9471,-1.9502,-1.9119,-1.9471,-1.9492,-1.9108,-1.9108,-1.9295,-1.9679,-1.9679,-1.9679,-1.9679,-1.9679,-1.9679,-1.9658,-1.9264,-1.9326,-1.9679,-1.9679,-1.9938,-2.0317,-2.0354,-2.0436,-2.0519,-2.0591,-2.0581,-2.0457,0.0,0.0,0.0,0.0,0.0,0.0,0.0,0.0,0.0,0.0,-1.0245,-1.0208,0.0,0.0,0.0,0.0,0.0,0.0,0.0,0.0,0.0,-1.2096,-1.2174,-1.2174,-1.2116,-1.2116,-1.2116,-1.2116,-1.1712,-1.1946,-1.2807,-1.2389,-1.2461,-1.2905,-1.2905,-1.2416,-1.1606,-1.1606,-1.133,-1.0879,-1.0508,-1.0586,-1.0869,-1.0508,-1.0352,-1.0303,-1.0303,-1.0303,-1.0303,-1.0303,-1.0303,0.0,0.0,0.0,-1.0371,-1.0733,-1.0656,-1.0745,-1.2009,-1.3101,-1.4088,-1.4826,-1.539,-1.5915,-1.6319,-1.6425,-1.6581,-1.6934,-1.743,-1.7802,-1.7874,-1.7833,-1.7812,-1.7874,-1.7833,-1.7968,-1.8445,-1.8154,-1.8195,-1.9005,-1.8745,-1.8683,-1.915,-1.9139,-1.9129,-1.9191,-1.9139,-1.9108,-1.9108,-1.916,-1.917,-1.9108,-1.917,-1.917,-1.9108,-1.9108,-1.9139,-1.9191,-1.9191,-1.9191,-1.9191,-1.9191,-1.9191,-1.9191,-1.9129,-1.9139,-1.9191,-1.9191,-1.9461,-1.9917,-2.0276,-2.0633,-2.1073,-2.1476,-2.1373,-2.101,0.0,0.0,0.0,0.0,0.0,0.0,0.0,0.0,0.0,0.0,0.0,-0.996,0.0,0.0,0.0,-0.9733,0.0,0.0,0.0,0.0,0.0,-1.2194,-1.2437,-1.2598,-1.2598,-1.233,-1.233,-1.2598,-1.165,-1.179,-1.2886,-1.2201,-1.2217,-1.2905,-1.2905,-1.2416,-1.1606,-1.1606,-1.1193,-1.0547,-1.0371,-1.0597,-1.0962,-1.0508,-1.0518,-1.0705,-1.0459,-1.0332,-1.0303,-1.0303,-1.0459,-1.0596,-1.0371,0.0,0.0,0.0,-1.0989,-1.1327,-1.252,-1.3472,-1.4169,-1.4537,-1.5152,-1.5742,-1.5977,-1.6216,-1.6464,-1.6632,-1.6829,-1.7129,-1.7606,-1.7492,-1.7399,-1.7657,-1.7482,-1.7471,-1.7957,-1.7823,-1.7936,-1.8642,-1.8538,-1.859,-1.9056,-1.9108,-1.9108,-1.9108,-1.9108,-1.9108,-1.9108,-1.9108,-1.9108,-1.9108,-1.9108,-1.9108,-1.9108,-1.9108,-1.9108,-1.9108,-1.9108,-1.9108,-1.9108,-1.9108,-1.9108,-1.9108,-1.9108,-1.9108,-1.9108,-1.9108,-1.9222,-1.945,-1.9872,-2.0172,-2.041,-2.0866,-2.086,-2.0731,0.0,0.0,0.0,0.0,0.0,0.0,0.0,0.0,0.0,0.0,0.0,0.0,0.0,0.0,0.0,0.0,-1.0062,0.0,0.0,0.0,0.0,-1.2194,-1.2549,-1.2773,-1.2905,-1.2428,-1.2418,-1.2905,-1.1562,-1.1592,-1.2886,-1.2018,-1.2077,-1.2905,-1.2905,-1.2475,-1.1741,-1.1633,-1.1154,-1.0459,-1.0479,-1.0735,-1.1083,-1.0885,-1.1024,-1.1254,-1.0765,-1.0627,-1.0636,-1.04,-1.0566,-1.084,-1.043,-1.0518,0.0,0.0,0.0,-1.1648,-1.2712,-1.3323,-1.3758,-1.4142,-1.4769,-1.5364,-1.5639,-1.596,-1.6267,-1.6381,-1.6413,-1.6591,-1.7234,-1.7079,-1.6955,-1.7306,-1.7068,-1.7006,-1.7461,-1.743,-1.7564,-1.8143,-1.8112,-1.8268,-1.887,-1.8922,-1.8973,-1.9098,-1.9108,-1.9108,-1.9108,-1.9108,-1.9108,-1.9108,-1.9108,-1.9108,-1.9108,-1.9108,-1.9108,-1.9108,-1.9108,-1.917,-1.9285,-1.9285,-1.9285,-1.9274,-1.915,-1.9108,-1.9108,-1.9108,-1.917,-1.9326,-1.9782,-2.0031,-2.0197,-2.0607,-2.0772,-2.0772,0.0,0.0,0.0,0.0,0.0,0.0,0.0,0.0,0.0,0.0,0.0,0.0,-1.0263,-0.9923,-0.9733,-0.9783,-0.9822,-1.0128,-1.0793,-1.0914,0.0,-1.2174,-1.2233,0.0,-1.2895,-1.2428,-1.2418,-1.2905,-1.1562,-1.1592,-1.2886,-1.2018,-1.2077,-1.2905,-1.2905,-1.2627,-1.2145,-1.176,-1.132,-1.0879,-1.1002,-1.1083,-1.1163,-1.172,-1.1935,-1.1873,-1.1284,-1.1362,-1.157,-1.0616,-1.0566,-1.084,-1.043,-1.0322,-1.0332,0.0,0.0,0.0,-1.2173,-1.2454,-1.2742,-1.3829,-1.4159,-1.4451,-1.5467,-1.5711,-1.5846,-1.6319,-1.6413,-1.6423,-1.6475,-1.6454,-1.6454,-1.6446,-1.6454,-1.657,-1.6986,-1.6715,-1.6777,-1.7637,-1.7347,-1.742,-1.8362,-1.8445,-1.8631,-1.9077,-1.9108,-1.9108,-1.9108,-1.9108,-1.9108,-1.9108,-1.9108,-1.9108,-1.9108,-1.9108,-1.9108,-1.9108,-1.9108,-1.9336,-1.9761,-1.9761,-1.9761,-1.973,-1.9295,-1.9108,-1.9108,-1.9108,-1.9357,-1.9803,-2.0213,-2.0659,-2.1104,-2.1559,-2.1735,-2.1735,0.0,0.0,0.0,0.0,0.0,0.0,0.0,0.0,0.0,0.0,0.0,0.0,0.0,-0.9856,-0.9812,-0.9921,-0.9971,-1.0136,-1.0468,-1.0741,0.0,-1.1346,-1.1901,-1.2281,-1.2461,-1.2588,-1.2588,-1.2461,-1.1969,-1.1855,-1.2054,-1.2002,-1.2158,-1.2447,-1.2778,-1.2637,-1.2194,-1.2061,-1.1738,-1.1371,-1.1499,-1.1754,-1.2059,-1.2069,-1.2245,-1.2438,-1.1937,-1.1779,-1.173,-1.138,-1.1307,-1.1271,-1.082,-1.0684,-1.0684,-1.0684,-1.117,-1.178,-1.1965,-1.2414,-1.2932,-1.3189,-1.3699,-1.421,-1.4692,-1.5028,-1.5297,-1.5463,-1.5494,-1.5577,-1.5915,-1.6205,-1.6413,-1.6413,-1.6413,-1.6464,-1.6591,-1.6477,-1.6601,-1.7182,-1.711,-1.7368,-1.832,-1.8414,-1.86,-1.9067,-1.9108,-1.9108,-1.9108,-1.9108,-1.9108,-1.9108,-1.9108,-1.9108,-1.9108,-1.9108,-1.9108,-1.9108,-1.9409,-1.9637,-1.9803,-2.0058,-2.0027,-1.9793,-1.9616,-1.9378,-1.9108,-1.9108,-1.9202,-1.9419,-2.0141,-2.0488,-2.0731,-2.1186,-2.1549,-2.1766,0.0,0.0,0.0,0.0,0.0,0.0,0.0,0.0,-0.9703,-0.9703,0.0,0.0,0.0,0.0,-0.9862,-1.001,-1.0108,-1.0205,-1.0303,-1.0547,-1.0762,-1.0878,-1.1453,-1.1901,-1.2203,-1.2227,-1.2227,-1.2203,-1.1765,-1.1572,-1.1606,-1.1709,-1.1921,-1.2213,-1.2373,-1.2441,-1.2408,-1.2272,-1.2061,-1.1841,-1.2168,-1.2511,-1.2842,-1.2958,-1.3222,-1.3474,-1.2897,-1.2744,-1.2735,-1.2248,-1.2121,-1.2051,-1.1425,-1.1067,-1.0908,-1.0908,-1.1199,-1.1594,-1.1703,-1.2042,-1.2411,-1.262,-1.3101,-1.3642,-1.4132,-1.4465,-1.48,-1.5163,-1.5225,-1.5328,-1.5628,-1.5939,-1.6226,-1.6381,-1.6413,-1.6413,-1.6413,-1.6413,-1.6487,-1.6788,-1.6789,-1.7171,-1.8081,-1.8019,-1.8247,-1.9046,-1.8953,-1.8942,-1.9098,-1.9108,-1.9108,-1.9108,-1.9108,-1.9108,-1.9108,-1.9108,-1.9108,-1.9108,-1.9575,-1.9876,-2.0031,-2.0452,-2.041,-1.9986,-1.9986,-1.9668,-1.9108,-1.9108,-1.9191,-1.9409,-2.0131,-2.0488,-2.0674,-2.1176,-2.1538,-2.1766,0.0,0.0,0.0,0.0,0.0,0.0,0.0,0.0,-0.9703,-0.9703,0.0,0.0,0.0,0.0,0.0,-1.0088,-1.0225,-1.0303,-1.0303,-1.0303,-1.0459,-1.0879,0.0,0.0,-1.2164,-1.1355,-1.1346,-1.2184,-1.0957,-1.0762,-1.1557,-1.1113,-1.1355,-1.2155,-1.177,-1.2064,-1.2837,-1.2379,-1.2213,-1.2285,-1.3016,-1.333,-1.3431,-1.444,-1.4892,-1.4909,-1.4201,-1.4322,-1.4573,-1.3138,-1.2953,-1.3131,-1.2123,-1.1396,-1.0928,-1.0928,-1.0654,-1.0557,0.0,0.0,0.0,-1.2131,-1.2394,-1.2692,-1.3809,-1.4063,-1.4379,-1.5436,-1.5649,-1.5659,-1.568,-1.5691,-1.5835,-1.633,-1.6392,-1.6392,-1.6413,-1.6413,-1.6413,-1.6413,-1.6413,-1.6736,-1.7616,-1.7296,-1.7585,-1.9005,-1.8683,-1.8631,-1.9077,-1.9108,-1.9108,-1.9108,-1.9108,-1.9108,-1.9108,-1.9108,-1.9108,-1.9129,-1.9596,-2.0017,-2.0426,-2.0928,-2.085,-2.0405,-2.0405,-1.9934,-1.9139,-1.9129,-1.9388,-1.9844,-2.0265,-2.0674,-2.1155,-2.1621,-2.1797,-2.1807,0.0,0.0,0.0,0.0,0.0,-0.9831,-0.9721,-0.9703,-0.9703,0.0,0.0,0.0,-0.9911,-1.0059,-1.0186,-1.0244,-1.0283,-1.0303,-1.0303,-1.0303,-1.0352,-1.0449,-1.0752,-1.1172,-1.1751,-1.1816,-1.1826,-1.177,-1.1709,-1.1328,-1.0665,-1.1164,-1.1338,-1.1258,-1.1496,-1.1743,-1.1966,-1.2116,-1.2389,-1.2758,-1.3466,-1.3736,-1.3821,-1.464,-1.4971,-1.4976,-1.4774,-1.4753,-1.4742,-1.4338,-1.3907,-1.3397,-1.2407,-1.1783,-1.1408,-1.1408,-1.177,-1.2093,-1.1714,0.0,0.0,0.0,0.0,0.0,-1.3049,-1.3369,-1.3791,-1.4537,-1.4687,-1.4894,-1.5566,-1.5691,-1.5835,-1.633,-1.6122,-1.6029,-1.6361,-1.6413,-1.6413,-1.6413,-1.6413,-1.6736,-1.7616,-1.7585,-1.7968,-1.9025,-1.8984,-1.8963,-1.9098,-1.9108,-1.9108,-1.9108,-1.9108,-1.9108,-1.9108,-1.9108,-1.9274,-1.9606,-2.0027,-2.0483,-2.0901,-2.1404,-2.1362,-2.0928,-2.0928,-2.0586,-2.0027,-1.9741,-1.9679,-1.9876,-2.0617,-2.0793,-2.0633,-2.1135,-2.1518,-2.1756,0.0,0.0,0.0,0.0,-0.9841,-0.9951,-0.9951,-0.9951,-1.0006,0.0,0.0,0.0,-1.0277,-1.0591,-1.0702,-1.0557,-1.0547,-1.0469,-1.0312,-1.0303,-1.0303,-1.0303,-1.0518,-1.0958,-1.1596,-1.1641,-1.1641,-1.1606,-1.1641,-1.1201,-1.0312,-1.0811,-1.1007,-1.0897,-1.1017,-1.1263,-1.1626,-1.1836,-1.2351,-1.3042,-1.3872,-1.4336,-1.4627,-1.5219,-1.5512,-1.5566,-1.5485,-1.5457,-1.5427,-1.5242,-1.4688,-1.3905,-1.2956,-1.2525,-1.2328,-1.1966,-1.2357,-1.2788,-1.2269,-1.2514,-1.2851,-1.2578,0.0,0.0,-1.2902,-1.3142,-1.3494,-1.4161,-1.4459,-1.4821,-1.5546,-1.5691,-1.5773,-1.607,-1.5894,-1.5846,-1.634,-1.6247,-1.6195,-1.6381,-1.6413,-1.6663,-1.7347,-1.742,-1.7812,-1.8745,-1.8818,-1.8901,-1.9088,-1.9108,-1.9108,-1.9108,-1.9108,-1.9108,-1.9108,-1.9295,-1.9523,-1.9803,-2.041,-2.0855,-2.1124,-2.1393,-2.1373,-2.1104,-2.0907,-2.0746,-2.0653,-2.0431,-2.0327,-2.0379,-2.0907,-2.1036,-2.1031,-2.13,-2.158,-2.1766,0.0,0.0,-0.9721,-0.9758,-1.0052,-1.033,-1.0346,-1.0376,-1.0487,0.0,-1.0236,-1.0072,-1.0735,-1.1093,-1.1153,-1.0849,-1.084,-1.0684,-1.0322,-1.0303,-1.0303,-1.0303,-1.0303,-1.0674,-1.1496,-1.1113,-1.1094,-1.1506,-1.1094,-1.0693,-1.0303,-1.0303,-1.0478,-1.082,-1.0469,-1.0723,-1.1469,-1.1557,-1.2197,-1.3212,-1.4204,-1.4962,-1.5567,-1.5979,-1.6239,-1.6374,-1.621,-1.6249,-1.634,-1.5898,-1.528,-1.4548,-1.3736,-1.3536,-1.3428,-1.2642,-1.2754,-1.3111,-1.3062,-1.3042,-1.3096,-1.3428,-1.3193,0.0,-1.3197,-1.327,-1.3464,-1.4245,-1.4738,-1.5161,-1.5653,-1.5735,-1.5735,-1.5735,-1.568,-1.5784,-1.633,-1.6022,-1.5918,-1.6361,-1.6413,-1.656,-1.6965,-1.7017,-1.7378,-1.8341,-1.8465,-1.8673,-1.9077,-1.9108,-1.9108,-1.9108,-1.9108,-1.9108,-1.9108,-1.9564,-1.9824,-1.9886,-2.07,-2.1145,-2.1186,-2.1135,-2.1145,-2.1166,-2.0664,-2.0726,-2.1186,-2.1186,-2.1155,-2.1124,-2.1176,-2.1414,-2.1725,-2.1725,-2.1725,-2.1725,0.0,-0.9758,-0.9804,-1.0125,-1.0257,-1.0422,-1.0735,-1.0791,-1.0698,-1.0459,-1.0151,-1.0181,-1.0735,-1.0633,-1.0498,-1.041,-1.042,-1.0391,-1.0312,-1.0303,-1.0303,-1.0303,-1.0303,-1.0537,-1.1025,-1.0947,-1.0947,-1.1035,-1.0947,-1.0693,-1.0303,-1.0303,-1.0352,-1.04,-1.0342,-1.0391,-1.0616,-1.1418,-1.2333,-1.3343,-1.4255,-1.4962,-1.5557,-1.6141,-1.6374,-1.6374,-1.6374,-1.6374,-1.6363,-1.6107,-1.5713,-1.5233,-1.4827,-1.4453,-1.4162,-1.3844,-1.4072,-1.4336,-1.3958,-1.386,-1.3802,-1.3574,-1.3193,0.0,-1.3486,-1.359,-1.3885,-1.4844,-1.5113,-1.5305,-1.576,-1.5944,-1.602,-1.602,-1.5516,-1.5421,-1.6288,-1.633,-1.6309,-1.6392,-1.6413,-1.656,-1.6965,-1.7017,-1.7378,-1.8341,-1.8756,-1.9005,-1.9098,-1.9108,-1.9108,-1.9108,-1.9108,-1.9108,-1.9108,-1.9564,-1.9979,-2.0307,-2.0855,-2.1311,-2.1662,-2.128,-2.1321,-2.1642,-2.1186,-2.1238,-2.1673,-2.1673,-2.1455,-2.1155,-2.1528,-2.1497,-2.1248,-2.1248,-2.1248,-2.1197,-0.9703,-0.9703,-0.9822,-1.0226,-1.0478,-1.0723,-1.1136,-1.1039,-1.0901,-1.0932,-1.0806,-1.073,-1.0835,-1.0918,-1.0851,-1.0615,-1.0596,-1.0508,-1.0312,-1.0303,-1.0303,-1.0303,-1.0303,-1.0478,-1.0898,-1.0908,-1.0908,-1.0908,-1.0908,-1.0693,-1.0303,-1.0303,-1.0322,-1.0351,-1.0351,-1.0469,-1.0755,-1.1707,-1.2696,-1.3705,-1.4424,-1.5212,-1.5969,-1.6291,-1.6413,-1.6413,-1.6413,-1.6413,-1.6374,-1.6278,-1.601,-1.5654,-1.5338,-1.5157,-1.4978,-1.4641,-1.4887,-1.5182,-1.4834,-1.4747,-1.4689,-1.4512,-1.4141,0.0,0.0,-1.4011,-1.4156,-1.4737,-1.4881,-1.5109,-1.5793,-1.578,-1.5802,-1.6054,-1.5792,-1.5752,-1.6312,-1.6008,-1.5894,-1.635,-1.6413,-1.656,-1.6965,-1.7223,-1.773,-1.8683,-1.8973,-1.9108,-1.9108,-1.9108,-1.9108,-1.9108,-1.9108,-1.9108,-1.9108,-1.9748,-2.0203,-2.0395,-2.1124,-2.158,-2.1787,-2.1331,-2.1373,-2.1776,-2.1311,-2.1383,-2.1807,-2.1807,-2.1662,-2.1487,-2.1714,-2.1662,-2.1455,-2.1455,-2.1455,-2.1424,-0.9683,-0.9703,-0.985,-1.0327,-1.0689,-1.1048,-1.1448,-1.1306,-1.1301,-1.1621,-1.1376,-1.1082,-1.0917,-1.1173,-1.1193,-1.082,-1.0791,-1.0645,-1.0322,-1.0303,-1.0303,-1.0303,-1.0303,-1.0439,-1.0781,-1.0791,-1.0791,-1.0791,-1.0791,-1.0615,-1.0303,-1.0303,-1.0381,-1.0528,-1.0528,-1.0855,-1.1453,-1.2215,-1.318,-1.4201,-1.47,-1.5509,-1.6413,-1.6374,-1.6374,-1.6413,-1.6413,-1.6413,-1.6423,-1.6477,-1.6273,-1.5921,-1.5779,-1.5739,-1.5671,-1.5246,-1.5395,-1.5672,-1.5449,-1.541,-1.541,-1.541,-1.5098,-1.4745,0.0,0.0,0.0,-1.4646,-1.471,-1.4984,-1.5658,-1.5584,-1.5497,-1.5827,-1.5924,-1.602,-1.6211,-1.5597,-1.5442,-1.6309,-1.6413,-1.656,-1.6965,-1.7502,-1.8123,-1.8764,-1.9005,-1.9108,-1.9108,-1.9108,-1.9108,-1.9108,-1.9108,-1.9108,-1.9108,-1.9882,-2.0302,-2.0395,-2.1269,-2.1714,-2.1787,-2.1331,-2.1321,-2.1652,-2.128,-2.1331,-2.1683,-2.1766,-2.1807,-2.1807,-2.1807,-2.1807,-2.1797,-2.1704,-2.1673,-2.1662,-0.9623,-0.9703,-0.9942,-1.0708,-1.0873,-1.1048,-1.1448,-1.1866,-1.2095,-1.1963,-1.096,-1.0407,-1.0858,-1.0625,-1.043,-1.0371,-1.0371,-1.0352,-1.0303,-1.0303,-1.0303,-1.0303,-1.0303,-1.0322,-1.0371,-1.0371,-1.0371,-1.0371,-1.0371,-1.0352,-1.0303,-1.0303,-1.0558,-1.1024,-1.1024,-1.1544,-1.2453,-1.2913,-1.3745,-1.4736,-1.5148,-1.5759,-1.6374,-1.621,-1.6239,-1.6413,-1.6413,-1.6413,-1.6436,-1.68,-1.6549,-1.6146,-1.6532,-1.6303,-1.5846,-1.5671,-1.5661,-1.5672,-1.5449,-1.541,-1.541,-1.541,-1.5098,-1.4873,-1.5195,0.0,-1.4842,-1.5214,0.0,-1.5322,-1.5449,0.0,0.0,-1.5165,-1.5318,-1.5512,-1.5587,-1.5615,-1.5804,-1.635,-1.6413,-1.656,-1.6965,-1.7802,-1.8185,-1.7874,-1.862,-1.9108,-1.9108,-1.9108,-1.9108,-1.9108,-1.9108,-1.9108,-1.9108,-1.9616,-2.0038,-2.0395,-2.0948,-2.1414,-2.1787,-2.1331,-2.1145,-2.1186,-2.1135,-2.1145,-2.1228,-2.1631,-2.1807,-2.1807,-2.1807,-2.1807,-2.1756,-2.1342,-2.1186,-2.1135,-0.9985,-1.0043,-1.0226,-1.0809,-1.1081,-1.1384,-1.1788,-1.1738,-1.1446,-1.0915,-1.0484,-1.0312,-1.0527,-1.041,-1.04,-1.0625,-1.042,-1.04,-1.0625,-1.044,-1.0303,-1.0303,-1.0303,-1.0303,-1.0303,-1.0303,-1.0303,-1.0303,-1.0303,-1.0303,-1.0312,-1.0537,-1.0803,-1.1123,-1.1715,-1.233,-1.2987,-1.38,-1.4557,-1.5243,-1.5553,-1.5971,-1.6374,-1.6306,-1.6345,-1.6444,-1.6663,-1.6738,-1.6839,-1.7265,-1.7194,-1.696,-1.7256,-1.6919,-1.6404,-1.6246,-1.6017,-1.5769,-1.5478,-1.5478,-1.5546,-1.5439,-1.5351,-1.5358,-1.54,-1.5273,-1.5205,-1.5381,0.0,0.0,0.0,0.0,0.0,0.0,-1.5509,-1.564,-1.581,-1.5895,-1.6061,-1.6353,-1.6413,-1.656,-1.6965,-1.7595,-1.803,-1.8102,-1.8454,-1.8818,-1.9088,-1.9108,-1.9108,-1.9108,-1.9108,-1.9108,-1.9108,-1.9564,-1.9986,-2.0395,-2.0897,-2.1217,-2.1414,-2.1476,-2.1373,-2.1124,-2.1393,-2.1362,-2.1155,-2.1621,-2.1652,-2.1404,-2.1404,-2.1569,-2.1745,-2.128,-2.1114,-2.1041,-1.0312,-1.0443,-1.0576,-1.098,-1.121,-1.1453,-1.1787,-1.1284,-1.0719,-1.0288,-1.0283,-1.0303,-1.0303,-1.0508,-1.0733,-1.0889,-1.085,-1.0898,-1.1074,-1.0821,-1.0675,-1.0715,-1.0557,-1.0528,-1.0715,-1.044,-1.0361,-1.0449,-1.0361,-1.0361,-1.0479,-1.0762,-1.1098,-1.149,-1.2346,-1.3067,-1.368,-1.4546,-1.5226,-1.5769,-1.6058,-1.6399,-1.6736,-1.6612,-1.6643,-1.6788,-1.7089,-1.7203,-1.7265,-1.7719,-1.7739,-1.7564,-1.7812,-1.739,-1.6787,-1.6668,-1.6324,-1.5875,-1.5565,-1.5575,-1.5643,-1.5449,-1.5507,-1.5575,-1.5439,-1.541,-1.541,-1.541,-1.5166,0.0,0.0,0.0,-1.5076,-1.5407,0.0,-1.5748,-1.5865,-1.6004,-1.6181,-1.6374,-1.6487,-1.6643,-1.681,-1.7358,-1.7781,-1.7999,-1.8237,-1.8559,-1.8901,-1.9036,-1.9108,-1.9108,-1.9108,-1.9108,-1.9108,-1.944,-1.9834,-2.0245,-2.0586,-2.0876,-2.1124,-2.1331,-2.1238,-2.0948,-2.128,-2.1238,-2.0922,-2.1424,-2.1414,-2.1114,-2.1114,-2.1238,-2.1404,-2.1186,-2.1031,-2.0917,-1.0417,-1.0798,-1.1021,-1.1421,-1.1164,-1.0986,-1.1195,-1.0548,-1.023,-1.0799,-1.0537,-1.0303,-1.0303,-1.1036,-1.1379,-1.0947,-1.1658,-1.1992,-1.1606,-1.1567,-1.1632,-1.175,-1.1197,-1.1147,-1.173,-1.0794,-1.0478,-1.0889,-1.0478,-1.0488,-1.0868,-1.0878,-1.1422,-1.2384,-1.2871,-1.3706,-1.4767,-1.5046,-1.565,-1.6394,-1.6663,-1.7133,-1.7606,-1.7161,-1.7265,-1.7657,-1.7678,-1.7678,-1.775,-1.8216,-1.7976,-1.7605,-1.8194,-1.7657,-1.6797,-1.6787,-1.6471,-1.6028,-1.5759,-1.5701,-1.5643,-1.5449,-1.541,-1.541,-1.541,-1.541,-1.541,-1.541,-1.54,-1.5391,-1.541,-1.54,-1.5264,-1.4901,-1.5309,0.0,0.0,-1.5782,-1.6181,-1.6374,-1.6727,-1.6831,-1.6475,-1.7212,-1.7523,-1.7089,-1.7895,-1.8414,-1.8434,-1.8859,-1.9108,-1.9108,-1.9108,-1.9108,-1.9108,-1.9119,-1.9357,-1.9824,-1.9834,-2.0265,-2.1104,-2.0633,-2.0426,-2.0416,-2.0426,-2.0426,-2.0447,-2.0948,-2.1124,-2.1114,-2.1114,-2.0819,-2.0488,-2.0959,-2.0798,-2.054,-1.0847,-1.0931,-1.0835,-1.1063,-1.121,-1.1154,-1.073,-1.0825,-1.101,-1.1211,-1.1431,-1.168,-1.1995,-1.2279,-1.2514,-1.2617,-1.2646,-1.2621,-1.2465,-1.2168,-1.1897,-1.1681,-1.1731,-1.1741,-1.1672,-1.1594,-1.1494,-1.1359,-1.1222,-1.1222,-1.1369,-1.1641,-1.1943,-1.2312,-1.3456,-1.4226,-1.4712,-1.5462,-1.602,-1.6415,-1.6801,-1.7225,-1.7688,-1.7523,-1.7564,-1.774,-1.8061,-1.8164,-1.8226,-1.8714,-1.8733,-1.8575,-1.8785,-1.8194,-1.7369,-1.7308,-1.692,-1.6443,-1.5955,-1.6125,-1.6295,-1.5742,-1.5672,-1.5662,-1.5449,-1.541,-1.541,-1.541,-1.541,-1.541,-1.541,-1.541,-1.5371,-1.5225,-1.5625,-1.5881,0.0,-1.5813,-1.6131,-1.6601,-1.6864,-1.6841,-1.6454,-1.6922,-1.7182,-1.7027,-1.7575,-1.8071,-1.8361,-1.8849,-1.9108,-1.9108,-1.9108,-1.9108,-1.9108,-1.9108,-1.9336,-1.9803,-2.0058,-2.0203,-2.0234,-2.0679,-2.0555,-2.0006,-2.0296,-2.0385,-2.0395,-2.056,-2.0659,-2.0627,-2.0327,-2.0155,-2.0006,-2.0197,-2.0307,-2.0478,-1.0523,-1.0481,-1.0473,-1.1012,-1.1104,-1.0977,-1.0608,-1.1042,-1.1419,-1.1465,-1.2044,-1.2568,-1.2876,-1.3154,-1.3379,-1.3496,-1.3545,-1.3486,-1.334,-1.2895,-1.2582,-1.2358,-1.2453,-1.2463,-1.2348,-1.2296,-1.2204,-1.2054,-1.1763,-1.1763,-1.2054,-1.2168,-1.2369,-1.2701,-1.3814,-1.4417,-1.4669,-1.5624,-1.6255,-1.6674,-1.7274,-1.7761,-1.8206,-1.8206,-1.8206,-1.8247,-1.8526,-1.8652,-1.8704,-1.9005,-1.9108,-1.9108,-1.9108,-1.8557,-1.7905,-1.7647,-1.7359,-1.7001,-1.6374,-1.6646,0.0,-1.6417,-1.6317,-1.6267,-1.5831,-1.5704,-1.5694,-1.5546,-1.5449,-1.5449,-1.5575,-1.5635,-1.5674,0.0,0.0,0.0,0.0,-1.6028,-1.6275,-1.6767,-1.6887,-1.6844,-1.6643,-1.6996,-1.712,-1.68,-1.7492,-1.8019,-1.8143,-1.8733,-1.9108,-1.9108,-1.9108,-1.9108,-1.9108,-1.9108,-1.9253,-1.9554,-1.9975,-2.0038,-1.9813,-2.0369,-2.0317,-1.9803,-1.9893,-2.0038,-2.0193,-2.0193,-2.0193,-2.0162,-1.9907,-1.9793,-1.9793,-1.9793,-2.0038,-2.0405,-0.9484,-0.9599,-1.0,-1.1235,-1.0805,-1.0421,-1.0719,-1.1147,-1.147,-1.1672,-1.2445,-1.3013,-1.3023,-1.3721,-1.4007,-1.3633,-1.4346,-1.4629,-1.4172,-1.3743,-1.3596,-1.3724,-1.3357,-1.3338,-1.3714,-1.2936,-1.2661,-1.2935,-1.2093,-1.2113,-1.2925,-1.2437,-1.2681,-1.3525,-1.3919,-1.4291,-1.4669,-1.5532,-1.6341,-1.7089,-1.7999,-1.8652,-1.9077,-1.9098,-1.9108,-1.9108,-1.9108,-1.9108,-1.9108,-1.9108,-1.9108,-1.9108,-1.9108,-1.8787,-1.8299,-1.7854,-1.773,-1.7595,-1.7011,-1.7195,-1.7502,-1.7346,-1.7315,0.0,-1.6496,-1.6346,-1.6227,-1.585,-1.5615,-1.5576,-1.5916,-1.6059,0.0,0.0,0.0,0.0,0.0,-1.6457,-1.6598,-1.6829,-1.6838,-1.6878,-1.6987,-1.743,-1.7327,-1.6475,-1.7636,-1.8164,0.0,-1.8589,-1.9108,-1.9108,-1.9108,-1.9108,-1.9108,-1.9108,-1.9108,-1.9108,-1.9575,-1.9782,-1.9761,-1.9782,-1.9782,-1.9741,-1.9295,-1.9367,-1.9793,-1.9772,-1.9772,-1.9793,-1.9772,-1.9761,-1.9761,-1.9813,-2.0058,-2.0369,-0.9484,-0.967,-0.9911,-1.0438,-0.9763,-0.9437,-1.0351,-1.1108,-1.1902,-1.2871,-1.376,-1.4441,-1.4727,-1.4923,-1.5011,-1.4932,-1.5127,-1.5068,-1.4648,-1.4192,-1.3948,-1.4001,-1.3893,-1.3972,-1.4205,-1.4188,-1.3946,-1.3501,-1.3175,-1.3125,-1.334,-1.291,-1.2998,-1.3525,-1.3919,-1.4291,-1.4669,-1.5532,-1.6341,-1.7058,-1.7637,-1.8164,-1.8631,-1.8973,-1.9108,-1.9108,-1.9108,-1.9108,-1.9108,-1.9108,-1.9108,-1.9108,-1.9108,-1.8787,-1.8393,-1.8247,-1.8216,-1.8123,-1.7616,-1.7812,-1.8038,-1.7584,-1.744,-1.7378,0.0,0.0,0.0,0.0,0.0,0.0,0.0,-1.6547,-1.6355,0.0,0.0,0.0,-1.7086,-1.6862,-1.69,-1.7547,-1.7314,-1.7083,-1.7018,-1.743,-1.7327,-1.6475,-1.7326,-1.7823,-1.7709,-1.8589,-1.9108,-1.9108,-1.9108,-1.9108,-1.9108,-1.9108,-1.9108,-1.9108,-1.9575,-1.9616,-1.9295,-1.9637,-1.9606,-1.9274,-1.915,-1.9367,-1.9772,-1.9419,-1.9492,-1.9761,-1.9419,-1.9285,-1.9367,-2.0006,-2.0327,-2.041,-0.9185,-0.9264,-0.9355,-0.9615,-0.9455,-0.9687,-1.0953,-1.1723,-1.2478,-1.3393,-1.4248,-1.4873,-1.5107,-1.5303,-1.541,-1.541,-1.541,-1.5312,-1.5078,-1.4658,-1.4424,-1.4505,-1.4577,-1.4668,-1.4787,-1.4999,-1.4825,-1.4258,-1.3821,-1.3753,-1.4043,-1.3277,-1.3203,-1.3763,-1.3997,-1.4247,-1.4603,-1.6002,-1.6869,-1.7368,-1.805,-1.8464,0.0,-1.9005,-1.9108,-1.9108,-1.9108,-1.9108,-1.9108,-1.9108,-1.9108,-1.9108,-1.9108,-1.8922,-1.8673,-1.8465,-1.8559,-1.8621,-1.8133,-1.834,-1.862,-1.8275,-1.8213,-1.8098,-1.7776,-1.7704,-1.7592,0.0,-1.681,-1.6658,0.0,-1.6728,-1.6781,0.0,0.0,0.0,-1.7344,-1.7223,-1.7241,-1.7705,-1.7857,-1.7784,-1.7523,-1.7595,-1.7492,-1.7005,-1.7616,-1.8019,-1.8019,-1.8682,-1.9108,-1.9108,-1.9108,-1.9108,-1.9108,-1.9108,-1.9108,-1.9108,-1.9575,-1.9554,-1.9119,-1.9585,-1.9544,-1.9108,-1.9108,-1.9253,-1.9471,-1.9212,-1.9253,-1.9492,-1.943,-1.9409,-1.9471,-1.9944,-2.0006,-1.9862,-0.8884,-0.8753,-0.8746,-0.9068,-0.9725,-1.0656,-1.1959,-1.2616,-1.3143,-1.3623,-1.4375,-1.4891,-1.4891,-1.5195,-1.541,-1.541,-1.541,-1.541,-1.5449,-1.5048,-1.4898,-1.5097,-1.5232,-1.5333,-1.5394,-1.5487,-1.5373,-1.5036,-1.4255,-1.4195,-1.4756,-1.3584,-1.3467,-1.4192,-1.4192,-1.4348,-1.4705,-1.6646,-1.7544,-1.7771,-1.8651,-1.9046,-1.9108,-1.9108,-1.9108,-1.9108,-1.9108,-1.9108,-1.9108,-1.9108,-1.9108,-1.9108,-1.9108,-1.9108,-1.9025,-1.8621,-1.8787,-1.9015,-1.8611,-1.8797,-1.9108,-1.9108,-1.9108,-1.8971,-1.8426,-1.8312,-1.8076,-1.7277,-1.6941,-1.6809,-1.6758,0.0,0.0,0.0,0.0,-1.7527,-1.7527,-1.7639,-1.7727,-1.776,-1.8314,0.0,-1.8247,-1.7945,-1.7761,-1.7709,-1.8133,-1.8414,0.0,0.0,-1.9108,-1.9108,-1.9108,-1.9108,-1.9108,-1.9108,-1.9108,-1.9108,-1.9513,-1.9492,-1.9119,-1.9523,-1.9492,-1.9108,-1.9108,-1.9108,-1.9108,-1.9108,-1.9108,-1.9139,-1.9554,-1.971,-1.971,-1.971,-1.945,-1.916,-0.9309,-0.9138,-0.9101,-0.9641,-1.0661,-1.1642,-1.2313,-1.2994,-1.3689,-1.4475,-1.499,-1.5303,-1.5303,-1.5371,-1.541,-1.541,-1.541,-1.5478,-1.5643,-1.5228,-1.5205,-1.5726,-1.5459,-1.5513,-1.5963,-1.5869,-1.564,-1.5257,-1.4914,-1.4777,-1.4803,-1.4189,-1.4163,-1.4678,-1.4678,-1.5013,-1.5694,-1.6664,-1.7317,-1.775,-1.8288,-1.8766,-1.9108,-1.9108,-1.9108,-1.9108,-1.9108,-1.9108,-1.9108,-1.9108,-1.9108,-1.9108,-1.9108,-1.9108,-1.9088,-1.9005,-1.9046,-1.9088,-1.9005,-1.9046,-1.9108,-1.9108,-1.9108,-1.9077,-1.8971,-1.8951,-1.8909,-1.8744,-1.837,-1.8205,-1.8569,0.0,0.0,0.0,-1.8345,-1.8305,-1.8305,-1.8328,-1.8395,-1.8552,-1.8365,-1.8402,-1.8887,-1.8537,-1.8123,-1.773,-1.8133,-1.8414,0.0,0.0,-1.9108,0.0,-1.9108,-1.9108,0.0,0.0,-1.9108,-1.9108,-1.9181,-1.9181,-1.9108,-1.9191,-1.9181,-1.9108,-1.9108,-1.9108,-1.9108,-1.9108,-1.9108,-1.9108,-1.9191,-1.9222,-1.9222,-1.9222,-1.917,-1.9119,-0.9173,-0.9164,-0.9388,-1.027,-1.1358,-1.2372,-1.3173,-1.397,-1.4561,-1.4757,-1.4961,-1.5088,-1.5088,-1.5283,-1.5449,-1.5546,-1.5546,-1.5643,-1.5798,-1.5598,-1.5625,-1.598,-1.5835,-1.5871,-1.6239,-1.6202,-1.5985,-1.561,-1.5323,-1.5145,-1.5098,-1.4416,-1.4338,-1.4813,-1.4869,-1.5312,0.0,0.0,-1.7431,-1.7761,-1.8464,-1.8901,-1.9108,-1.9108,-1.9108,-1.9108,-1.9108,-1.9108,-1.9108,-1.9108,-1.9108,-1.9108,-1.9108,-1.9108,-1.9108,-1.9108,-1.9108,-1.9108,-1.9108,-1.9108,-1.9108,-1.9108,-1.9108,-1.9108,-1.9108,-1.9108,-1.9036,-1.8797,-1.8569,-1.8454,-1.8573,-1.8484,0.0,-1.8476,-1.8516,-1.8516,-1.8516,-1.8583,-1.865,-1.865,-1.8614,-1.8695,-1.8921,-1.8835,-1.859,-1.8102,-1.8257,-1.8414,0.0,0.0,-1.9108,0.0,0.0,0.0,-1.9108,0.0,-1.9108,-1.9108,-1.9108,-1.9108,-1.9108,-1.9108,-1.9108,-1.9108,-1.9108,-1.9108,-1.9108,-1.9108,-1.9108,-1.9108,-1.9108,-1.9108,-1.9108,-1.9108,-1.9108,-1.9108,-0.9363,-0.9537,-0.9929,-1.0782,-1.1964,-1.3043,-1.3696,-1.4696,-1.5293,-1.4961,-1.4922,-1.4922,-1.4922,-1.5244,-1.5546,-1.5701,-1.574,-1.5788,-1.5933,-1.5943,-1.6019,-1.6153,-1.6153,-1.6239,-1.6413,-1.6413,-1.6259,-1.5943,-1.5608,-1.5439,-1.5459,0.0,0.0,0.0,0.0,0.0,0.0,0.0,-1.7606,-1.7781,-1.8702,-1.9108,-1.9108,-1.9108,-1.9046,-1.8973,-1.9067,-1.9046,-1.8973,-1.9077,-1.9108,-1.9108,-1.9108,-1.9108,-1.9108,-1.9108,-1.9108,-1.9108,-1.9108,-1.9108,-1.9108,-1.9108,-1.9108,-1.9108,-1.9108,-1.9108,-1.9005,-1.8631,-1.8559,-1.8494,-1.8332,-1.83,0.0,0.0,-1.864,-1.864,-1.864,-1.8774,-1.8808,-1.865,-1.8908,-1.9,-1.8742,-1.8864,-1.8766,-1.8278,-1.8445,-1.8559,-1.8559,0.0,0.0,0.0,0.0,-1.9108,-1.9108,0.0,-1.9108,-1.9108,-1.9108,-1.9108,-1.9108,-1.9108,-1.9108,-1.9108,-1.9108,-1.9108,-1.9108,-1.9108,-1.9108,-1.9108,-1.9108,-1.9108,-1.9108,-1.9108,-1.9108,-1.9108,-1.0592,-1.0977,-1.1177,-1.11,-1.2621,-1.3705,-1.3168,-1.4398,-1.54,-1.5361,-1.5352,-1.5352,-1.5352,-1.5546,-1.5672,-1.5701,-1.5827,-1.5943,-1.6056,-1.6085,-1.6181,-1.6374,-1.6374,-1.6374,-1.6413,-1.6413,-1.6316,-1.6085,-1.5921,-1.5777,-1.5672,0.0,0.0,0.0,0.0,0.0,-1.6175,-1.7215,-1.7709,-1.7781,-1.8702,-1.9108,-1.9108,-1.9108,-1.8839,-1.8528,-1.8953,-1.8839,-1.8538,-1.8963,-1.9108,-1.9108,-1.9108,-1.9108,-1.9108,-1.9108,-1.9108,-1.9108,-1.9108,-1.9108,-1.9108,-1.9108,-1.9108,-1.9108,-1.9108,-1.9108,-1.9088,-1.9046,-1.9036,-1.9036,-1.9003,-1.9013,-1.9013,0.0,0.0,-1.9042,-1.9042,-1.9075,-1.9065,-1.9042,-1.9075,-1.8942,-1.8485,-1.8444,-1.8257,-1.7792,-1.8547,-1.9036,0.0,0.0,0.0,-1.9108,-1.9108,-1.9108,-1.9108,-1.9108,-1.9108,-1.9108,-1.9108,-1.9108,-1.9108,-1.9108,-1.9108,-1.9108,-1.9108,-1.9108,-1.9108,-1.9108,-1.9108,-1.9108,-1.9108,-1.9108,-1.9108,-1.9108,-1.9108,-1.9108,-1.053,-1.0704,-1.097,-1.1544,-1.2276,-1.2898,-1.3245,-1.3856,-1.4252,-1.4252,-1.4932,-1.541,-1.541,-1.5478,-1.5604,-1.5798,-1.5856,-1.6,-1.6249,-1.6278,-1.6316,-1.6413,-1.6413,-1.6413,-1.6413,-1.6413,-1.6306,-1.6114,-1.5961,-1.5827,0.0,0.0,0.0,0.0,0.0,-1.6181,-1.6319,-1.6987,-1.7451,-1.775,-1.8402,-1.8683,-1.8683,-1.8683,-1.8382,-1.805,-1.8495,-1.8569,-1.8476,-1.8942,-1.9108,-1.9108,-1.9108,-1.9108,-1.9108,-1.9108,-1.9108,-1.9108,-1.9108,-1.9108,-1.9108,-1.9108,-1.9108,-1.9108,-1.9108,-1.9108,-1.9108,-1.9108,-1.9108,-1.9108,-1.9108,-1.9108,-1.9108,-1.9108,0.0,0.0,0.0,0.0,-1.9108,-1.9108,0.0,-1.9025,-1.8849,-1.8828,-1.8756,-1.8547,-1.8642,-1.8683,-1.8683,0.0,0.0,-1.9108,0.0,-1.9108,-1.9108,-1.9108,-1.9108,-1.9108,-1.9108,-1.9108,-1.9108,-1.9108,-1.9108,-1.9108,-1.9108,-1.9108,-1.9108,-1.9108,-1.9108,-1.9108,-1.9108,-1.9108,-1.9108,-1.9108,-1.9108,-1.9108,-1.0733,-1.0902,-1.1203,-1.1773,-1.22,-1.2609,-1.3127,-1.3381,-1.3468,-1.3357,-1.4139,-1.48,-1.5099,-1.5216,-1.5466,-1.5875,-1.5943,-1.6048,-1.6316,-1.6374,-1.6374,-1.6306,-1.6374,-1.6413,-1.6413,-1.6413,-1.6345,-1.6181,-1.6019,0.0,0.0,0.0,0.0,0.0,-1.6153,-1.6278,-1.6444,-1.6831,-1.7285,-1.774,-1.8206,-1.8497,-1.86,-1.8465,-1.8112,-1.7761,-1.8226,-1.8206,-1.8102,-1.8859,-1.9015,-1.8922,-1.9056,-1.9108,-1.9108,-1.9108,-1.9108,-1.9108,-1.9108,-1.9108,-1.9108,-1.9108,-1.9108,-1.9108,-1.9108,-1.9108,-1.9108,-1.9108,-1.9108,-1.9108,-1.9108,-1.9108,-1.9108,-1.9108,0.0,0.0,0.0,-1.9108,0.0,-1.9108,-1.9108,-1.9046,-1.8911,-1.8901,-1.8901,-1.8901,-1.86,-1.8465,-1.8611,0.0,0.0,0.0,0.0,0.0,-1.9108,-1.9108,-1.9108,-1.9108,-1.9108,-1.9108,-1.9108,-1.9108,-1.9108,-1.9108,-1.9108,-1.9108,-1.9108,-1.9108,-1.9108,-1.9108,-1.9108,-1.9108,-1.9108,-1.9108,-1.9108,-1.9108,-1.1553,-1.2058,-1.2289,-1.1709,-1.265,-1.3252,-1.2604,-1.307,-1.3374,-1.3055,-1.3032,-1.3412,-1.4394,-1.4811,-1.5263,-1.5845,-1.6009,-1.6114,-1.6114,-1.6278,-1.6306,-1.6114,-1.6278,-1.6413,-1.6413,-1.6413,-1.6413,-1.6413,0.0,0.0,-1.6114,0.0,-1.6114,-1.6114,-1.6306,-1.6413,-1.6444,-1.6831,-1.7285,-1.774,-1.8206,-1.8683,-1.9046,-1.859,-1.8112,-1.7761,-1.8226,-1.7812,-1.7234,-1.862,-1.8797,-1.8497,-1.8953,-1.9108,-1.9108,-1.9108,-1.9108,-1.9108,-1.9108,-1.9108,-1.9108,-1.9108,-1.9108,-1.9108,-1.9108,-1.9108,-1.9108,-1.9108,-1.9108,-1.9108,-1.9108,-1.9108,-1.9108,-1.9108,0.0,0.0,0.0,-1.9108,0.0,-1.9108,-1.9108,-1.8922,-1.8465,-1.8414,-1.8414,-1.8414,-1.8414,-1.8611,0.0,0.0,0.0,-1.9108,-1.9108,0.0,-1.9108,-1.9108,-1.9108,-1.9108,-1.9108,-1.9108,-1.9108,-1.9108,-1.9108,-1.9108,-1.9108,-1.9108,-1.9108,-1.9108,-1.9108,-1.9108,-1.9108,-1.9108,-1.9108,-1.9108,-1.9108,-1.9108,-1.1591,-1.174,-1.1825,-1.1622,-1.1926,-1.2135,-1.1919,-1.2081,-1.2073,-1.1763,-1.2033,-1.2572,-1.3401,-1.4052,-1.4722,-1.5431,-1.5571,-1.5655,-1.5693,-1.5852,-1.6042,-1.6296,-1.6374,-1.6413,-1.6413,-1.6413,-1.6413,-1.6413,0.0,0.0,0.0,-1.6114,-1.6181,-1.6306,-1.6374,-1.6413,-1.6423,-1.6529,-1.685,-1.7244,-1.7378,-1.7523,-1.7637,-1.7492,-1.7191,-1.687,-1.7275,-1.7451,-1.7595,-1.835,-1.8745,-1.8911,-1.9056,-1.9108,-1.9108,-1.9108,-1.9108,-1.9108,-1.9108,-1.9108,-1.9108,-1.9108,-1.9108,-1.9108,-1.9108,-1.9108,-1.9108,-1.9108,-1.9108,-1.9108,-1.9108,-1.9108,-1.9108,-1.9108,-1.9108,0.0,-1.9108,0.0,-1.9108,-1.9108,-1.9108,-1.9046,-1.8901,-1.888,-1.888,-1.888,-1.888,-1.8942,0.0,0.0,0.0,0.0,-1.9108,0.0,-1.9108,-1.9108,-1.9108,-1.9108,-1.9108,-1.9108,-1.9108,-1.9108,-1.9108,-1.9108,-1.9108,-1.9108,-1.9108,-1.9108,-1.9108,-1.9108,-1.9108,-1.9108,-1.9108,-1.9108,-1.9108,-1.9108,-1.1591,-1.1591,-1.1591,-1.1591,-1.1489,-1.1408,-1.1408,-1.1408,-1.1291,-1.096,-1.1315,-1.1886,-1.2639,-1.3171,-1.4007,-1.5395,-1.5415,-1.5433,-1.5706,-1.5716,-1.5877,-1.6267,-1.6374,-1.6413,-1.6413,-1.6413,0.0,-1.6413,-1.6278,-1.621,-1.621,-1.621,-1.6278,-1.6413,-1.6413,-1.6413,-1.6413,-1.6413,-1.6632,-1.7017,-1.7017,-1.712,-1.7254,-1.7079,-1.6841,-1.6663,-1.6913,-1.7203,-1.7533,-1.8175,-1.86,-1.888,-1.9046,-1.9108,-1.9108,-1.9108,-1.9108,-1.9108,-1.9108,-1.9108,-1.9108,-1.9108,-1.9108,-1.9108,-1.9108,-1.9108,-1.9108,-1.9108,-1.9108,-1.9108,-1.9108,-1.9108,-1.9108,-1.9108,-1.9108,-1.9108,-1.9108,0.0,-1.9108,0.0,0.0,-1.9108,-1.9108,-1.9108,-1.9108,0.0,0.0,0.0,0.0,0.0,-1.9108,-1.9108,-1.9108,-1.9108,-1.9108,-1.9108,-1.9108,-1.9108,-1.9108,-1.9108,-1.9108,-1.9108,-1.9108,-1.9108,-1.9108,-1.9108,-1.9108,-1.9108,-1.9108,-1.9108,-1.9108,-1.9108,-1.9108,-1.9108,-1.9108,-1.9108,-1.1591,-1.1591,-1.1584,-1.1562,-1.1305,-1.1107,-1.1107,-1.1107,-1.0997,-1.0689,-1.0931,-1.142,-1.2201,-1.226,-1.3205,-1.5574,-1.5371,-1.5361,-1.5977,-1.5796,-1.5767,-1.6073,-1.6296,-1.6392,-1.6361,-1.6392,-1.6413,-1.6413,-1.6413,-1.6413,-1.6413,-1.6413,-1.6413,-1.6413,-1.6413,-1.6413,-1.6413,-1.6413,-1.6622,-1.6965,-1.6965,-1.7223,-1.7564,-1.713,-1.6965,-1.6965,-1.6965,-1.6986,-1.7151,-1.804,-1.8383,-1.8497,-1.8953,-1.9108,-1.9108,-1.9108,-1.9108,-1.9108,-1.9108,-1.9108,-1.9108,-1.9108,-1.9108,-1.9108,-1.9108,-1.9108,-1.9108,-1.9108,-1.9108,-1.9108,-1.9108,-1.9108,-1.9108,-1.9108,-1.9108,-1.9108,-1.9108,-1.9108,-1.9108,-1.9108,0.0,0.0,-1.9108,-1.9108,-1.9108,0.0,0.0,0.0,0.0,0.0,-1.9139,-1.9108,-1.9108,-1.9108,-1.9108,-1.9108,-1.9108,-1.9108,-1.9108,-1.9108,-1.9108,-1.9108,-1.9108,-1.9108,-1.9108,-1.9108,-1.9108,-1.9108,-1.9108,-1.9108,-1.9108,-1.9108,-1.9108,-1.9108,-1.9108,-1.9108,-1.1591,-1.1591,-1.1518,-1.1261,-1.1158,-1.1107,-1.1107,-1.1107,-1.1078,-1.0997,-1.1276,-1.1623,-1.2043,-1.2519,-1.3288,-1.4501,-1.427,-1.4349,-1.5053,-1.5139,-1.5335,-1.579,-1.6187,-1.6247,-1.5856,-1.6226,-1.6413,-1.6413,-1.6413,-1.6413,-1.6413,-1.6413,-1.6413,-1.6413,-1.6413,-1.6413,-1.6413,-1.6413,-1.6436,-1.6539,-1.6539,-1.6601,-1.6684,-1.6581,-1.6539,-1.6539,-1.6539,-1.6757,-1.7099,-1.7668,-1.8102,-1.8497,-1.8953,-1.9108,-1.9108,-1.9108,-1.9108,-1.9108,-1.9108,-1.9108,-1.9108,-1.9108,-1.9108,-1.9108,-1.9108,-1.9108,-1.9108,-1.9108,-1.9108,-1.9108,-1.9108,-1.9108,-1.9108,-1.9108,-1.9108,-1.9108,-1.9108,-1.9108,-1.9108,0.0,-1.9108,-1.9108,-1.9108,-1.9108,-1.9108,0.0,0.0,-1.9108,-1.9108,-1.944,-1.9471,-1.9119,-1.9108,-1.9108,-1.9108,-1.9108,-1.9108,-1.9108,-1.9108,-1.9108,-1.9108,-1.9108,-1.9108,-1.9108,-1.9108,-1.9108,-1.9108,-1.9108,-1.9108,-1.9108,-1.9108,-1.9108,-1.9108,-1.9108,-1.9108,-1.9108,-1.1591,-1.1474,-1.1313,-1.1136,-1.0858,-1.0631,-1.0631,-1.0755,-1.088,-1.088,-1.1419,-1.1866,-1.204,-1.2492,-1.2957,-1.3393,-1.3498,-1.3933,-1.4783,-1.4568,-1.4602,-1.5046,-1.5732,-1.5873,-1.538,-1.606,-1.6413,-1.6413,-1.6413,-1.6413,-1.6413,-1.6413,-1.6413,-1.6413,-1.6413,-1.6413,-1.6413,-1.6413,-1.6413,-1.6413,-1.6413,-1.6413,-1.6413,-1.6413,-1.6413,-1.6413,-1.6413,-1.6663,-1.7048,-1.7296,-1.7678,-1.8123,-1.8382,-1.8599,-1.8787,-1.8787,-1.8942,-1.9108,-1.9108,-1.9108,-1.9108,-1.9108,-1.9108,-1.9108,-1.9108,-1.9108,-1.9108,-1.9108,-1.9108,-1.9108,-1.9108,-1.9108,-1.9108,-1.9108,-1.9108,-1.9108,-1.9108,-1.9108,-1.9108,-1.9108,-1.9108,-1.9108,-1.9108,-1.9108,-1.9108,-1.9108,-1.9108,0.0,-1.9409,-1.9658,-1.9679,-1.943,-1.9419,-1.9419,-1.9419,-1.9212,-1.9316,-1.9686,-1.9305,-1.9316,-1.9675,-1.9295,-1.9222,-1.9409,-1.9191,-1.9108,-1.9108,-1.9108,-1.9108,-1.9108,-1.9108,-1.9108,-1.9108,-1.9108,-1.9108,-1.9108,-1.1591,-1.1327,-1.1107,-1.1107,-1.0601,-1.0192,-1.0236,-1.0485,-1.0711,-1.0813,-1.1579,-1.212,-1.2151,-1.241,-1.2579,-1.2579,-1.3038,-1.3696,-1.4559,-1.3921,-1.3755,-1.4291,-1.5127,-1.5432,-1.5111,-1.5967,-1.6413,-1.6413,-1.6413,-1.6413,-1.6413,-1.6413,-1.6413,-1.6413,-1.6413,-1.6413,-1.6413,-1.6413,-1.6413,-1.6413,-1.6413,-1.6413,-1.6413,-1.6413,-1.6413,-1.6413,-1.6456,-1.6726,-1.7027,-1.7172,-1.7471,-1.7812,-1.7884,-1.8185,-1.8517,-1.8517,-1.8797,-1.9108,-1.9108,-1.9108,-1.9108,-1.9108,-1.9108,-1.9108,-1.9108,-1.9108,-1.9108,-1.9108,-1.9108,-1.9108,-1.9108,-1.9108,-1.9108,-1.9108,-1.9108,-1.9108,-1.9108,0.0,-1.9108,-1.9108,-1.9108,-1.9108,-1.9108,-1.9108,-1.9108,-1.9108,-1.917,-1.9378,-1.9772,-1.9927,-2.0,-2.0,-1.9927,-1.9896,-1.9896,-1.944,-1.9592,-2.0374,-1.9644,-1.9675,-2.0354,-1.9561,-1.9419,-1.9772,-1.9305,-1.9108,-1.9108,-1.9108,-1.9108,-1.9108,-1.9108,-1.9108,-1.9108,-1.9108,-1.9108,-1.9108,-1.1591,-1.1327,-1.1107,-1.1107,-1.0792,-1.063,-1.0909,-1.0997,-1.1219,-1.1806,-1.1997,-1.2182,-1.2421,-1.2718,-1.2929,-1.2929,-1.3004,-1.3138,-1.3378,-1.2933,-1.3202,-1.4331,-1.4848,-1.5256,-1.5577,-1.6133,-1.6413,-1.6413,-1.6413,-1.6413,-1.6413,-1.6413,-1.6413,-1.6413,-1.6413,-1.6413,-1.6413,-1.6413,-1.6413,-1.6413,-1.6413,-1.6413,-1.6413,-1.6413,-1.6413,-1.6425,-1.6779,-1.6955,-1.713,-1.7916,-1.8216,-1.835,-1.8776,-1.8942,-1.8994,-1.8994,-1.9046,-1.9108,-1.9108,-1.9108,-1.9108,-1.9108,-1.9108,-1.9108,-1.9108,-1.9108,-1.9108,-1.9108,-1.9108,-1.9108,-1.9108,-1.9108,-1.9108,-1.9108,-1.9108,-1.9108,-1.9108,0.0,-1.9108,-1.9108,-1.9108,-1.9108,-1.9108,-1.9108,-1.9108,-1.9108,-1.9471,-1.972,-1.9793,-2.0493,-2.0907,-2.0907,-2.0524,-2.0327,-2.0327,-1.9917,-1.9913,-2.0385,-2.025,-2.025,-2.0364,-1.9927,-1.973,-1.9772,-1.9305,-1.9108,-1.9108,-1.9108,-1.9108,-1.9108,-1.9108,-1.9108,-1.9108,-1.9108,-1.9108,-1.9108,-1.1327,-1.107,-1.0755,-1.058,-1.0426,-1.0375,-1.0528,-1.087,-1.1284,-1.1775,-1.2257,-1.2644,-1.2767,-1.3064,-1.3201,-1.3016,-1.2791,-1.2802,-1.3068,-1.2661,-1.2851,-1.3931,-1.4384,-1.507,-1.607,-1.6299,-1.6413,-1.6413,-1.6413,-1.6413,-1.6413,-1.6413,-1.6413,-1.6413,-1.6413,-1.6413,-1.6413,-1.6413,-1.6413,-1.6413,-1.6413,-1.6413,-1.6413,-1.6413,-1.6413,-1.6433,-1.6612,-1.6684,-1.6746,-1.719,-1.746,-1.7668,-1.7916,-1.8309,-1.8735,-1.8735,-1.8911,-1.9108,-1.9108,-1.9108,-1.9108,-1.9108,-1.9108,-1.9108,-1.9108,-1.9108,-1.9108,-1.9108,-1.9108,-1.9108,-1.9108,-1.9108,-1.9108,-1.9108,-1.9108,-1.9108,-1.9108,-1.9108,-1.9191,-1.945,-1.9471,-1.9575,-1.9779,-1.9799,-1.9799,-1.9799,-1.9996,-2.0224,-2.0472,-2.0886,-2.1228,-2.1476,-2.1005,-2.0793,-2.0793,-2.0348,-2.0472,-2.1166,-2.0622,-2.0653,-2.1145,-2.0441,-2.012,-2.0089,-1.9679,-1.9336,-1.9108,-1.9108,-1.9108,-1.9108,-1.9108,-1.9108,-1.9108,-1.9108,-1.9108,-1.9108,-1.1085,-1.0777,-1.0419,-1.0243,-1.021,-1.0215,-1.0289,-1.0887,-1.143,-1.1752,-1.2488,-1.3042,-1.3103,-1.3292,-1.328,-1.3035,-1.2811,-1.2873,-1.3232,-1.2838,-1.3022,-1.3925,-1.4496,-1.5235,-1.6226,-1.635,-1.6361,-1.6247,-1.6361,-1.6413,-1.6413,-1.6413,-1.6413,-1.6413,-1.6413,-1.6413,-1.6413,-1.6413,-1.6413,-1.6413,-1.6413,-1.6475,-1.6529,-1.6454,-1.6446,-1.6539,-1.6539,-1.6539,-1.657,-1.6807,-1.7067,-1.7337,-1.7451,-1.7988,-1.8569,-1.8569,-1.8828,-1.9108,-1.9108,-1.9108,-1.9108,-1.9108,-1.9108,-1.9108,-1.9108,-1.9108,-1.9108,-1.9108,-1.9108,-1.9108,-1.9108,-1.9108,-1.9108,-1.9108,0.0,-1.9139,-1.9253,-1.9264,-1.943,-1.9896,-1.9948,-2.0048,-2.0354,-2.0385,-2.0385,-2.0385,-2.0488,-2.0705,-2.1093,-2.1217,-2.1445,-2.1797,-2.1352,-2.1166,-2.1269,-2.0814,-2.1,-2.1797,-2.1083,-2.1114,-2.1776,-2.0959,-2.0488,-2.0364,-1.9955,-1.9533,-1.9108,-1.9108,-1.9108,-1.9108,-1.9108,-1.9108,-1.9108,-1.9108,-1.9108,-1.9108,-1.1041,-1.0565,-1.0221,-1.0499,-1.0504,-1.0579,-1.0897,-1.1505,-1.2046,-1.238,-1.2759,-1.3133,-1.342,-1.322,-1.3035,-1.3009,-1.3369,-1.3615,-1.3657,-1.3562,-1.3939,-1.4952,-1.5795,-1.6102,-1.577,-1.6184,-1.6205,-1.5742,-1.6205,-1.6413,-1.6413,-1.6413,-1.6413,-1.6413,-1.6413,-1.6413,-1.6413,-1.6413,-1.6413,-1.6413,-1.6413,-1.6622,-1.6913,-1.6539,-1.6632,-1.6965,-1.6965,-1.6965,-1.7089,-1.7947,-1.8289,-1.8383,-1.8818,-1.9005,-1.9056,-1.9056,-1.9077,-1.9108,-1.9108,-1.9108,-1.9108,-1.9108,-1.9108,-1.9108,-1.9108,-1.9108,-1.9108,-1.9108,-1.9108,-1.9108,-1.9108,-1.9108,-1.9108,-1.9108,0.0,0.0,-1.9679,-1.9741,-1.9907,-2.0327,-2.0379,-2.0354,-2.0385,-2.0385,-2.0385,-2.0385,-2.0788,-2.1073,-2.1114,-2.1518,-2.1766,-2.1807,-2.1352,-2.1321,-2.1745,-2.13,-2.1311,-2.1807,-2.1735,-2.1735,-2.1787,-2.129,-2.0798,-2.0364,-1.9955,-1.9533,-1.9108,-1.9108,-1.9108,-1.9108,-1.9108,-1.9108,-1.9108,-1.9108,-1.9108,-1.9108,-1.0711,-1.0411,-1.0137,-1.0198,-1.0586,-1.0892,-1.0926,-1.1527,-1.2045,-1.211,-1.2426,-1.2682,-1.2817,-1.2689,-1.262,-1.262,-1.3033,-1.3378,-1.3675,-1.3643,-1.389,-1.4567,-1.5186,-1.5711,-1.6143,-1.6011,-1.6029,-1.6143,-1.6319,-1.6413,-1.6413,-1.6413,-1.6413,-1.6413,-1.6413,-1.6413,-1.6413,-1.6413,-1.6539,-1.6758,-1.6758,-1.7037,-1.742,-1.7254,-1.7296,-1.744,-1.744,-1.744,-1.7492,-1.7864,-1.8164,-1.8445,-1.8621,-1.887,-1.9108,-1.9108,-1.9108,-1.9108,-1.9108,-1.9108,-1.9108,-1.9108,-1.9108,-1.9108,-1.9108,-1.9108,-1.9108,-1.9108,-1.9326,-1.9533,-1.9533,-1.9727,-1.9913,-1.9913,0.0,-1.9975,-2.0151,-2.0172,-2.0348,-2.0793,-2.0819,-2.0969,-2.1248,-2.128,-2.128,-2.128,-2.1445,-2.1538,-2.1538,-2.1714,-2.1807,-2.1807,-2.1631,-2.1631,-2.1807,-2.1631,-2.1631,-2.1807,-2.1807,-2.1807,-2.1797,-2.1621,-2.1135,-2.0374,-2.0245,-1.9748,-1.9108,-1.9108,-1.9108,-1.9108,-1.9108,-1.9108,-1.9108,-1.9108,-1.9108,-1.9108,-1.0487,-1.0369,-1.0204,-1.0167,-1.0646,-1.1008,-1.0905,-1.1494,-1.1925,-1.1878,-1.2191,-1.2389,-1.2389,-1.2389,-1.2393,-1.2409,-1.2896,-1.3294,-1.3476,-1.3701,-1.3966,-1.4289,-1.4894,-1.5442,-1.5967,-1.5773,-1.5873,-1.6184,-1.634,-1.6413,-1.6413,-1.6413,-1.6413,-1.6413,-1.6413,-1.6413,-1.6413,-1.6413,-1.6632,-1.7017,-1.7017,-1.7368,-1.7884,-1.775,-1.7781,-1.7884,-1.775,-1.7699,-1.7719,-1.7854,-1.8133,-1.8434,-1.8579,-1.8849,-1.9108,-1.9108,-1.9108,-1.9108,-1.9108,-1.9108,-1.9108,-1.9108,-1.9108,-1.9108,-1.9108,-1.9108,-1.915,-1.9295,-1.9575,-1.9834,-1.9979,-2.0213,-2.0385,-2.0385,-2.0385,-2.0436,-2.0581,-2.0602,-2.0777,-2.128,-2.1331,-2.1455,-2.1776,-2.1807,-2.1807,-2.1807,-2.1807,-2.1807,-2.1807,-2.1807,-2.1807,-2.1807,-2.1807,-2.1807,-2.1807,-2.1807,-2.1807,-2.1807,-2.1807,-2.1807,-2.1797,-2.1652,-2.1166,-2.0385,-2.0276,-1.9779,-1.9108,-1.9108,-1.9108,-1.9108,-1.9108,-1.9108,-1.9108,-1.9108,-1.9108,-1.9108,-1.0439,-1.0498,-1.0496,-1.0504,-1.0726,-1.0905,-1.0905,-1.1419,-1.1797,-1.1788,-1.2158,-1.2381,-1.2381,-1.2381,-1.239,-1.2394,-1.318,-1.3512,-1.3035,-1.3808,-1.4286,-1.4299,-1.5194,-1.5473,-1.5007,-1.5452,-1.5691,-1.5728,-1.6184,-1.6413,-1.6413,-1.6413,-1.6413,-1.6413,-1.6413,-1.6413,-1.6413,-1.6413,-1.6643,-1.7017,-1.7017,-1.7554,-1.834,-1.7874,-1.8009,-1.833,-1.7874,-1.7719,-1.7781,-1.8237,-1.8414,-1.8497,-1.8953,-1.9108,-1.9108,-1.9108,-1.9108,-1.9108,-1.9108,-1.9108,-1.9108,-1.9108,-1.9108,-1.9108,-1.9108,-1.9108,-1.9243,-1.9699,-1.9803,-1.9938,-2.0348,-2.0395,-2.0395,-2.0395,-2.0395,-2.056,-2.1062,-2.1124,-2.129,-2.1745,-2.1807,-2.1807,-2.1807,-2.1807,-2.1807,-2.1807,-2.1807,-2.1807,-2.1807,-2.1807,-2.1807,-2.1807,-2.1807,-2.1807,-2.1807,-2.1807,-2.1807,-2.1807,-2.1807,-2.1807,-2.1787,-2.1331,-2.0866,-2.0364,-1.999,-1.9533,-1.9108,-1.9108,-1.9108,-1.9108,-1.9108,-1.9108,-1.9108,-1.9108,-1.9108,-1.9108,-1.0674,-1.0811,-1.0899,-1.1101,-1.1438,-1.1739,-1.192,-1.2104,-1.2105,-1.1849,-1.1909,-1.1901,-1.1662,-1.1895,-1.2154,-1.2463,-1.2921,-1.3278,-1.341,-1.4288,-1.4625,-1.4299,-1.4883,-1.5297,-1.5484,-1.5618,-1.5873,-1.6205,-1.634,-1.6413,-1.6413,-1.6413,-1.6413,-1.6413,-1.6413,-1.6413,-1.6423,-1.6715,-1.7079,-1.7523,-1.7854,-1.834,-1.888,-1.8756,-1.8787,-1.888,-1.8723,-1.8671,-1.8692,-1.8849,-1.8901,-1.8922,-1.9056,-1.9108,-1.9108,-1.9108,-1.9108,-1.9108,-1.9108,-1.9108,-1.9108,-1.9108,-1.9108,-1.9108,-1.9108,-1.9357,-1.9627,-1.9761,-2.0301,-2.0752,-2.0886,-2.1176,-2.1393,-2.1393,-2.1393,-2.1445,-2.158,-2.16,-2.1652,-2.1787,-2.1807,-2.1807,-2.1807,-2.1807,-2.1807,-2.1807,-2.1807,-2.1807,-2.1807,-2.1807,-2.1807,-2.1807,-2.1807,-2.1807,-2.1807,-2.1807,-2.1807,-2.1807,-2.1807,-2.1807,-2.1797,-2.1662,-2.1176,-2.0385,-2.0286,-1.9789,-1.9108,-1.9108,-1.9108,-1.9108,-1.9108,-1.9108,-1.9108,-1.9108,-1.9108,-1.9108,-1.0843,-1.1123,-1.1331,-1.1357,-1.1659,-1.1984,-1.2148,-1.2175,-1.2089,-1.1822,-1.1686,-1.1584,-1.1545,-1.1878,-1.2346,-1.292,-1.3297,-1.3559,-1.3623,-1.4314,-1.4691,-1.4593,-1.5028,-1.5401,-1.568,-1.5691,-1.5946,-1.6413,-1.6413,-1.6413,-1.6413,-1.6413,-1.6413,-1.6413,-1.6413,-1.6413,-1.6423,-1.6663,-1.712,-1.773,-1.8019,-1.8506,-1.9108,-1.9108,-1.9108,-1.9108,-1.9108,-1.9108,-1.9108,-1.9108,-1.9108,-1.9108,-1.9108,-1.9108,-1.9108,-1.9108,-1.9108,-1.9108,-1.9108,-1.9108,-1.9108,-1.9108,-1.9108,-1.9108,-1.9108,-1.9316,-1.9575,-1.9761,-2.0238,-2.069,-2.1052,-2.1342,-2.159,-2.1776,-2.1807,-2.1807,-2.1807,-2.1807,-2.1807,-2.1807,-2.1807,-2.1807,-2.1807,-2.1807,-2.1807,-2.1807,-2.1807,-2.1807,-2.1807,-2.1807,-2.1807,-2.1807,-2.1807,-2.1807,-2.1807,-2.1807,-2.1807,-2.1807,-2.1807,-2.1807,-2.1797,-2.1621,-2.1124,-2.0374,-2.0234,-1.9748,-1.9108,-1.9108,-1.9108,-1.9108,-1.9108,-1.9212,-1.9357,-1.917,-1.9222,-1.9347,-1.1038,-1.1419,-1.1704,-1.1413,-1.161,-1.1797,-1.1857,-1.1805,-1.1788,-1.1788,-1.1567,-1.1537,-1.1852,-1.2262,-1.2835,-1.3627,-1.4103,-1.4208,-1.3844,-1.4212,-1.4626,-1.5033,-1.5504,-1.5753,-1.5753,-1.5753,-1.596,-1.6413,-1.6413,-1.6413,-1.6413,-1.6413,-1.6413,-1.6413,-1.6413,-1.6413,-1.6413,-1.6496,-1.6974,-1.7709,-1.7792,-1.834,-1.9108,-1.9108,-1.9108,-1.9108,-1.9108,-1.9108,-1.9108,-1.9108,-1.9108,-1.9108,-1.9108,-1.9108,-1.9108,-1.9108,-1.9108,-1.9108,-1.9108,-1.9108,-1.9108,-1.9108,-1.9108,-1.9108,-1.9108,-1.9139,-1.9285,-1.971,-1.9824,-2.0124,-2.0959,-2.1114,-2.1269,-2.1725,-2.1807,-2.1807,-2.1807,-2.1807,-2.1807,-2.1807,-2.1807,-2.1807,-2.1807,-2.1807,-2.1807,-2.1807,-2.1807,-2.1807,-2.1807,-2.1807,-2.1807,-2.1807,-2.1807,-2.1807,-2.1807,-2.1807,-2.1807,-2.1807,-2.1807,-2.1807,-2.1787,-2.1331,-2.0829,-2.0364,-1.9996,-1.9564,-1.9108,-1.915,-1.917,-1.916,-1.9119,-1.9388,-1.9741,-1.9274,-1.9378,-1.9679,-1.1581,-1.1702,-1.1789,-1.1704,-1.1755,-1.1909,-1.2226,-1.2003,-1.1788,-1.1788,-1.2018,-1.21,-1.1904,-1.2821,-1.3501,-1.3681,-1.4394,-1.4802,-1.473,-1.5148,-1.5454,-1.5535,-1.6008,-1.6257,-1.6257,-1.6257,-1.6309,-1.6413,-1.6413,-1.6413,-1.6413,-1.6413,-1.6413,-1.6413,-1.6413,-1.6413,-1.6425,-1.714,-1.7523,-1.7761,-1.8495,-1.8932,-1.9108,-1.9108,-1.9108,-1.9108,-1.9108,-1.9108,-1.9108,-1.9108,-1.9108,-1.9108,-1.9108,-1.9108,-1.9108,-1.9108,-1.9108,-1.9108,-1.9108,-1.9108,-1.9108,-1.9108,-1.9108,-1.9108,-1.9108,-1.9388,-1.9679,-1.9772,-2.0038,-2.0452,-2.101,-2.1114,-2.1269,-2.1725,-2.1807,-2.1807,-2.1807,-2.1807,-2.1807,-2.1807,-2.1807,-2.1807,-2.1807,-2.1807,-2.1807,-2.1807,-2.1807,-2.1807,-2.1807,-2.1807,-2.1807,-2.1807,-2.1807,-2.1807,-2.1807,-2.1807,-2.1807,-2.1807,-2.1807,-2.1807,-2.1787,-2.1331,-2.0829,-2.0385,-2.0327,-1.982,-1.9129,-1.9492,-1.9647,-1.9606,-1.9243,-1.9388,-1.9741,-1.9274,-1.917,-1.9295,-1.1865,-1.1951,-1.1987,-1.161,-1.1695,-1.1883,-1.2071,-1.1943,-1.1788,-1.1788,-1.2008,-1.2242,-1.2462,-1.302,-1.3462,-1.3681,-1.4696,-1.524,-1.5064,-1.5461,-1.5784,-1.6011,-1.6278,-1.6413,-1.6413,-1.6413,-1.6413,-1.6413,-1.6413,-1.6413,-1.6413,-1.6413,-1.6413,-1.6413,-1.6413,-1.6498,-1.6726,-1.7172,-1.7616,-1.8081,-1.859,-1.8911,-1.9108,-1.9108,-1.9108,-1.9108,-1.9108,-1.9108,-1.9108,-1.9108,-1.9108,-1.9108,-1.9108,-1.9108,-1.9108,-1.9108,-1.9108,-1.9108,-1.9108,-1.9108,-1.9108,-1.9108,-1.9108,-1.9108,-1.9108,-1.9295,-1.9533,-1.9751,-1.9979,-2.0317,-2.099,-2.1114,-2.1269,-2.1725,-2.1807,-2.1807,-2.1807,-2.1807,-2.1807,-2.1807,-2.1807,-2.1807,-2.1807,-2.1807,-2.1807,-2.1807,-2.1807,-2.1807,-2.1807,-2.1807,-2.1807,-2.1807,-2.1807,-2.1807,-2.1807,-2.1807,-2.1807,-2.1807,-2.1807,-2.1807,-2.1797,-2.1559,-2.1186,-2.0715,-2.0715,-2.0358,-1.9737,-1.9986,-1.9955,-1.9772,-1.9533,-1.9585,-1.9761,-1.9523,-1.9575,-1.9686,-1.1951,-1.2011,-1.2031,-1.1404,-1.1533,-1.1712,-1.1712,-1.1712,-1.1747,-1.1799,-1.1882,-1.2198,-1.3013,-1.3174,-1.3482,-1.4117,-1.5102,-1.5573,-1.534,-1.5628,-1.598,-1.6392,-1.6413,-1.6413,-1.6413,-1.6413,-1.6413,-1.6413,-1.6413,-1.6413,-1.6413,-1.6413,-1.6413,-1.6413,-1.6456,-1.6694,-1.7027,-1.7182,-1.7698,-1.8414,-1.8497,-1.8756,-1.9108,-1.9108,-1.9108,-1.9108,-1.9108,-1.9108,-1.9108,-1.9108,-1.9108,-1.9108,-1.9108,-1.9108,-1.9108,-1.9108,-1.9108,-1.9108,-1.9108,-1.9108,-1.9108,-1.9108,-1.916,-1.9222,-1.9222,-1.9222,-1.9357,-1.9813,-1.9907,-2.0166,-2.0959,-2.1114,-2.1269,-2.1725,-2.1807,-2.1807,-2.1807,-2.1807,-2.1807,-2.1807,-2.1807,-2.1807,-2.1807,-2.1807,-2.1807,-2.1807,-2.1807,-2.1807,-2.1807,-2.1807,-2.1807,-2.1807,-2.1807,-2.1807,-2.1807,-2.1807,-2.1807,-2.1807,-2.1807,-2.1807,-2.1807,-2.1725,-2.1476,-2.1114,-2.1114,-2.0819,-2.0385,-2.0385,-2.0255,-2.0,-1.9772,-1.9772,-1.9886,-1.973,-1.9924,-2.0203,-1.19,-1.1619,-1.1421,-1.1318,-1.1344,-1.1378,-1.1378,-1.1378,-1.1505,-1.1833,-1.1879,-1.2173,-1.2917,-1.3676,-1.4645,-1.592,-1.584,-1.5852,-1.6195,-1.6291,-1.634,-1.6413,-1.6413,-1.6413,-1.6413,-1.6413,-1.6413,-1.6413,-1.6413,-1.6413,-1.6413,-1.6413,-1.6413,-1.6423,-1.6748,-1.6955,-1.7058,-1.7874,-1.8268,-1.8445,-1.8849,-1.9046,-1.9108,-1.9108,-1.9108,-1.9108,-1.9108,-1.9108,-1.9108,-1.9108,-1.9108,-1.9108,-1.9108,-1.9108,-1.9108,-1.9108,-1.9108,-1.9108,-1.9108,-1.9108,-1.9108,-1.9108,-1.9409,-1.9699,-1.9699,-1.9699,-1.9824,-2.0245,-2.0338,-2.0493,-2.0984,-2.1114,-2.1269,-2.1725,-2.1807,-2.1807,-2.1807,-2.1807,-2.1807,-2.1807,-2.1807,-2.1807,-2.1807,-2.1807,-2.1807,-2.1807,-2.1807,-2.1807,-2.1807,-2.1807,-2.1807,-2.1807,-2.1807,-2.1807,-2.1807,-2.1807,-2.1807,-2.1807,-2.1807,-2.1807,-2.1797,-2.1393,-2.1176,-2.1114,-2.1114,-2.0819,-2.0385,-2.0385,-2.0627,-2.0814,-1.9668,-1.9644,-2.0245,-1.9482,-1.9492,-1.9865,-1.2199,-1.2012,-1.179,-1.137,-1.1301,-1.1301,-1.1301,-1.1494,-1.1628,-1.1569,-1.2108,-1.2749,-1.3387,-1.4647,-1.5607,-1.598,-1.6058,-1.6173,-1.6384,-1.6413,-1.6413,-1.6413,-1.6413,-1.6413,-1.6413,-1.6413,-1.6413,-1.6413,-1.6413,-1.6413,-1.6413,-1.6413,-1.6508,-1.6727,-1.6924,-1.7296,-1.7812,-1.8216,-1.8559,-1.8818,-1.9025,-1.9108,-1.9108,-1.9108,-1.9108,-1.9108,-1.9108,-1.9108,-1.9108,-1.9108,-1.9108,-1.9108,-1.9108,-1.9108,-1.9108,-1.9108,-1.9108,-1.9108,-1.9108,-1.9108,-1.9108,-1.9108,-1.945,-1.9865,-2.0069,-2.0327,-2.0576,-2.0736,-2.0803,-2.0912,-2.1414,-2.1497,-2.1569,-2.1776,-2.1807,-2.1807,-2.1807,-2.1807,-2.1807,-2.1807,-2.1807,-2.1807,-2.1807,-2.1807,-2.1807,-2.1807,-2.1807,-2.1807,-2.1807,-2.1807,-2.1807,-2.1807,-2.1807,-2.1807,-2.1807,-2.1807,-2.1807,-2.1807,-2.1807,-2.1807,-2.1797,-2.159,-2.1497,-2.1497,-2.1497,-2.1238,-2.0803,-2.0803,-2.0627,-2.0332,-1.973,-1.973,-1.9975,-1.9347,-1.9554,-2.0058]},{"header":{"parameterUnit":"m.s-1","parameterCategory":1,"la1":30.6,"la2":28.766,"lo1":-90.7593,"lo2":-88.6598,"dy":0.0162,"dx":0.0183,"nx":116,"ny":114,"refTime":"2023-04-03T18:00:00:Z","depth":0,"parameterNumber":3,"parameterNumberName":"V-component_of_WINDS"},"data":[0.0,0.0,0.0,0.0,0.0,0.0,0.0,0.0,0.0,0.0,0.0,0.0,0.0,0.0,0.0,0.0,0.0,0.0,0.0,0.0,0.0,0.0,0.0,0.0,0.0,0.0,0.0,0.0,0.0,0.0,0.0,0.0,0.0,0.0,0.0,0.0,0.0,0.0,0.0,0.0,0.0,0.0,0.0,0.0,0.0,0.0,0.0,0.0,0.0,0.0,0.0,0.0,0.0,0.0,0.0,0.0,0.0,0.0,0.0,0.0,0.0,0.0,0.0,0.0,0.0,0.0,0.0,0.0,0.0,0.0,0.0,0.0,0.0,0.0,0.0,0.0,0.0,0.0,0.0,0.0,0.0,0.0,0.0,0.0,0.0,0.0,0.0,0.0,0.0,0.0,0.0,0.0,0.0,0.0,0.0,0.0,0.0,0.0,0.0,0.0,0.0,0.0,0.0,0.0,0.0,0.0,0.0,0.0,0.0,0.0,0.0,0.0,0.0,0.0,0.0,0.0,0.0,0.0,0.0,0.0,0.0,0.0,0.0,0.0,0.0,0.0,0.0,0.0,0.0,0.0,0.0,0.0,0.0,0.0,0.0,0.0,0.0,0.0,0.0,0.0,0.0,0.0,0.0,0.0,0.0,0.0,0.0,0.0,0.0,0.0,0.0,0.0,0.0,0.0,0.0,0.0,0.0,0.0,0.0,0.0,0.0,0.0,0.0,0.0,0.0,0.0,0.0,0.0,0.0,0.0,0.0,0.0,0.0,0.0,0.0,0.0,0.0,0.0,0.0,0.0,0.0,0.0,0.0,0.0,0.0,0.0,0.0,0.0,0.0,0.0,0.0,0.0,0.0,0.0,0.0,0.0,0.0,0.0,0.0,0.0,0.0,0.0,0.0,0.0,0.0,0.0,0.0,0.0,0.0,0.0,0.0,0.0,0.0,0.0,0.0,0.0,0.0,0.0,0.0,0.0,0.0,0.0,0.0,0.0,0.0,0.0,0.0,0.0,0.0,0.0,0.0,0.0,0.0,0.0,0.0,0.0,0.0,0.0,0.0,0.0,0.0,0.0,0.0,0.0,0.0,0.0,0.0,0.0,0.0,0.0,0.0,0.0,0.0,0.0,0.0,0.0,0.0,0.0,0.0,0.0,0.0,0.0,0.0,0.0,0.0,0.0,0.0,0.0,0.0,0.0,0.0,0.0,0.0,0.0,0.0,0.0,0.0,0.0,0.0,0.0,0.0,0.0,0.0,0.0,0.0,0.0,0.0,0.0,0.0,0.0,0.0,0.0,0.0,0.0,0.0,0.0,0.0,0.0,0.0,0.0,0.0,0.0,0.0,0.0,0.0,0.0,0.0,0.0,0.0,0.0,0.0,0.0,0.0,0.0,0.0,0.0,0.0,0.0,0.0,0.0,0.0,0.0,0.0,0.0,0.0,0.0,0.0,0.0,0.0,0.0,0.0,0.0,0.0,0.0,0.0,0.0,0.0,0.0,0.0,0.0,0.0,0.0,0.0,0.0,0.0,0.0,0.0,0.0,0.0,0.0,0.0,0.0,0.0,0.0,0.0,0.0,0.0,0.0,0.0,0.0,0.0,0.0,0.0,0.0,0.0,0.0,0.0,0.0,0.0,0.0,0.0,0.0,0.0,0.0,0.0,0.0,0.0,0.0,0.0,0.0,0.0,0.0,0.0,0.0,0.0,0.0,0.0,0.0,0.0,0.0,0.0,0.0,0.0,0.0,0.0,0.0,0.0,0.0,0.0,0.0,0.0,0.0,0.0,0.0,0.0,0.0,0.0,0.0,0.0,0.0,0.0,0.0,0.0,0.0,0.0,0.0,0.0,0.0,0.0,0.0,0.0,0.0,0.0,0.0,0.0,0.0,0.0,0.0,0.0,0.0,0.0,0.0,0.0,0.0,0.0,0.0,0.0,0.0,0.0,0.0,0.0,0.0,0.0,0.0,0.0,0.0,0.0,0.0,0.0,0.0,0.0,0.0,0.0,0.0,0.0,0.0,0.0,0.0,0.0,0.0,0.0,0.0,0.0,0.0,0.0,0.0,0.0,0.0,0.0,0.0,0.0,0.0,0.0,0.0,0.0,0.0,0.0,0.0,0.0,0.0,0.0,0.0,0.0,0.0,0.0,0.0,0.0,0.0,0.0,0.0,0.0,0.0,0.0,0.0,0.0,0.0,0.0,0.0,0.0,0.0,0.0,0.0,0.0,0.0,0.0,0.0,0.0,0.0,0.0,0.0,0.0,0.0,0.0,0.0,0.0,0.0,0.0,0.0,0.0,0.0,0.0,0.0,0.0,0.0,0.0,0.0,0.0,0.0,0.0,0.0,0.0,0.0,0.0,0.0,0.0,0.0,0.0,0.0,0.0,0.0,0.0,0.0,0.0,0.0,0.0,0.0,0.0,0.0,0.0,0.0,0.0,0.0,0.0,0.0,0.0,0.0,0.0,0.0,0.0,0.0,0.0,0.0,0.0,0.0,0.0,0.0,0.0,0.0,0.0,0.0,0.0,0.0,0.0,0.0,0.0,0.0,0.0,0.0,0.0,0.0,0.0,0.0,0.0,0.0,0.0,0.0,0.0,0.0,0.0,0.0,0.0,0.0,0.0,0.0,0.0,0.0,0.0,0.0,0.0,0.0,0.0,0.0,0.0,0.0,0.0,0.0,0.0,0.0,0.0,0.0,0.0,0.0,0.0,0.0,0.0,0.0,0.0,0.0,0.0,0.0,0.0,0.0,0.0,0.0,0.0,0.0,0.0,0.0,0.0,0.0,0.0,0.0,0.0,0.0,0.0,0.0,0.0,0.0,0.0,0.0,0.0,0.0,0.0,0.0,0.0,0.0,0.0,0.0,0.0,0.0,0.0,0.0,0.0,0.0,0.0,0.0,0.0,0.0,0.0,0.0,0.0,0.0,0.0,0.0,0.0,0.0,0.0,0.0,0.0,0.0,0.0,0.0,0.0,0.0,0.0,0.0,0.0,0.0,0.0,0.0,0.0,0.0,0.0,0.0,0.0,0.0,0.0,0.0,0.0,0.0,0.0,0.0,0.0,0.0,0.0,0.0,0.0,0.0,0.0,0.0,0.0,0.0,0.0,0.0,0.0,0.0,0.0,0.0,0.0,0.0,0.0,0.0,0.0,0.0,0.0,0.0,0.0,0.0,0.0,0.0,0.0,0.0,0.0,0.0,0.0,0.0,0.0,0.0,0.0,0.0,0.0,0.0,0.0,0.0,0.0,0.0,0.0,0.0,0.0,0.0,0.0,0.0,0.0,0.0,0.0,0.0,0.0,0.0,0.0,0.0,0.0,0.0,0.0,0.0,0.0,0.0,0.0,0.0,0.0,0.0,0.0,0.0,0.0,0.0,0.0,0.0,0.0,0.0,0.0,0.0,0.0,0.0,0.0,0.0,0.0,0.0,0.0,0.0,0.0,0.0,0.0,0.0,0.0,0.0,0.0,0.0,0.0,0.0,0.0,0.0,0.0,0.0,0.0,0.0,0.0,0.0,0.0,0.0,0.0,0.0,0.0,0.0,0.0,0.0,0.0,0.0,0.0,0.0,0.0,0.0,0.0,0.0,0.0,0.0,0.0,0.0,0.0,0.0,0.0,0.0,0.0,0.0,0.0,0.0,0.0,0.0,0.0,0.0,0.0,0.0,0.0,0.0,0.0,0.0,0.0,0.0,0.0,0.0,0.0,0.0,0.0,0.0,0.0,0.0,0.0,0.0,0.0,0.0,0.0,0.0,0.0,0.0,0.0,0.0,0.0,0.0,0.0,0.0,0.0,0.0,0.0,0.0,0.0,0.0,0.0,0.0,0.0,0.0,0.0,0.0,0.0,0.0,0.0,0.0,0.0,0.0,0.0,0.0,0.0,0.0,0.0,0.0,0.0,0.0,0.0,0.0,0.0,0.0,0.0,0.0,0.0,0.0,0.0,0.0,0.0,0.0,0.0,0.0,0.0,0.0,0.0,0.0,0.0,0.0,0.0,0.0,0.0,0.0,0.0,0.0,0.0,0.0,0.0,0.0,0.0,0.0,0.0,0.0,0.0,0.0,0.0,0.0,0.0,0.0,0.0,0.0,0.0,0.0,0.0,0.0,0.0,0.0,0.0,0.0,0.0,0.0,0.0,0.0,0.0,0.0,0.0,0.0,0.0,0.0,0.0,0.0,0.0,0.0,0.0,0.0,0.0,0.0,0.0,0.0,0.0,0.0,0.0,0.0,0.0,0.0,0.0,0.0,0.0,0.0,0.0,0.0,0.0,0.0,0.0,0.0,0.0,0.0,0.0,0.0,0.0,0.0,0.0,0.0,0.0,0.0,0.0,0.0,0.0,0.0,0.0,0.0,0.0,0.0,0.0,0.0,0.0,0.0,0.0,0.0,0.0,0.0,0.0,0.0,0.0,0.0,0.0,0.0,0.0,0.0,0.0,0.0,0.0,0.0,0.0,0.0,0.0,0.0,0.0,0.0,0.0,0.0,0.0,0.0,0.0,0.0,0.0,0.0,0.0,0.0,0.0,0.0,0.0,0.0,0.0,0.0,0.0,0.0,0.0,0.0,0.0,0.0,0.0,0.0,0.0,0.0,0.0,0.0,0.0,0.0,0.0,0.0,0.0,0.0,0.0,0.0,0.0,0.0,0.0,0.0,0.0,0.0,0.0,0.0,0.0,0.0,0.0,0.0,0.0,0.0,0.0,0.0,0.0,0.0,0.0,0.0,0.0,0.0,0.0,0.0,0.0,0.0,0.0,0.0,0.0,0.0,0.0,0.0,0.0,0.0,0.0,0.0,0.0,0.0,0.0,0.0,0.0,0.0,0.0,0.0,0.0,0.0,0.0,0.0,0.0,0.0,0.0,0.0,0.0,0.0,0.0,0.0,0.0,0.0,0.0,0.0,0.0,0.0,0.0,0.0,0.0,0.0,0.0,0.0,0.0,0.0,0.0,0.0,0.0,0.0,0.0,0.0,0.0,0.0,0.0,0.0,0.0,0.0,0.0,0.0,0.0,0.0,0.0,0.0,0.0,0.0,0.0,0.0,0.0,0.0,0.0,0.0,0.0,0.0,0.0,0.0,0.0,0.0,0.0,0.0,0.0,0.0,0.0,0.0,0.0,0.0,0.0,0.0,0.0,0.0,0.0,0.0,0.0,0.0,0.0,0.0,0.0,0.0,0.0,0.0,0.0,0.0,0.0,0.0,0.0,0.0,0.0,0.0,0.0,0.0,0.0,0.0,0.0,0.0,0.0,0.0,0.0,0.0,0.0,0.0,0.0,0.0,0.0,0.0,0.0,0.0,0.0,0.0,0.0,0.0,0.0,0.0,0.0,0.0,0.0,0.0,0.0,0.0,0.0,0.0,0.0,0.0,0.0,0.0,0.0,0.0,0.0,0.0,0.0,0.0,0.0,0.0,0.0,0.0,0.0,0.0,0.0,0.0,0.0,0.0,0.0,0.0,0.0,0.0,0.0,0.0,0.0,0.0,0.0,0.0,0.0,0.0,0.0,0.0,0.0,0.0,0.0,0.0,0.0,0.0,0.0,0.0,0.0,0.0,0.0,0.0,0.0,0.0,0.0,0.0,0.0,0.0,0.0,0.0,0.0,0.0,0.0,0.0,0.0,0.0,0.0,0.0,0.0,0.0,0.0,0.0,0.0,0.0,0.0,0.0,0.0,0.0,0.0,0.0,0.0,0.0,0.0,0.0,0.0,0.0,0.0,0.0,0.0,0.0,0.0,0.0,0.0,0.0,0.0,0.0,0.0,0.0,0.0,0.0,0.0,0.0,0.0,0.0,0.0,0.0,0.0,0.0,0.0,0.0,0.0,0.0,0.0,0.0,0.0,0.0,0.0,0.0,0.0,0.0,0.0,0.0,0.0,0.0,0.0,0.0,0.0,0.0,0.0,0.0,0.0,0.0,0.0,0.0,0.0,0.0,0.0,0.0,0.0,0.0,0.0,0.0,0.0,0.0,0.0,0.0,0.0,0.0,0.0,0.0,0.0,0.0,0.0,0.0,0.0,0.0,0.0,0.0,0.0,0.0,0.0,0.0,0.0,0.0,0.0,0.0,0.0,0.0,0.0,0.0,0.0,0.0,2.0247,2.0458,0.0,0.0,0.0,0.0,0.0,0.0,0.0,0.0,0.0,0.0,0.0,0.0,0.0,0.0,0.0,0.0,0.0,0.0,0.0,0.0,0.0,0.0,0.0,0.0,0.0,0.0,0.0,0.0,0.0,0.0,0.0,0.0,0.0,0.0,0.0,0.0,0.0,2.1024,2.1024,2.1217,2.1604,2.1604,2.1604,2.1601,0.0,0.0,0.0,0.0,0.0,0.0,0.0,0.0,0.0,0.0,0.0,0.0,0.0,0.0,0.0,0.0,0.0,0.0,0.0,0.0,0.0,0.0,0.0,0.0,0.0,0.0,0.0,0.0,0.0,0.0,0.0,0.0,0.0,0.0,0.0,0.0,0.0,0.0,0.0,0.0,0.0,0.0,0.0,0.0,0.0,0.0,0.0,0.0,0.0,0.0,0.0,0.0,0.0,0.0,0.0,0.0,0.0,0.0,0.0,0.0,0.0,0.0,0.0,0.0,0.0,0.0,0.0,0.0,0.0,0.0,2.1143,2.1061,0.0,0.0,0.0,0.0,0.0,0.0,0.0,0.0,0.0,0.0,0.0,0.0,0.0,0.0,0.0,0.0,0.0,0.0,0.0,0.0,0.0,0.0,0.0,2.4936,2.45,2.4227,2.4842,2.4609,0.0,0.0,0.0,0.0,0.0,0.0,0.0,2.0411,2.084,2.1725,2.1868,2.2346,2.3137,2.3123,2.3287,2.3538,2.3097,0.0,0.0,0.0,0.0,0.0,0.0,0.0,0.0,0.0,0.0,0.0,0.0,0.0,0.0,0.0,0.0,0.0,0.0,0.0,0.0,0.0,0.0,0.0,0.0,0.0,0.0,0.0,0.0,0.0,0.0,0.0,0.0,0.0,0.0,0.0,0.0,0.0,0.0,0.0,0.0,0.0,0.0,0.0,0.0,0.0,0.0,0.0,0.0,0.0,0.0,0.0,0.0,0.0,0.0,0.0,0.0,0.0,0.0,0.0,0.0,0.0,0.0,0.0,2.2485,2.2387,2.2177,2.2116,2.2354,2.2753,2.2552,2.2198,2.1808,2.2296,0.0,0.0,0.0,0.0,0.0,0.0,0.0,0.0,0.0,0.0,0.0,0.0,0.0,0.0,0.0,0.0,0.0,0.0,0.0,0.0,0.0,2.5132,2.4941,2.3496,2.3418,2.3047,2.2129,0.0,0.0,0.0,0.0,0.0,2.0494,2.0492,2.0901,2.1795,2.2496,2.3268,2.4116,2.4054,2.4815,2.6107,2.3886,2.3325,2.3921,0.0,0.0,0.0,0.0,0.0,0.0,0.0,0.0,0.0,0.0,0.0,0.0,0.0,0.0,0.0,0.0,0.0,0.0,0.0,0.0,0.0,0.0,0.0,0.0,0.0,0.0,0.0,0.0,0.0,0.0,0.0,0.0,0.0,0.0,0.0,0.0,0.0,0.0,0.0,0.0,0.0,2.1674,2.2323,0.0,0.0,0.0,0.0,0.0,0.0,0.0,0.0,0.0,0.0,0.0,0.0,0.0,2.2093,2.2296,2.2553,2.2733,2.2833,2.3161,2.3473,2.3701,2.3408,2.3621,2.4233,2.4547,0.0,2.3603,2.3057,0.0,0.0,0.0,0.0,0.0,0.0,0.0,0.0,0.0,0.0,0.0,0.0,0.0,0.0,0.0,0.0,0.0,0.0,0.0,0.0,0.0,2.4745,2.4668,2.3945,2.3847,2.328,2.1972,2.1543,0.0,0.0,0.0,2.0507,2.05,2.0989,2.1887,2.3212,2.4003,2.4594,2.498,2.4948,2.5314,2.599,2.5333,2.5256,2.5522,2.4197,0.0,0.0,0.0,0.0,0.0,0.0,0.0,0.0,0.0,0.0,0.0,0.0,0.0,0.0,0.0,0.0,0.0,0.0,0.0,0.0,0.0,0.0,0.0,0.0,0.0,0.0,0.0,0.0,0.0,0.0,0.0,0.0,0.0,0.0,0.0,0.0,0.0,0.0,0.0,2.104,2.1518,2.2268,2.0957,2.0002,0.0,0.0,0.0,0.0,0.0,0.0,0.0,0.0,0.0,2.1786,2.2141,2.2499,2.2919,2.3493,2.38,2.3801,2.3978,2.4145,2.4288,2.4145,2.4459,2.5135,2.5294,2.543,2.5463,2.4725,2.403,2.3359,0.0,0.0,0.0,0.0,2.2919,2.2987,0.0,0.0,0.0,0.0,0.0,0.0,0.0,0.0,0.0,0.0,0.0,0.0,2.3984,2.4277,2.4393,2.4393,2.4197,2.3455,2.1991,2.1698,2.125,2.0536,2.0519,2.0514,2.0492,2.1573,2.2845,2.4326,2.5143,2.5539,2.5524,2.5748,2.5937,2.6188,2.6996,2.7112,2.6644,2.5723,2.4529,2.3097,0.0,0.0,0.0,0.0,0.0,0.0,0.0,0.0,0.0,0.0,0.0,0.0,0.0,0.0,0.0,0.0,0.0,0.0,0.0,0.0,0.0,0.0,0.0,0.0,0.0,0.0,0.0,0.0,0.0,0.0,0.0,0.0,0.0,0.0,0.0,0.0,0.0,2.0889,2.116,2.1938,2.0826,1.993,0.0,0.0,0.0,0.0,0.0,0.0,2.1123,2.0991,2.14,2.2547,2.2767,2.3122,2.3678,2.4423,2.4778,2.4778,2.4965,2.5066,2.5066,2.5066,2.5371,2.5879,2.5879,2.6082,2.637,2.5828,2.4949,2.3934,2.3763,2.3678,2.3678,2.3678,2.3678,2.3763,0.0,0.0,0.0,0.0,0.0,0.0,0.0,0.0,0.0,0.0,0.0,2.2265,2.3085,2.3904,2.4391,2.4391,2.3649,2.281,2.1952,2.1132,2.0625,2.0497,2.0565,2.0565,2.0495,2.2166,2.3476,2.4394,2.5264,2.5651,2.5617,2.6376,2.7147,2.7914,2.8784,2.8257,2.6644,2.5832,2.5352,2.4923,2.2251,0.0,0.0,0.0,0.0,0.0,0.0,0.0,0.0,0.0,0.0,0.0,0.0,0.0,0.0,0.0,0.0,0.0,0.0,0.0,0.0,0.0,0.0,0.0,0.0,0.0,0.0,0.0,0.0,0.0,0.0,0.0,0.0,0.0,0.0,0.0,0.0,0.0,0.0,2.1156,2.0504,0.0,0.0,0.0,0.0,1.8843,1.9541,2.0302,2.1156,2.2479,2.3257,2.3342,2.4017,2.4406,2.444,2.5169,2.5541,2.5542,2.6251,2.6589,2.6589,2.6589,2.6607,2.664,2.664,2.6268,2.5643,2.5625,2.5558,2.5423,2.4728,2.444,2.444,2.444,2.444,2.444,0.0,0.0,0.0,0.0,0.0,0.0,0.0,0.0,2.1055,2.1054,2.1991,2.2772,2.3064,2.439,2.5247,2.5247,2.3937,2.298,2.269,2.1364,2.0585,2.0566,2.1113,2.1933,2.2987,2.3613,2.4648,2.6074,2.6341,2.6758,2.7276,2.7515,2.7786,2.8089,2.8926,2.8644,2.7542,2.7832,2.6929,2.5197,2.4088,2.2093,0.0,0.0,0.0,0.0,0.0,0.0,0.0,0.0,0.0,0.0,0.0,0.0,0.0,0.0,0.0,0.0,0.0,0.0,0.0,0.0,0.0,0.0,0.0,0.0,0.0,0.0,0.0,0.0,0.0,0.0,0.0,0.0,0.0,0.0,0.0,0.0,0.0,2.1769,2.1245,0.0,2.0412,1.9672,1.9744,2.0991,2.1333,2.2009,2.3255,2.3814,2.4118,2.4118,2.4814,2.5203,2.5203,2.593,2.6302,2.6302,2.6573,2.6691,2.6691,2.6691,2.6674,2.664,2.664,2.6472,2.6185,2.6236,2.5982,2.5575,2.5321,2.5203,2.5152,2.4677,2.4491,2.4491,0.0,0.0,0.0,0.0,0.0,0.0,0.0,0.0,2.0605,2.0605,2.1815,2.2791,2.3062,2.4386,2.5262,2.5262,2.4205,2.3309,2.2728,2.1655,2.0915,2.0605,2.1426,2.2676,2.4355,2.4687,2.5547,2.6992,2.7243,2.7667,2.8207,2.8455,2.8716,2.8984,2.9804,3.001,2.9747,3.0017,2.8613,2.6145,2.5373,2.3705,2.1567,0.0,0.0,0.0,0.0,0.0,0.0,0.0,0.0,0.0,0.0,0.0,0.0,0.0,0.0,0.0,0.0,0.0,0.0,0.0,0.0,0.0,0.0,0.0,0.0,0.0,0.0,0.0,0.0,0.0,0.0,0.0,0.0,0.0,0.0,2.0623,2.1248,2.2516,2.2243,2.185,2.1597,2.1079,2.1299,2.2581,2.2682,2.3207,2.4423,2.4745,2.488,2.488,2.5592,2.5981,2.5981,2.6454,2.6691,2.6691,2.6945,2.708,2.708,2.7351,2.7299,2.6994,2.6994,2.6959,2.689,2.6707,2.6657,2.6641,2.6167,2.5981,2.5913,2.5422,2.5405,2.5591,0.0,0.0,0.0,0.0,0.0,0.0,0.0,2.0605,2.0605,2.0644,2.1404,2.2241,2.3058,2.3893,2.4397,2.4397,2.4358,2.3621,2.2007,2.1871,2.1502,2.0703,2.1543,2.2793,2.4453,2.5332,2.6211,2.707,2.793,2.8338,2.8346,2.9181,2.9983,3.0713,3.1564,3.2367,3.3049,3.2198,3.0424,2.7997,2.6097,2.5302,2.5061,0.0,0.0,0.0,0.0,0.0,0.0,0.0,0.0,0.0,0.0,0.0,0.0,0.0,0.0,0.0,0.0,0.0,0.0,0.0,0.0,0.0,0.0,0.0,0.0,0.0,0.0,0.0,0.0,0.0,0.0,0.0,0.0,0.0,2.1123,2.187,2.2615,2.3342,2.3427,2.3156,2.2431,2.2364,2.2668,2.341,2.346,2.3782,2.4525,2.5253,2.5626,2.5626,2.6336,2.6691,2.6691,2.6708,2.6708,2.6708,2.7469,2.7824,2.7824,2.8619,2.8569,2.7823,2.7823,2.7788,2.7666,2.7029,2.7568,2.8676,2.7282,2.6742,2.6759,2.6759,2.7232,2.7739,0.0,0.0,0.0,0.0,0.0,0.0,0.0,2.0605,2.084,2.1463,2.2262,2.308,2.3952,2.4262,2.4397,2.4397,2.3285,2.2389,2.1927,2.1303,2.1385,2.2363,2.3848,2.5176,2.6269,2.7148,2.8008,2.8887,2.9121,2.9883,3.1092,3.1298,3.1794,3.2575,3.2759,3.2934,3.3082,3.2835,3.2341,3.1481,2.8967,2.6856,2.5064,0.0,0.0,0.0,0.0,0.0,0.0,0.0,0.0,0.0,0.0,0.0,0.0,0.0,0.0,0.0,0.0,0.0,0.0,0.0,0.0,0.0,0.0,0.0,0.0,0.0,0.0,0.0,0.0,0.0,0.0,0.0,2.0809,2.1738,2.1972,2.2632,2.3359,2.4118,2.4203,2.4118,2.3915,2.3898,2.4188,2.4949,2.5,2.5321,2.6065,2.6285,2.6404,2.6404,2.659,2.6691,2.6691,2.7232,2.7232,2.6708,2.8027,2.8366,2.7824,2.8619,2.882,2.8526,2.8526,2.8434,2.8269,2.8253,2.8422,2.8652,2.7822,2.7858,2.8367,2.8367,2.8502,2.8636,0.0,0.0,0.0,0.0,0.0,0.0,0.0,2.0605,2.0918,2.1794,2.2594,2.3295,2.3794,2.4183,2.4241,2.3891,2.2956,2.2256,2.1927,2.1423,2.1738,2.3047,2.4766,2.6113,2.6973,2.8203,2.9277,3.0137,3.0508,3.1387,3.2695,3.2653,3.3062,3.384,3.3806,3.3942,3.4151,3.3776,3.36,3.3409,3.1068,2.9239,2.7712,2.5848,2.5057,2.47,2.2912,2.2527,2.2763,2.2082,0.0,0.0,0.0,0.0,0.0,0.0,0.0,0.0,0.0,0.0,0.0,0.0,0.0,0.0,0.0,0.0,0.0,0.0,0.0,0.0,0.0,0.0,0.0,0.0,2.2243,2.3325,2.3632,2.4052,2.4594,2.5337,2.5422,2.5422,2.5422,2.5422,2.5608,2.6031,2.6065,2.6251,2.6674,2.6691,2.6691,2.6691,2.6691,2.6826,2.7113,2.757,2.7722,2.7585,2.8855,2.9228,2.8787,2.9567,2.9698,2.9355,2.9355,2.9244,2.9078,2.8945,2.9181,2.9578,0.0,0.0,0.0,0.0,2.9281,2.9044,0.0,0.0,0.0,0.0,0.0,0.0,0.0,2.0683,2.1055,2.1912,2.2731,2.3276,2.3385,2.391,2.3988,2.3306,2.2978,2.2513,2.1794,2.2109,2.2559,2.3086,2.5059,2.6465,2.7129,2.8945,3.0273,3.1055,3.1816,3.2656,3.3535,3.3457,3.3875,3.4734,3.4734,3.5084,3.5621,3.4801,3.4444,3.4274,3.2548,3.1779,3.1409,2.862,2.7994,2.8245,2.5446,2.4395,2.4109,2.2583,0.0,0.0,0.0,0.0,0.0,0.0,0.0,0.0,0.0,0.0,0.0,0.0,0.0,0.0,0.0,0.0,0.0,0.0,0.0,0.0,0.0,0.0,0.0,0.0,2.3782,2.5049,2.5879,2.5964,2.615,2.664,2.6776,2.6793,2.6708,2.6691,2.6691,2.6674,2.6776,2.6826,2.681,2.6911,0.0,0.0,0.0,2.7181,2.77,2.7905,2.8242,2.8693,2.973,3.0173,3.0106,3.0869,3.0835,3.0207,3.0207,3.0133,2.9972,2.9443,2.993,3.0878,2.9679,2.9228,2.9313,2.9935,2.9766,2.9311,0.0,0.0,0.0,0.0,0.0,0.0,0.0,2.1151,2.1933,2.2753,2.3613,2.4428,2.5122,2.4087,2.3579,2.4105,2.2275,2.1011,2.0858,2.3437,2.4414,2.3144,2.6797,2.8594,2.8066,3.0449,3.1777,3.1953,3.2129,3.2969,3.4434,3.373,3.4187,3.5577,3.5577,3.5589,3.5612,3.5429,3.5315,3.5111,3.3378,3.2282,3.1469,2.9272,2.8514,2.8302,2.6134,2.53,2.5094,2.4091,2.33,2.263,2.1812,2.0976,0.0,0.0,0.0,0.0,0.0,0.0,0.0,0.0,0.0,0.0,0.0,0.0,0.0,0.0,0.0,0.0,0.0,0.0,0.0,2.3831,2.532,2.6776,2.8147,2.8243,2.7803,2.6826,2.7232,2.735,2.6759,2.6691,2.6674,2.6623,2.7215,2.757,2.7516,2.8161,2.8517,2.8408,2.8391,2.8172,2.77,2.8787,2.8873,2.8008,2.9909,0.0,2.9977,3.0813,3.1047,3.0833,3.0833,3.0774,3.0697,3.0583,3.07,3.0898,3.0693,3.0614,3.0631,3.0703,3.065,3.0549,0.0,0.0,0.0,0.0,0.0,0.0,0.0,2.0901,2.1651,2.2926,2.3105,2.3437,2.4309,2.3254,2.265,2.3064,2.2324,2.168,2.1229,2.4023,2.5312,2.4434,2.7734,2.9394,2.8965,3.1094,3.2402,3.2793,3.3242,3.4101,3.5332,3.4902,3.5087,3.5791,3.5791,3.5722,3.5601,3.559,3.5309,3.4732,3.3429,3.2429,3.1514,2.989,2.9204,2.8894,2.6879,2.6118,2.5864,2.4614,2.419,2.4061,2.3263,2.2839,2.2123,0.0,0.0,0.0,0.0,0.0,0.0,0.0,0.0,0.0,0.0,0.0,0.0,0.0,0.0,2.094,2.2057,0.0,2.4426,2.5913,2.7097,2.813,2.8891,2.9259,2.9055,2.7977,2.8109,2.8176,2.7875,2.7789,2.7585,2.7231,2.7818,2.7919,2.7231,2.7869,2.8087,2.7716,2.7663,2.7627,2.7557,2.8276,2.8701,2.8809,2.9897,3.0457,3.0555,3.0903,3.1032,3.0995,3.0955,3.0932,3.0892,3.0892,3.0892,3.0892,3.0855,3.0895,3.0952,3.0912,3.0892,3.0892,0.0,0.0,0.0,0.0,0.0,0.0,0.0,2.0632,2.1252,2.2642,2.2374,2.2322,2.3008,2.2362,2.1797,2.1577,2.2648,2.2956,2.2091,2.4641,2.611,2.5934,2.8592,3.0019,2.9843,3.1719,3.3008,3.3652,3.4355,3.5156,3.5996,3.58,3.5746,3.5791,3.5797,3.5702,3.5595,3.5584,3.5142,3.4353,3.3327,3.2487,3.1699,3.0147,2.9502,2.9228,2.7378,2.6462,2.5952,2.463,2.453,2.486,2.4345,2.4472,2.4249,2.1342,2.03,0.0,0.0,0.0,0.0,0.0,0.0,0.0,0.0,1.9273,2.006,2.1542,2.1952,2.2595,2.4389,2.5321,2.6302,2.779,2.8551,2.9076,2.9382,2.9882,2.9964,2.9261,2.9085,2.8998,2.8937,2.8864,2.8558,2.8024,2.8384,2.8181,2.7147,2.7494,2.749,2.6991,2.6921,2.705,2.7411,2.7768,2.8576,2.9783,2.9914,3.0513,3.1513,3.1086,3.0979,3.1137,3.0942,3.0851,3.0831,3.0831,3.0831,3.0794,3.0692,3.0733,3.0831,3.0831,3.0914,3.1031,0.0,0.0,0.0,0.0,0.0,0.0,0.0,0.0,2.1706,2.1846,2.2497,2.2961,2.3012,2.23,2.1498,2.0711,2.2798,2.3806,2.2929,2.6036,2.7577,2.679,3.001,3.147,3.0688,3.3123,3.4453,3.4551,3.4648,3.5156,3.5976,3.5147,3.5137,3.5808,3.5749,3.5669,3.5598,3.5547,3.5451,3.5218,3.3564,3.2748,3.2226,2.962,2.8634,2.8462,2.7174,2.5737,2.4447,2.4263,2.3786,2.3373,2.393,2.4139,2.3689,2.117,2.0255,1.957,1.7125,1.6677,1.7166,1.828,1.8601,1.9379,0.0,2.2344,2.2344,2.3831,2.4644,2.5186,2.5439,2.6082,2.708,2.862,2.8834,2.9319,3.0751,3.0767,3.043,2.9871,2.9789,2.9479,2.8712,2.8736,2.874,2.8617,2.8721,2.8688,2.85,2.8513,2.8473,2.8296,2.8277,2.7994,2.7411,2.8597,2.937,2.973,3.0319,3.1329,3.2667,3.1453,3.1199,3.1662,3.0995,3.0651,3.0531,3.0531,3.0531,3.0547,3.0526,3.0531,3.0531,3.0531,3.0962,3.1426,0.0,0.0,0.0,0.0,0.0,0.0,0.0,0.0,0.0,2.1643,2.1595,2.1734,2.2251,2.1504,2.0847,2.0472,2.2345,2.3394,2.3011,2.6269,2.8033,2.768,3.0468,3.1863,3.1512,3.3537,3.4578,3.4578,3.5087,3.5536,3.5889,3.5481,3.5457,3.5733,3.5704,3.5644,3.5547,3.5515,3.4918,3.3916,3.3186,3.1889,3.0144,2.7892,2.6674,2.6093,2.5476,2.4768,0.0,2.3107,2.2841,2.2859,2.274,2.2676,2.2356,2.0843,1.9673,1.8594,1.7311,1.7617,1.848,1.9331,2.02,2.1329,2.3004,2.3477,2.3985,2.5489,2.6015,2.6624,2.7872,2.806,2.8347,2.9316,2.9448,2.9669,3.0306,3.0255,3.0059,2.9764,2.9345,2.9145,2.9278,2.9278,2.9111,2.873,2.897,2.8634,2.7491,2.7716,2.7877,2.7861,2.7821,2.7869,2.7985,2.8525,2.9098,2.9635,2.9852,3.0571,3.1713,3.0995,3.0796,3.1037,3.0721,3.0568,3.0506,3.0506,3.0506,3.0506,3.0506,3.0754,3.1085,3.0654,3.0688,3.0919,0.0,0.0,0.0,0.0,0.0,0.0,0.0,0.0,0.0,0.0,2.0784,2.0668,2.1344,2.0819,2.0395,2.0395,2.1779,2.2849,2.3293,2.5915,2.776,2.8477,3.052,3.1757,3.1969,3.366,3.4522,3.4522,3.5377,3.5805,3.5805,3.5762,3.5714,3.5654,3.5408,3.5229,3.5123,3.4873,3.4045,3.2852,3.2338,3.0772,2.8495,2.639,2.481,2.3675,2.3299,2.3015,2.2566,2.1209,2.1065,2.1379,2.0848,2.0803,2.0787,1.9943,1.8736,1.7641,1.7602,1.8436,1.9556,2.0654,2.1924,2.3207,2.4357,2.488,2.5472,2.6742,2.6995,2.7451,2.9016,2.8935,2.8832,2.946,2.9542,2.9506,2.952,2.961,2.9518,2.9062,2.8508,2.8408,2.9054,2.9215,2.9115,2.8674,2.8755,2.8237,2.6835,2.6909,2.7101,2.7358,2.7336,2.7647,2.8392,2.8591,2.9059,2.9852,2.9755,3.0294,3.1375,3.097,3.0688,3.0506,3.0506,3.0506,3.0506,3.0506,3.0506,3.0506,3.0506,3.0837,3.1234,3.0704,3.0621,3.077,0.0,0.0,0.0,0.0,0.0,0.0,0.0,0.0,0.0,0.0,0.0,0.0,0.0,2.0427,2.0405,2.0405,2.1224,2.2427,2.4064,2.5051,2.668,2.9156,3.0206,3.1103,3.1893,3.3668,3.4591,3.4591,3.5391,3.581,3.5807,3.567,3.5592,3.5563,3.4662,3.4243,3.4173,3.3333,3.2954,3.273,3.0918,2.9502,2.8223,2.556,2.3398,2.1676,2.0881,2.0104,1.9301,1.8426,1.8126,1.8136,1.8109,1.8658,1.9097,1.8231,1.7382,1.6982,1.8057,1.8927,2.0102,2.266,2.3881,2.4998,2.7164,2.7131,2.6843,2.7604,2.772,2.7719,2.784,2.7734,2.795,2.8872,2.8749,2.86,2.8807,2.9162,2.8942,2.7609,2.7387,2.735,2.7367,2.8071,2.8524,2.8527,2.7861,2.7426,2.7378,2.6655,2.6568,2.7284,2.7298,2.7647,2.8392,2.9036,2.9728,3.0456,3.0472,3.1239,3.2619,3.1901,3.1184,3.0506,3.0506,3.0506,3.0506,3.0506,3.0506,3.0506,3.0506,3.0506,3.0522,3.0506,3.0952,3.1466,0.0,0.0,0.0,0.0,0.0,0.0,0.0,0.0,0.0,0.0,0.0,0.0,0.0,0.0,0.0,0.0,2.1125,2.2114,2.325,2.4652,2.6071,2.752,2.8984,2.9904,3.0171,3.1297,3.1887,3.1887,3.2733,3.3146,3.3165,3.3654,3.3873,3.387,3.3505,3.334,3.3314,3.2986,3.2417,3.1611,2.993,2.8179,2.6234,2.3204,2.1203,1.9797,0.0,1.7767,1.8315,1.749,1.7526,1.7936,1.7998,1.7783,1.7278,1.5907,1.7054,1.8688,1.84,2.0633,2.3302,2.4552,2.5795,2.6877,2.7638,2.7604,2.7503,2.7756,2.7012,2.6438,2.6858,2.6538,2.6252,2.6399,2.7179,2.7777,2.7796,2.7919,2.7829,2.7385,2.6868,2.6568,2.6568,2.7267,2.7701,2.7701,2.7468,2.7337,2.7337,2.7085,2.7462,2.8655,2.8688,2.9052,2.9798,3.0009,3.0241,3.0506,3.0506,3.0754,3.1239,3.0986,3.0737,3.0506,3.0506,3.0506,3.0506,3.0506,3.0506,3.0506,3.0506,3.0506,3.0506,3.0506,3.0654,3.0837,0.0,0.0,0.0,0.0,0.0,0.0,0.0,0.0,0.0,0.0,0.0,0.0,0.0,0.0,0.0,0.0,0.0,2.1513,2.2381,2.3435,2.4698,2.6161,2.7009,2.7733,2.8351,2.8883,2.9284,2.9612,3.0471,3.1014,3.1303,3.1505,3.1603,3.16,3.1237,3.1078,3.1053,3.0656,3.0068,2.9262,2.749,2.5783,2.4011,2.1581,1.9879,0.0,1.6685,1.6671,1.7362,1.6267,1.6221,1.6613,1.6653,1.6283,1.5675,1.486,1.6487,1.8661,1.9189,2.179,2.475,2.6353,2.7485,2.8297,2.8568,2.8196,2.7722,2.7452,2.6421,2.5611,2.5765,2.5346,2.4878,2.4513,2.5446,2.6176,2.6157,2.6372,2.6702,2.7232,2.6884,2.6584,2.6584,2.7017,2.7182,2.6934,2.7398,2.758,2.7298,2.7779,2.8472,2.9363,2.9397,2.9744,3.0489,3.0506,3.0506,3.0506,3.0506,3.0506,3.0506,3.0506,3.0506,3.0506,3.0506,3.0506,3.0506,3.0506,3.0506,3.0506,3.0506,3.0506,3.0506,3.0506,3.0506,3.0506,0.0,0.0,0.0,0.0,0.0,0.0,0.0,0.0,0.0,0.0,0.0,0.0,0.0,0.0,0.0,0.0,0.0,0.0,2.1525,2.1606,2.2705,2.5155,2.4484,2.4812,2.6471,2.65,2.691,2.774,2.8535,2.9329,3.0062,2.9278,2.889,2.8865,2.803,2.7648,2.7579,2.6619,2.6166,2.5927,2.3928,2.2627,2.1774,2.0724,1.9358,1.7892,1.7129,1.678,1.6461,1.492,1.4401,1.4394,1.4431,0.0,0.0,0.0,1.6002,1.736,2.0511,2.2613,2.4711,2.804,2.8952,2.9211,2.9888,2.8855,2.7536,2.6793,2.5949,2.5141,2.4509,2.4205,2.3878,2.3362,2.3746,2.4133,2.4198,2.4829,2.5789,2.7182,2.7381,2.7398,2.7398,2.7365,2.7066,2.6367,2.7561,2.8061,2.7431,2.8671,2.9413,2.9446,2.9446,2.9777,3.0489,3.0506,3.0506,3.0506,3.0506,3.0506,3.0506,3.0506,3.0506,3.0506,3.0506,3.0506,3.0506,3.0506,3.0506,3.0506,3.0506,3.0506,3.0506,3.0506,3.0506,3.0506,0.0,0.0,0.0,0.0,0.0,0.0,0.0,0.0,0.0,0.0,0.0,0.0,0.0,0.0,0.0,0.0,0.0,0.0,2.1392,2.1543,2.2165,2.3418,2.3299,2.3404,2.3867,2.3816,2.3904,2.4135,2.498,2.5476,2.5635,2.6067,2.6211,2.6107,2.5836,2.5653,2.5536,2.5244,2.4982,2.4638,2.2928,2.2005,2.1505,1.9994,1.8808,1.7881,1.7513,1.6974,1.6344,1.5926,0.0,0.0,0.0,1.5958,1.5854,0.0,0.0,2.1816,2.3219,2.5831,2.837,2.9366,2.9637,2.961,2.9347,2.806,2.6708,2.5966,2.4333,2.2956,2.2755,2.3053,2.3294,2.3109,2.4531,2.5657,2.5658,2.6752,2.7696,2.8078,2.8555,2.887,2.887,2.8426,2.8044,2.7862,2.768,2.7961,2.882,2.9198,2.9645,3.0191,3.0208,3.0307,3.0506,3.0506,3.0506,3.0506,3.0506,3.0506,3.0506,3.0506,3.0506,3.0506,3.0506,3.0506,3.0506,3.0506,3.0506,3.0506,3.0506,3.0506,3.0506,3.0506,3.0506,3.0506,0.0,0.0,0.0,0.0,0.0,0.0,0.0,0.0,0.0,0.0,0.0,0.0,0.0,0.0,0.0,0.0,0.0,0.0,0.0,2.081,2.1235,2.2063,2.1771,2.1761,2.2144,2.1742,2.1689,2.2043,2.2531,2.2936,2.3253,2.3397,2.3391,2.3303,2.3259,2.3188,2.3074,2.2985,2.2829,0.0,0.0,2.0512,2.0381,1.9264,1.8411,1.7815,1.7915,1.7327,1.6464,0.0,0.0,1.7034,1.7421,1.7655,1.8158,1.9974,0.0,2.3637,2.5279,2.7188,2.8996,3.0062,2.9885,2.9166,2.8177,2.7012,2.5714,2.4333,2.3308,2.257,2.2204,2.2398,2.2607,2.253,2.3502,2.4613,2.5573,2.6717,2.7893,2.9168,2.9947,3.0357,3.0357,2.9731,2.9317,2.9317,2.8936,2.8903,2.9383,3.0009,3.0406,3.0506,3.0803,3.1135,3.147,3.1135,3.0986,3.0986,3.0654,3.0506,3.0506,3.0506,3.0506,3.0506,3.0506,3.0506,3.0506,3.0506,3.0506,3.0506,3.0506,3.0506,3.0506,3.0506,3.0506,3.0506,0.0,0.0,0.0,0.0,0.0,0.0,0.0,0.0,0.0,0.0,2.0204,0.0,0.0,0.0,0.0,0.0,0.0,0.0,0.0,0.0,2.024,2.0996,2.0297,2.0253,2.1015,2.0272,2.0236,2.0944,2.0919,2.1292,2.1954,2.1255,2.0878,2.0803,2.079,2.0744,2.0658,2.053,2.0449,2.026,1.9118,1.8806,1.8948,0.0,1.7975,1.7683,1.7957,1.7428,1.6516,0.0,1.6681,1.8007,1.8252,1.9269,2.0701,2.2153,2.3186,2.4337,2.6745,2.7561,2.8204,3.0118,2.959,2.8236,2.6774,2.5782,2.462,2.2599,2.27,2.2921,2.218,2.2106,2.2134,2.2078,2.2156,2.294,2.4961,2.6036,2.751,2.9926,3.1035,3.1565,3.1466,3.0886,3.0506,3.0506,3.0588,3.0373,2.9728,3.0903,3.135,3.0803,3.1317,3.1896,3.2547,3.1934,3.1548,3.1449,3.0803,3.0506,3.0506,3.0506,3.0506,3.0506,3.0506,3.0506,3.0506,3.0506,3.0506,3.0506,3.0506,3.0506,3.0506,3.0506,3.0506,3.0506,0.0,0.0,0.0,0.0,0.0,0.0,0.0,0.0,0.0,0.0,2.1831,2.1695,0.0,0.0,0.0,0.0,0.0,0.0,0.0,0.0,0.0,2.0121,1.9971,1.9971,2.0121,1.9925,1.9913,2.0112,2.0045,2.0105,2.0226,2.0094,1.9932,1.9759,1.9753,1.9627,1.941,1.9389,1.9275,1.9031,1.8224,1.8182,1.846,1.7109,0.0,0.0,1.6463,0.0,1.561,1.5428,1.5973,1.702,1.8847,2.0391,2.1932,2.3982,2.5544,2.6708,2.7203,2.818,2.9045,2.8943,2.8281,2.7284,2.5933,2.4574,0.0,2.2324,2.2269,2.2163,2.1359,2.2142,2.2904,2.2892,2.3816,2.4861,2.5871,2.7642,2.8837,2.8774,3.0444,3.1366,3.0754,3.0572,3.0506,3.0506,3.1068,3.135,3.1234,3.1466,3.1813,3.2299,3.1846,3.1664,3.178,3.1664,3.13,3.0688,3.0555,3.0506,3.0506,3.0506,3.0506,3.0506,3.0506,3.0506,3.0506,3.0506,3.0506,3.0506,3.0506,3.0506,3.0506,3.0506,3.0506,3.0506,0.0,0.0,0.0,0.0,0.0,0.0,0.0,2.271,2.2996,2.2107,2.2842,2.2963,2.1718,2.1201,2.0761,0.0,0.0,0.0,0.0,0.0,0.0,0.0,0.0,0.0,1.9688,1.9656,1.9642,1.9642,0.0,1.9564,1.9546,1.9546,1.9456,1.9289,1.9289,1.9156,1.894,1.8904,1.8556,1.7975,1.7477,1.73,1.7196,0.0,0.0,0.0,0.0,0.0,0.0,1.4745,1.5216,1.6271,1.8845,2.1182,2.3371,2.5608,2.6752,2.7464,2.8191,2.834,2.8345,2.8472,2.7661,2.6363,2.4594,0.0,0.0,2.1273,2.1617,2.2082,2.1695,2.2125,2.2653,2.2994,2.3551,2.4481,2.5987,2.7412,2.8588,2.94,3.0737,3.1598,3.1636,3.13,3.1068,3.1068,3.1399,3.1598,3.1598,3.1598,3.1951,3.2685,3.1962,3.178,3.2166,3.178,3.1416,3.1068,3.0688,3.0506,3.0506,3.0506,3.0506,3.0506,3.0506,3.0506,3.0506,3.0506,3.0721,3.1035,3.0654,3.0737,3.1019,3.0638,3.0506,3.0506,0.0,0.0,0.0,0.0,0.0,0.0,0.0,2.3134,2.3971,2.2452,2.3513,2.3912,2.2632,2.1768,2.1157,0.0,0.0,0.0,0.0,0.0,0.0,0.0,0.0,0.0,0.0,0.0,0.0,1.9398,1.9383,0.0,0.0,0.0,0.0,0.0,1.9049,1.8832,1.8475,1.842,1.7841,0.0,0.0,1.6274,0.0,0.0,0.0,0.0,0.0,0.0,0.0,0.0,1.4443,1.5491,1.7905,2.092,2.3868,2.5608,2.6669,2.7514,2.8456,2.8141,2.7649,2.812,2.7125,2.5479,2.3313,2.2772,0.0,2.0257,2.0995,2.1975,2.1933,2.1958,2.2185,2.2682,2.2838,2.3619,2.5672,2.6752,2.7928,2.9615,3.0721,3.1515,3.1951,3.1598,3.1366,3.1366,3.1515,3.1747,3.2045,3.1912,3.2183,3.2895,3.2083,3.1879,3.2448,3.1879,3.1515,3.1366,3.0787,3.0506,3.0506,3.0506,3.0506,3.0506,3.0506,3.0506,3.0506,3.0506,3.0837,3.1317,3.0721,3.0853,3.13,3.0704,3.0506,3.0506,0.0,0.0,0.0,0.0,0.0,0.0,0.0,2.3832,2.4166,2.3208,2.3847,2.4311,2.4109,2.3379,2.2298,0.0,0.0,0.0,0.0,0.0,0.0,0.0,0.0,0.0,0.0,0.0,0.0,1.9398,1.9347,0.0,0.0,0.0,0.0,0.0,0.0,1.8315,1.7443,1.7433,0.0,0.0,0.0,0.0,0.0,0.0,0.0,0.0,0.0,1.3151,1.3192,0.0,0.0,1.446,1.5406,1.8605,2.2044,2.226,0.0,0.0,2.6651,2.7379,2.816,2.7566,2.6304,2.463,2.2409,0.0,2.0849,1.9914,2.0558,2.1238,2.1055,2.1563,2.2003,2.2001,2.2506,2.3437,2.4977,2.642,2.7365,2.7564,2.9367,3.0357,2.9744,3.0241,3.0605,3.0605,3.1217,3.2177,3.3524,3.2945,3.2928,3.3696,3.2326,3.1631,3.1697,3.1631,3.1267,3.0605,3.0522,3.0506,3.0506,3.0506,3.0506,3.0506,3.0506,3.0506,3.0506,3.0506,3.0539,3.0588,3.0522,3.0539,3.0588,3.0522,3.0506,3.0506,0.0,0.0,0.0,0.0,0.0,0.0,2.3277,2.3944,2.4195,2.3319,2.3877,2.4303,2.4257,2.3953,2.3123,2.1549,0.0,0.0,0.0,0.0,0.0,0.0,0.0,0.0,0.0,0.0,1.9308,1.9329,1.9298,0.0,0.0,0.0,0.0,0.0,0.0,1.8067,1.7122,1.7084,0.0,0.0,0.0,0.0,0.0,0.0,0.0,0.0,0.0,0.0,1.3093,1.3093,0.0,0.0,1.3908,1.5767,0.0,0.0,2.3187,2.4879,2.5922,2.6634,2.6998,2.6717,2.5193,2.3437,2.2157,0.0,2.0107,1.982,2.0491,2.1231,2.151,2.1797,2.212,2.2498,2.2373,2.3056,2.5424,2.511,2.5607,2.8241,2.8572,2.8969,2.9959,3.0323,3.087,3.1752,3.21,3.2911,3.4369,3.3326,3.305,3.3773,3.2796,3.2266,3.2266,3.1813,3.1449,3.1168,3.0704,3.0506,3.0522,3.0952,3.0919,3.0522,3.0969,3.0903,3.0506,3.0506,3.0754,3.1118,3.0671,3.077,3.1118,3.0654,3.0506,3.0506,0.0,0.0,0.0,0.0,0.0,2.4212,2.3333,2.3944,2.4195,2.3319,2.384,2.4275,2.421,2.4201,2.3676,2.2348,2.1668,0.0,0.0,0.0,0.0,0.0,0.0,0.0,0.0,0.0,1.9272,1.9211,1.916,1.9389,0.0,0.0,1.9106,1.9789,0.0,0.0,0.0,0.0,0.0,0.0,0.0,0.0,0.0,0.0,0.0,0.0,0.0,0.0,0.0,0.0,0.0,0.0,0.0,1.3837,1.5364,0.0,2.1361,2.3238,2.4812,2.5872,2.6468,2.6252,2.4547,2.2658,0.0,0.0,1.9464,1.9742,2.028,2.0978,2.1817,2.1969,2.2191,2.2866,2.2489,2.2924,2.5243,2.4398,2.4779,2.8056,2.7779,2.8061,2.9976,3.0373,3.1019,3.2282,3.2365,3.3011,3.4485,3.3574,3.3243,3.3773,3.3083,3.2702,3.2702,3.2183,3.1912,3.1934,3.1404,3.1156,3.1172,3.1681,3.1631,3.1189,3.1702,3.1499,3.0837,3.0837,3.1002,3.1217,3.0704,3.082,3.1217,3.0688,3.0506,3.0506,0.0,0.0,0.0,0.0,0.0,0.0,2.3333,2.3944,2.4195,2.3319,2.384,2.4275,2.421,2.4201,2.387,2.307,2.2977,0.0,0.0,0.0,0.0,0.0,0.0,0.0,0.0,0.0,1.9202,1.8992,1.8869,1.9071,1.9587,1.8856,1.9185,2.0308,0.0,0.0,0.0,0.0,0.0,0.0,0.0,0.0,0.0,0.0,0.0,0.0,0.0,0.0,0.0,0.0,0.0,0.0,0.0,1.3208,1.3502,1.4941,1.8945,2.2907,2.2924,2.5077,2.7116,2.6385,2.4547,2.2525,0.0,0.0,1.8843,1.9642,1.9805,2.0231,2.1645,2.1913,2.2117,2.279,2.2891,0.0,2.3918,2.463,2.5358,2.6136,2.6868,2.7862,2.9264,3.0075,3.0803,3.1565,3.1615,3.226,3.3723,3.3789,3.3773,3.3789,3.3083,3.2702,3.2702,3.2702,3.2702,3.2702,3.2685,3.2685,3.2685,3.2702,3.2685,3.2685,3.2702,3.2266,3.1598,3.1598,3.1168,3.0506,3.0506,3.0506,3.0506,3.0506,3.0506,3.0506,0.0,0.0,0.0,0.0,0.0,0.0,0.0,2.4324,2.4381,2.406,2.4218,2.4339,2.4275,2.4321,2.4192,2.3851,2.3327,0.0,0.0,0.0,0.0,0.0,0.0,0.0,0.0,2.0094,2.0016,1.9403,1.9866,2.0377,2.0887,2.0137,2.021,2.0901,1.9806,1.8753,0.0,0.0,0.0,0.0,0.0,0.0,1.6142,0.0,0.0,0.0,0.0,0.0,0.0,0.0,0.0,0.0,0.0,0.0,0.0,1.4493,1.6442,0.0,2.091,2.2489,2.3735,2.4497,2.3452,2.2102,2.1653,2.0477,1.9692,2.0395,2.0592,2.088,2.1745,2.1913,2.2117,2.279,2.2492,2.2924,2.5176,2.4398,2.4795,2.8006,2.9052,2.9665,3.0108,3.0357,3.1002,3.2249,3.2348,3.2994,3.4468,3.4551,3.4551,3.4551,3.4319,3.4203,3.4203,3.369,3.3442,3.3464,3.295,3.2702,3.2718,3.3232,3.3183,3.2735,3.3226,3.2746,3.1598,3.1598,3.1168,3.0506,3.0506,3.0506,3.0555,3.1068,3.0936,3.0572,0.0,0.0,0.0,0.0,0.0,0.0,0.0,2.4238,2.4229,2.4182,2.4247,2.4238,2.4096,2.4182,2.4172,2.3951,2.3485,0.0,0.0,0.0,0.0,0.0,0.0,0.0,1.9792,1.9873,1.978,1.9489,1.9918,2.057,2.1366,2.0609,2.0585,2.1156,2.0027,1.9048,0.0,0.0,0.0,0.0,0.0,0.0,1.6903,0.0,0.0,0.0,0.0,0.0,0.0,0.0,0.0,0.0,0.0,0.0,0.0,0.0,1.5365,1.6598,1.9255,2.109,2.2408,2.3022,2.2322,0.0,0.0,2.0641,2.0043,2.0861,2.0974,2.1122,2.1807,2.2115,2.2604,2.3586,2.357,2.41,2.5937,2.5243,2.5575,2.829,2.9483,3.0075,3.0075,3.0588,3.1421,3.2619,3.2967,3.3624,3.4833,3.4899,3.4899,3.4899,3.4899,3.4899,3.4899,3.4435,3.4203,3.4203,3.374,3.3524,3.3541,3.4005,3.3955,3.3547,3.3707,3.311,0.0,3.1714,3.1333,3.0886,3.0605,3.0837,3.1355,3.1532,3.1482,3.1371,0.0,0.0,0.0,0.0,0.0,0.0,0.0,2.3806,2.3806,2.3806,2.3947,2.3986,2.3724,2.3886,2.3876,2.3533,0.0,0.0,0.0,0.0,0.0,0.0,0.0,0.0,1.9751,1.9105,1.8965,1.9348,1.9401,2.0067,2.1258,2.0521,2.0521,2.114,1.9688,1.8983,1.8785,1.7305,1.7064,1.7636,1.6875,1.6993,0.0,0.0,0.0,0.0,0.0,0.0,0.0,0.0,0.0,0.0,0.0,0.0,0.0,0.0,0.0,0.0,0.0,2.0619,2.2553,2.196,2.1342,2.0914,2.0952,2.0391,0.0,2.1069,2.1055,2.1114,2.1867,2.2483,2.3371,2.4795,2.559,2.607,2.6185,2.6866,2.7348,2.7317,2.8588,2.9446,2.9397,3.0737,3.1912,3.2735,3.3415,3.4104,3.4849,3.4899,3.4899,3.4899,3.4899,3.4899,3.4899,3.4899,3.4899,3.4899,3.4899,3.4899,3.4899,3.4899,3.4866,3.4783,3.4137,3.3392,3.2564,3.1951,3.1615,3.1449,3.077,3.1371,3.2547,3.1896,3.2083,3.2531,0.0,0.0,0.0,0.0,0.0,0.0,0.0,0.0,0.0,0.0,2.3837,2.3827,2.3714,2.3927,2.3917,0.0,0.0,0.0,0.0,0.0,0.0,0.0,0.0,0.0,2.0099,2.0956,2.0892,1.9843,2.1002,2.1725,2.204,2.1801,2.1511,2.1173,2.0652,1.9768,1.8626,1.7787,1.7513,1.7618,1.7468,1.749,0.0,0.0,0.0,0.0,1.7512,1.7466,0.0,0.0,0.0,0.0,0.0,0.0,0.0,0.0,1.7126,1.8094,1.855,0.0,2.005,2.1501,2.1871,2.1826,0.0,2.1633,2.1653,2.177,2.1719,2.1713,2.1878,2.247,2.3189,2.4116,2.4398,2.4911,2.6036,2.7313,2.7928,2.7383,2.9036,3.0009,2.9446,3.0737,3.2128,3.3425,3.369,3.4104,3.4849,3.4899,3.4899,3.4899,3.4899,3.4899,3.4899,3.4899,3.4899,3.4899,3.4899,3.4899,3.4899,3.4899,3.4584,3.4071,3.4468,3.3591,3.1879,3.2282,3.1785,3.0737,3.0572,3.1052,3.1896,3.2299,3.2199,3.1896,0.0,0.0,0.0,0.0,0.0,0.0,0.0,0.0,0.0,0.0,0.0,2.358,2.3399,2.358,0.0,0.0,0.0,0.0,0.0,0.0,0.0,0.0,0.0,2.082,2.0662,2.0712,2.0686,2.0538,2.1397,2.1972,2.2296,2.1913,2.1339,2.0619,1.9795,1.8976,1.8165,1.7832,1.7676,1.7658,1.7641,0.0,0.0,0.0,0.0,0.0,1.7554,1.7624,0.0,1.7216,1.6825,1.6544,0.0,0.0,0.0,0.0,1.7681,1.8444,1.9117,1.901,1.9068,2.0555,2.1027,2.1169,2.1404,2.1781,2.2092,2.2013,2.194,2.1999,2.2332,2.2687,2.347,2.5243,2.5226,2.5408,2.6535,2.7098,2.7611,2.8191,2.9301,3.0224,3.0858,3.1951,3.2945,3.3723,3.4104,3.4468,3.4883,3.4899,3.4899,3.4899,3.4899,3.4899,3.4899,3.4899,3.4899,3.4899,3.4899,3.4899,3.4899,3.4899,3.4667,3.4303,3.4369,3.3524,3.2116,3.2166,3.1714,3.1002,3.1002,3.1648,3.2663,3.3044,3.316,3.3055,0.0,0.0,0.0,0.0,0.0,0.0,0.0,0.0,0.0,0.0,0.0,0.0,0.0,0.0,0.0,0.0,0.0,0.0,0.0,0.0,0.0,0.0,2.1182,2.0675,2.119,2.0027,2.0006,2.119,2.119,2.1529,2.2124,2.1363,2.0559,1.974,1.8345,1.7698,1.7687,1.7698,1.7687,1.7676,1.7607,0.0,0.0,0.0,0.0,0.0,0.0,0.0,0.0,1.771,1.7227,1.6722,1.7417,0.0,0.0,0.0,0.0,0.0,1.9386,1.9278,1.8927,1.9906,2.0056,2.0174,2.0883,2.1549,2.1984,2.1984,2.2026,2.2234,2.2883,2.302,2.3951,2.6685,2.68,2.675,2.7381,2.7015,2.7361,2.9165,2.9595,3.0477,3.2348,3.3292,3.3839,3.3955,3.4551,3.4899,3.4899,3.4899,3.4899,3.4899,3.4899,3.4899,3.4899,3.4899,3.4833,3.4717,3.4717,3.4717,3.4717,3.4717,3.4717,3.47,3.4187,3.3408,3.2481,3.1962,3.1631,3.1449,3.1565,3.2426,3.3663,3.3756,3.4121,3.4336,0.0,0.0,0.0,0.0,0.0,0.0,0.0,0.0,0.0,0.0,0.0,0.0,0.0,0.0,0.0,0.0,0.0,0.0,0.0,0.0,0.0,2.2501,2.1581,2.1108,2.119,2.1583,2.1583,2.119,2.119,2.1258,2.136,2.0503,1.9668,1.888,1.8114,1.7715,1.7624,1.7692,1.7681,1.7612,1.7601,0.0,0.0,0.0,0.0,0.0,0.0,0.0,0.0,1.771,1.7243,1.6712,1.6824,0.0,0.0,0.0,0.0,0.0,1.8603,1.8854,1.9177,2.1178,2.1236,2.0982,2.1592,2.1828,2.1928,2.1928,2.2353,2.2789,2.289,2.342,2.4398,2.6104,2.7313,2.8094,2.821,2.8622,2.9016,2.9347,3.0506,3.1399,3.173,3.2994,3.4054,3.4667,3.4833,3.4899,3.4899,3.4899,3.4899,3.4899,3.4899,3.4899,3.4899,3.4899,3.4584,3.3955,3.3955,3.3955,3.3955,3.3955,3.3955,3.3988,3.4502,3.3607,3.1797,3.2315,3.1802,3.0737,3.1366,3.2133,3.2928,3.358,3.3481,3.2812,0.0,0.0,0.0,0.0,0.0,0.0,0.0,0.0,0.0,0.0,0.0,0.0,0.0,0.0,0.0,0.0,0.0,0.0,0.0,0.0,2.2592,2.2501,2.1701,2.1413,2.1786,2.1735,2.1546,2.119,2.1597,2.1583,2.1173,2.0351,1.9336,1.8197,1.7861,1.7692,1.7721,1.767,1.7641,1.7641,0.0,0.0,0.0,0.0,0.0,0.0,0.0,0.0,0.0,0.0,1.7552,1.7219,1.6834,0.0,0.0,0.0,0.0,0.0,1.8571,1.9088,1.968,2.1061,2.1147,2.0969,2.1233,2.1616,2.1999,2.237,2.269,2.3139,2.3934,2.405,2.4481,2.5954,2.8092,2.9268,2.8508,2.8969,2.9694,3.0489,3.1184,3.2061,3.3276,3.4005,3.4535,3.4866,3.4899,3.4899,3.4899,3.4899,3.4899,3.4899,3.4899,3.4899,3.4899,3.4502,3.4336,3.4386,3.4386,3.4187,3.3806,3.4203,3.417,3.3839,3.4584,3.3872,3.2249,3.2978,3.2431,3.1217,3.2365,3.2994,3.3375,3.4121,3.3696,3.2602,0.0,0.0,0.0,0.0,0.0,0.0,0.0,0.0,0.0,0.0,0.0,0.0,0.0,0.0,0.0,0.0,0.0,0.0,0.0,2.2491,2.2321,2.2241,2.1468,2.144,2.2279,2.1752,2.1461,2.1461,2.2023,2.1735,2.0649,2.0035,1.9031,1.776,1.7681,1.7681,1.7755,1.7658,1.763,1.7664,0.0,0.0,0.0,0.0,0.0,0.0,0.0,0.0,0.0,0.0,0.0,0.0,0.0,0.0,0.0,1.6384,1.6712,1.7259,1.8352,1.9125,1.9827,2.0706,2.0858,2.0888,2.1223,2.1736,2.232,2.3022,2.3288,2.3768,2.4895,2.4911,2.5143,2.627,2.8718,3.0174,2.9268,2.9731,3.0675,3.1962,3.2111,3.2862,3.4717,3.4899,3.4899,3.4899,3.4899,3.4899,3.4899,3.4733,3.4717,3.4883,3.4717,3.4717,3.4899,3.4336,3.4237,3.4634,3.4468,3.417,3.3806,3.4369,3.4419,3.4087,3.4651,3.4154,3.3017,3.358,3.3027,3.1979,3.3292,3.3905,3.4071,3.4286,3.3657,3.2652,0.0,0.0,0.0,0.0,0.0,0.0,0.0,0.0,0.0,0.0,0.0,0.0,0.0,0.0,0.0,0.0,0.0,0.0,0.0,2.2044,2.1614,2.1481,2.0704,2.0918,2.2262,2.2245,2.2212,2.2212,2.2262,2.1181,1.9058,1.9012,1.852,1.771,1.776,1.7715,1.7624,1.7664,1.7653,1.7612,1.7601,0.0,0.0,0.0,0.0,0.0,0.0,0.0,0.0,0.0,0.0,0.0,0.0,0.0,1.4791,1.5477,1.524,1.5197,1.731,1.8331,1.9152,2.0609,2.0899,2.114,2.2442,2.279,2.3039,2.3768,2.4481,2.4978,2.5094,2.6188,2.71,2.7199,2.9069,3.0704,3.1283,3.2,3.2768,3.3541,3.364,3.3972,3.4816,3.4899,3.4899,3.4899,3.4899,3.4899,3.4899,3.4237,3.4187,3.4883,3.4237,3.4203,3.4883,3.4849,3.4502,3.3856,3.3199,3.3199,3.3789,3.3839,3.422,3.4816,3.4883,3.4435,3.3707,3.3773,3.3326,3.2696,3.3475,3.422,3.4651,3.3326,3.2801,3.2503,0.0,0.0,0.0,0.0,0.0,0.0,0.0,0.0,0.0,0.0,0.0,0.0,0.0,0.0,0.0,0.0,0.0,0.0,0.0,2.1002,2.0798,2.0665,1.9877,1.9906,2.0842,2.1363,2.163,2.163,2.1113,2.0437,1.9575,1.9065,1.8446,1.776,1.7692,1.7681,1.7715,1.767,1.7658,1.7653,1.7653,1.7692,0.0,0.0,0.0,0.0,0.0,0.0,0.0,0.0,1.7597,1.7304,1.6841,1.5994,1.524,1.5511,1.574,1.6052,1.6844,1.8531,2.0097,2.0167,2.0816,2.1693,2.2736,2.2937,2.3106,2.3851,2.4597,2.5243,2.5689,2.6601,2.758,2.8456,3.0059,3.1598,3.2812,3.3591,3.417,3.4435,3.4485,3.4584,3.4866,3.4899,3.47,3.4237,3.4634,3.47,3.4237,3.4386,3.4601,3.4883,3.4618,3.4618,3.4899,3.4435,3.4303,3.4468,3.4203,3.3955,3.3806,3.427,3.4386,3.4237,3.47,3.4468,3.3822,3.4286,3.4038,3.3464,3.4187,3.4651,3.4767,3.3756,3.31,3.2547,0.0,0.0,0.0,0.0,0.0,0.0,0.0,0.0,0.0,0.0,0.0,0.0,0.0,0.0,0.0,0.0,0.0,0.0,2.0451,2.0152,1.9956,1.9826,1.9074,1.8965,1.9642,2.0179,2.0699,2.119,2.0889,2.0369,1.9659,1.9588,1.9048,1.8138,1.8057,1.8057,1.8103,1.7782,1.7681,1.7698,1.771,1.7738,0.0,0.0,0.0,0.0,0.0,0.0,0.0,0.0,1.78,1.7698,1.7213,1.6384,1.5595,1.5595,1.5781,1.6133,1.6778,1.8528,2.0207,2.0391,2.129,2.2358,2.3166,2.3484,2.3802,2.4547,2.511,2.5656,2.6419,2.6967,2.7912,2.9777,3.0936,3.2194,3.3905,3.4584,3.4899,3.4899,3.4899,3.4899,3.4899,3.4899,3.4584,3.3856,3.4468,3.4468,3.3491,3.3922,3.4203,3.4203,3.4203,3.4203,3.4203,3.4154,3.427,3.4551,3.4783,3.4634,3.4154,3.4667,3.4485,3.3839,3.4584,3.4468,3.3856,3.4601,3.4601,3.4187,3.47,3.4899,3.4783,3.3806,3.3127,3.2569,0.0,0.0,0.0,0.0,0.0,0.0,0.0,0.0,0.0,0.0,0.0,0.0,0.0,0.0,0.0,0.0,0.0,0.0,2.0427,1.963,1.9127,1.8994,1.8285,1.82,1.8888,1.8894,1.965,2.119,2.1921,2.1113,1.8944,2.0463,2.0378,1.891,1.891,1.8875,1.8764,1.8098,1.7777,1.771,1.776,1.78,1.78,0.0,0.0,0.0,0.0,0.0,0.0,0.0,1.78,1.78,1.78,1.6796,1.5595,1.5612,1.5033,1.4901,1.7098,1.8145,1.9142,2.1415,2.2448,2.3105,2.3915,2.4614,2.5292,2.6036,2.6202,2.6452,2.7166,2.7298,2.8243,3.1118,3.1598,3.2359,3.4551,3.4883,3.4883,3.4883,3.4883,3.4899,3.4899,3.4883,3.4584,3.3839,3.4468,3.4237,3.2785,3.2718,3.2718,3.2702,3.2702,3.2702,3.2702,3.4137,3.4502,3.3789,3.4535,3.4883,3.4899,3.4883,3.4485,3.3839,3.4551,3.4452,3.3839,3.4584,3.4883,3.4899,3.4899,3.4899,3.4717,3.3265,3.2718,3.2503,0.0,0.0,0.0,0.0,0.0,0.0,0.0,0.0,0.0,0.0,0.0,0.0,0.0,0.0,0.0,0.0,0.0,0.0,1.8869,1.8504,1.8318,1.8228,1.7969,1.7924,1.8115,1.864,1.9384,2.0352,2.0589,2.0335,1.9676,1.9604,1.9604,1.9676,1.9668,1.9381,1.8841,1.8615,1.8227,1.776,1.7789,1.78,1.78,0.0,0.0,0.0,0.0,0.0,0.0,0.0,0.0,0.0,1.78,1.6796,1.5697,1.6214,1.5809,1.5536,1.7183,1.8472,1.9641,2.0805,2.2008,2.3222,2.4497,2.4564,2.4679,2.5937,2.6617,2.7199,2.7945,2.7647,2.8078,3.0439,3.0837,3.1234,3.2409,3.3922,3.4518,3.3481,3.427,3.4899,3.4899,3.4419,3.4038,3.3806,3.3988,3.3707,3.2752,3.3199,3.3249,3.2718,3.2702,3.2702,3.2702,3.3127,3.3226,3.305,3.3756,3.4386,3.4883,3.4352,3.4005,3.3773,3.3475,3.3226,3.3083,3.3806,3.4419,3.4899,3.4899,3.4899,3.4783,3.3822,3.3458,3.3259,0.0,0.0,0.0,0.0,0.0,0.0,0.0,0.0,0.0,0.0,2.1595,2.1285,0.0,0.0,0.0,0.0,0.0,0.0,1.8162,1.8005,1.7922,1.7867,1.7822,1.78,1.78,1.8814,1.927,1.9135,1.9714,1.9862,1.9575,1.9739,2.0044,2.0471,2.0475,2.0052,1.9321,1.8981,1.8604,1.8251,1.8251,1.8251,1.8251,0.0,0.0,0.0,0.0,0.0,0.0,0.0,0.0,0.0,1.78,1.6999,1.612,1.6538,1.6328,1.6231,1.7616,1.8831,2.0007,2.1263,2.246,2.3653,2.4829,2.5441,2.6071,2.7228,2.7611,2.7945,2.8674,2.8227,2.8442,3.0588,3.0688,3.0853,3.1901,3.3193,3.3713,3.2818,3.3475,3.4137,3.4419,3.3789,3.3365,3.3365,3.3365,3.2911,3.1885,3.2796,3.2878,3.1851,3.2381,3.2437,3.1835,3.2398,3.2702,3.2718,3.3442,3.4021,3.4452,3.4303,3.3905,3.3309,3.258,3.2597,3.3183,3.363,3.422,3.4899,3.4899,3.4899,3.48,3.4054,3.3789,3.3591,0.0,0.0,0.0,0.0,0.0,0.0,0.0,0.0,0.0,0.0,2.0803,2.0325,0.0,0.0,0.0,0.0,0.0,0.0,0.0,1.7967,1.7895,1.7901,1.7901,1.7901,1.7901,1.922,1.9253,1.7901,1.9321,1.9659,1.9029,2.0513,2.1241,2.1292,2.1292,2.0822,1.9951,1.9283,1.8961,1.8894,1.8826,1.8843,1.8894,1.8826,0.0,0.0,0.0,0.0,0.0,0.0,0.0,0.0,1.78,1.7287,1.6712,1.6783,1.67,1.6909,1.8402,1.9242,2.0209,2.2359,2.3553,2.4398,2.5127,2.6917,2.8558,2.9102,2.887,2.879,2.938,2.8953,2.9135,3.1168,3.0936,3.0936,3.2216,3.2586,3.2652,3.2536,3.2619,3.2967,3.3624,3.3027,3.2636,3.2702,3.2652,3.2017,3.0671,3.1868,3.1951,3.0539,3.1802,3.1851,3.0506,3.1835,3.2503,3.2497,3.3243,3.3591,3.3624,3.4352,3.3889,3.2448,3.178,3.2293,3.3591,3.3591,3.4021,3.47,3.4767,3.48,3.4717,3.4121,3.3856,3.3591,0.0,0.0,0.0,0.0,0.0,0.0,0.0,0.0,0.0,0.0,0.0,0.0,0.0,0.0,0.0,0.0,0.0,0.0,0.0,1.8234,1.8133,1.864,1.8657,1.8657,1.8657,1.8961,1.8978,1.8657,1.9558,1.9917,1.9778,2.075,2.1512,2.2073,2.2073,2.1299,1.9985,1.9828,1.9423,1.8843,1.8268,1.8386,1.8843,1.8268,1.7935,0.0,0.0,0.0,0.0,0.0,0.0,0.0,1.78,1.7287,1.6925,1.807,1.7507,1.7087,1.9699,2.002,2.0158,2.2344,2.4332,2.5922,2.6669,2.7647,2.8276,2.7845,2.8969,3.0075,3.0241,2.9661,2.9533,3.0572,3.0605,3.0406,3.0162,3.1603,3.2266,3.1123,3.2,3.2768,3.2934,3.2266,3.2083,3.2669,3.2166,3.1697,3.1383,3.1664,3.1416,3.0522,3.0803,3.082,3.0506,3.0803,3.0969,3.0969,3.1714,3.2061,3.2095,3.2829,3.2365,3.0952,3.0803,3.125,3.2061,3.2061,3.2514,3.3226,3.3806,3.4038,3.4087,3.4502,3.4286,3.3657,0.0,0.0,0.0,0.0,0.0,0.0,0.0,0.0,0.0,0.0,0.0,0.0,0.0,0.0,0.0,0.0,0.0,0.0,0.0,0.0,1.9134,1.9418,1.979,1.9807,1.9439,1.9423,1.9423,1.9423,1.9456,1.9845,2.0585,2.1004,2.1583,2.2296,2.2296,2.1451,2.0002,2.0002,1.9575,1.8872,1.8488,1.8555,1.886,1.8471,1.8104,1.78,1.78,0.0,0.0,0.0,0.0,0.0,0.0,0.0,1.7371,1.8109,1.7996,1.8039,1.9833,2.028,2.0741,2.289,2.4829,2.6303,2.6684,2.7348,2.7763,2.7365,2.8721,3.0075,3.0423,2.9893,2.9628,3.0373,3.0191,2.9959,2.9926,3.0924,3.1371,3.0588,3.1189,3.1785,3.215,3.1499,3.1366,3.2116,3.1482,3.1068,3.1068,3.1416,3.1267,3.0522,3.0837,3.0853,3.0506,3.0506,3.0671,3.1035,3.1416,3.1598,3.1615,3.2017,3.1752,3.1002,3.0654,3.0919,3.1598,3.1598,3.2012,3.2752,3.3133,3.3282,3.3332,3.369,3.3613,3.3183,0.0,0.0,0.0,0.0,0.0,0.0,0.0,0.0,0.0,0.0,0.0,0.0,0.0,0.0,0.0,0.0,0.0,0.0,0.0,0.0,0.0,2.0217,2.0839,2.0886,2.0217,2.0217,2.0217,2.0217,1.9456,1.9875,2.1393,2.1258,2.1583,2.2296,2.2296,2.1451,2.0002,2.0002,1.9575,1.8888,1.8758,1.8792,1.8888,1.8758,1.8335,1.78,1.78,1.78,1.78,0.0,0.0,0.0,0.0,0.0,1.7817,1.789,1.8284,1.8879,1.9712,2.0588,2.1692,2.3535,2.5011,2.6036,2.6169,2.6667,2.7149,2.7265,2.8343,2.9397,3.0026,2.9648,2.9433,3.0026,2.9632,2.9483,3.0208,3.0208,3.0224,3.0472,3.039,3.0605,3.1333,3.0853,3.0754,3.1366,3.0837,3.0506,3.0506,3.1085,3.1135,3.0522,3.1085,3.1118,3.0506,3.0506,3.0803,3.1416,3.1416,3.1416,3.1416,3.1416,3.1416,3.1383,3.0754,3.0853,3.1416,3.1416,3.183,3.2514,3.2652,3.2785,3.2917,3.3033,3.3017,3.2818,0.0,0.0,0.0,0.0,0.0,0.0,0.0,0.0,0.0,0.0,1.9217,1.9148,0.0,0.0,0.0,0.0,0.0,0.0,0.0,0.0,0.0,2.1004,2.114,2.114,2.1038,2.1038,2.1038,2.1038,2.0234,2.064,2.2127,2.1512,2.1583,2.2296,2.2296,2.1451,2.0002,2.0002,1.9575,1.8843,1.82,1.8335,1.8826,1.82,1.7884,1.78,1.78,1.78,1.78,1.78,1.78,0.0,0.0,0.0,1.7918,1.8544,1.8317,1.8288,2.0286,2.175,2.2933,2.3785,2.463,2.5407,2.6053,2.6286,2.6535,2.7166,2.7961,2.8558,2.8674,2.8608,2.8575,2.8674,2.8608,2.8754,2.9446,2.9052,2.9118,3.034,2.9926,2.9827,3.0572,3.0555,3.0539,3.0638,3.0555,3.0506,3.0506,3.0588,3.0605,3.0506,3.0605,3.0605,3.0506,3.0506,3.0555,3.0638,3.0638,3.0638,3.0638,3.0638,3.0638,3.0638,3.0539,3.0555,3.0638,3.0638,3.1068,3.1797,3.2448,3.31,3.3723,3.4369,3.4203,3.3624,0.0,0.0,0.0,0.0,0.0,0.0,0.0,0.0,0.0,0.0,0.0,1.8683,0.0,0.0,0.0,1.8162,0.0,0.0,0.0,0.0,0.0,2.1173,2.1597,2.182,2.182,2.141,2.141,2.182,2.0179,2.0369,2.2262,2.1079,2.116,2.2296,2.2296,2.1451,2.0002,2.0002,1.9338,1.8268,1.7918,1.8216,1.8749,1.8019,1.7991,1.8311,1.789,1.776,1.78,1.78,1.807,1.8352,1.7918,0.0,0.0,0.0,1.8937,1.9373,2.1096,2.2256,2.3066,2.3321,2.4249,2.5193,2.5507,2.5887,2.6285,2.6617,2.6932,2.7412,2.8243,2.8061,2.7912,2.8326,2.8044,2.8028,2.8738,2.8591,2.8774,2.9761,2.9595,2.9678,3.0423,3.0506,3.0506,3.0506,3.0506,3.0506,3.0506,3.0506,3.0506,3.0506,3.0506,3.0506,3.0506,3.0506,3.0506,3.0506,3.0506,3.0506,3.0506,3.0506,3.0506,3.0506,3.0506,3.0506,3.0506,3.0506,3.0688,3.1052,3.1802,3.2282,3.2663,3.3392,3.3464,3.3176,0.0,0.0,0.0,0.0,0.0,0.0,0.0,0.0,0.0,0.0,0.0,0.0,0.0,0.0,0.0,0.0,1.8628,0.0,0.0,0.0,0.0,2.1173,2.1735,2.2124,2.2296,2.158,2.1563,2.2296,2.0027,2.0078,2.2262,2.0711,2.0812,2.2296,2.2296,2.1552,2.0285,2.0099,1.927,1.807,1.8059,1.8362,1.8769,1.8387,1.8577,1.8963,1.8231,1.8131,1.8284,1.7924,1.8302,1.8775,1.802,1.8172,0.0,0.0,0.0,2.0023,2.1368,2.2118,2.2562,2.2853,2.3751,2.4647,2.5027,2.5541,2.597,2.6152,2.6202,2.6551,2.7647,2.7398,2.7199,2.7763,2.7381,2.7282,2.8011,2.7961,2.8177,2.9036,2.8986,2.9234,3.0125,3.0208,3.029,3.0489,3.0506,3.0506,3.0506,3.0506,3.0506,3.0506,3.0506,3.0506,3.0506,3.0506,3.0506,3.0506,3.0506,3.0605,3.0787,3.0787,3.0787,3.077,3.0572,3.0506,3.0506,3.0506,3.0605,3.0853,3.1581,3.1979,3.2243,3.2978,3.3243,3.3243,0.0,0.0,0.0,0.0,0.0,0.0,0.0,0.0,0.0,0.0,0.0,0.0,1.9252,1.8614,1.8162,1.8113,1.8136,1.8414,1.9027,1.9048,0.0,2.114,2.1241,0.0,2.2279,2.158,2.1563,2.2296,2.0027,2.0078,2.2262,2.0711,2.0812,2.2296,2.2296,2.187,2.1089,2.0318,1.9558,1.8843,1.8771,1.8769,1.8857,1.9458,1.9716,1.9662,1.8967,1.9194,1.9593,1.825,1.8302,1.8775,1.802,1.7834,1.785,0.0,0.0,0.0,2.0666,2.109,2.1418,2.2678,2.3049,2.3466,2.4812,2.5143,2.5359,2.6053,2.6202,2.6219,2.6301,2.6268,2.6268,2.6319,2.6268,2.6518,2.7249,2.675,2.6849,2.8293,2.7829,2.7945,2.9314,2.9446,2.9744,3.0456,3.0506,3.0506,3.0506,3.0506,3.0506,3.0506,3.0506,3.0506,3.0506,3.0506,3.0506,3.0506,3.0506,3.087,3.1548,3.1548,3.1548,3.1499,3.0803,3.0506,3.0506,3.0506,3.0903,3.1615,3.2348,3.3061,3.3773,3.4502,3.4783,3.4783,0.0,0.0,0.0,0.0,0.0,0.0,0.0,0.0,0.0,0.0,0.0,0.0,0.0,1.8295,1.8119,1.8037,1.7988,1.8052,1.8223,1.8652,0.0,1.9701,2.0666,2.1326,2.1583,2.1803,2.1803,2.1583,2.0784,2.0534,2.0826,2.0788,2.1059,2.1613,2.2076,2.1887,2.1173,2.0889,2.0331,1.9596,1.9521,1.9756,2.012,1.984,2.003,2.0347,1.9623,1.9604,1.9815,1.9319,1.934,1.9473,1.8741,1.8504,1.8504,1.8504,1.9396,2.0352,2.0312,2.1022,2.1737,2.1628,2.23,2.3132,2.3569,2.405,2.4481,2.4746,2.4795,2.4928,2.5407,2.5871,2.6202,2.6202,2.6202,2.6285,2.6551,2.6369,2.6568,2.7564,2.7448,2.7862,2.9248,2.9397,2.9694,3.0439,3.0506,3.0506,3.0506,3.0506,3.0506,3.0506,3.0506,3.0506,3.0506,3.0506,3.0506,3.0506,3.0986,3.135,3.1615,3.21,3.205,3.1598,3.1317,3.0936,3.0506,3.0506,3.0654,3.1002,3.2232,3.2868,3.3176,3.3905,3.4485,3.4833,0.0,0.0,0.0,0.0,0.0,0.0,0.0,0.0,1.82,1.82,0.0,0.0,0.0,0.0,1.807,1.7966,1.7911,1.7856,1.78,1.8268,1.864,1.8888,1.9887,2.0666,2.119,2.1177,2.1177,2.119,2.0429,2.0044,2.0002,2.0281,2.0699,2.1207,2.1431,2.1549,2.1546,2.1309,2.0889,2.0407,2.0555,2.0874,2.1267,2.1197,2.147,2.1774,2.1097,2.1053,2.1195,2.0485,2.0424,2.051,1.9542,1.9072,1.8894,1.8894,1.9447,2.0031,1.9968,2.0494,2.1069,2.0899,2.159,2.2427,2.2837,2.3319,2.3801,2.4265,2.4365,2.453,2.5011,2.5508,2.5904,2.6152,2.6202,2.6202,2.6202,2.6202,2.6385,2.6866,2.6934,2.7479,2.8936,2.8837,2.9201,3.0406,3.0257,3.0241,3.0489,3.0506,3.0506,3.0506,3.0506,3.0506,3.0506,3.0506,3.0506,3.0506,3.125,3.173,3.1979,3.2729,3.2663,3.1984,3.1984,3.1399,3.0506,3.0506,3.0638,3.0986,3.2216,3.2868,3.3166,3.3889,3.4468,3.4833,0.0,0.0,0.0,0.0,0.0,0.0,0.0,0.0,1.82,1.82,0.0,0.0,0.0,0.0,0.0,1.7922,1.7845,1.78,1.78,1.78,1.8115,1.8843,0.0,0.0,2.1123,1.9718,1.9701,2.1156,1.8978,1.8594,1.9917,1.9249,1.9718,2.1106,2.0335,2.0842,2.2178,2.1495,2.1207,2.1278,2.1823,2.2022,2.2189,2.3564,2.4066,2.3917,2.3344,2.3545,2.3781,2.1704,2.1451,2.18,2.0377,1.9491,1.8927,1.8927,1.8454,1.8239,0.0,0.0,0.0,2.0645,2.0989,2.1334,2.2645,2.2948,2.335,2.4763,2.5044,2.506,2.5094,2.511,2.5342,2.607,2.6169,2.6169,2.6202,2.6202,2.6202,2.6202,2.6202,2.6783,2.826,2.7746,2.821,3.034,2.9827,2.9744,3.0456,3.0506,3.0506,3.0506,3.0506,3.0506,3.0506,3.0506,3.0506,3.0539,3.1283,3.2034,3.2768,3.3491,3.3448,3.2735,3.2735,3.1901,3.0555,3.0539,3.0952,3.1681,3.2431,3.3166,3.3856,3.4601,3.4883,3.4899,0.0,0.0,0.0,0.0,0.0,1.8441,1.8235,1.82,1.82,0.0,0.0,0.0,1.8065,1.7961,1.7867,1.7833,1.7811,1.78,1.78,1.78,1.7884,1.8099,1.8623,1.935,2.0302,2.0467,2.0483,2.0335,2.0281,1.9621,1.8425,1.9287,1.9638,1.9549,1.9862,2.0238,2.0673,2.1038,2.1512,2.2043,2.2578,2.2804,2.2889,2.3716,2.4017,2.3967,2.3817,2.3899,2.3998,2.3398,2.3088,2.2687,2.1275,2.0306,1.971,1.971,2.0335,2.0893,2.0187,0.0,0.0,0.0,0.0,0.0,2.1347,2.1816,2.245,2.3321,2.3503,2.3835,2.4911,2.511,2.5342,2.607,2.5739,2.559,2.6119,2.6202,2.6202,2.6202,2.6202,2.6783,2.826,2.821,2.8754,3.0373,3.0307,3.0274,3.0489,3.0506,3.0506,3.0506,3.0506,3.0506,3.0506,3.0506,3.077,3.13,3.205,3.2779,3.3531,3.4253,3.4187,3.3491,3.3491,3.2945,3.205,3.1515,3.1416,3.173,3.2994,3.3276,3.31,3.3822,3.4435,3.4816,0.0,0.0,0.0,0.0,1.8459,1.8666,1.8666,1.8666,1.8769,0.0,0.0,0.0,1.8398,1.8625,1.8629,1.8285,1.8268,1.8132,1.7817,1.78,1.78,1.78,1.8217,1.8932,1.9985,2.0162,2.0162,2.0002,2.0162,1.9401,1.7817,1.8679,1.9017,1.8922,1.9034,1.941,2.0035,2.05,2.1285,2.2307,2.3201,2.3742,2.4045,2.4713,2.4945,2.4911,2.4962,2.4979,2.4929,2.463,2.4145,2.3431,2.1995,2.1478,2.1299,2.0673,2.135,2.2093,2.1197,2.162,2.2147,2.1515,0.0,0.0,2.1368,2.1657,2.2128,2.2772,2.3139,2.3719,2.4878,2.511,2.5243,2.5656,2.5374,2.5359,2.6086,2.5937,2.5854,2.6152,2.6202,2.6667,2.7829,2.7945,2.8506,2.9926,3.0042,3.0174,3.0472,3.0506,3.0506,3.0506,3.0506,3.0506,3.0506,3.0803,3.1168,3.1615,3.2663,3.3375,3.3806,3.4237,3.4203,3.3773,3.3458,3.3282,3.3133,3.2696,3.2531,3.2613,3.3458,3.3746,3.3657,3.4087,3.4535,3.4833,0.0,0.0,1.8235,1.8304,1.8855,1.9326,1.9407,1.9413,1.9619,0.0,1.9,1.8311,1.8925,1.9508,1.9564,1.8838,1.8775,1.8504,1.7834,1.78,1.78,1.78,1.78,1.8442,1.9862,1.9249,1.9215,1.9879,1.9215,1.8521,1.78,1.78,1.8149,1.8741,1.8087,1.8527,1.9765,1.9917,2.081,2.2207,2.3639,2.4596,2.5279,2.6011,2.6241,2.6203,2.6259,2.6258,2.6086,2.5441,2.4813,2.4093,2.2804,2.2923,2.3257,2.1952,2.209,2.2651,2.2567,2.2533,2.2682,2.3257,2.2852,0.0,2.2238,2.2195,2.2352,2.3019,2.3701,2.4381,2.5111,2.5243,2.5243,2.5243,2.5094,2.5259,2.607,2.564,2.5475,2.6119,2.6202,2.6501,2.7216,2.7298,2.7879,2.9281,2.9479,2.981,3.0456,3.0506,3.0506,3.0506,3.0506,3.0506,3.0506,3.1234,3.1648,3.1747,3.3127,3.3839,3.3905,3.3822,3.3839,3.3872,3.3149,3.3249,3.3905,3.3905,3.3856,3.3806,3.3889,3.427,3.4767,3.4767,3.4767,3.4767,0.0,1.8304,1.839,1.8993,1.9189,1.9499,2.0084,2.0188,2.0015,1.9568,1.8647,1.8273,1.8925,1.8556,1.8183,1.8031,1.8003,1.7952,1.7817,1.78,1.78,1.78,1.78,1.8205,1.9096,1.8961,1.8961,1.9113,1.8961,1.8521,1.78,1.78,1.7884,1.8014,1.7867,1.7952,1.8295,1.9433,2.073,2.2151,2.3608,2.4596,2.5262,2.5957,2.6203,2.6203,2.6203,2.6203,2.6187,2.6093,2.5579,2.498,2.486,2.4536,2.4163,2.3919,2.4374,2.4831,2.4237,2.4068,2.3966,2.3511,2.2852,0.0,2.2952,2.3072,2.3397,2.4644,2.5029,2.5347,2.6099,2.6147,2.6078,2.6078,2.5012,2.4679,2.6003,2.607,2.6036,2.6169,2.6202,2.6501,2.7216,2.7298,2.7879,2.9281,2.9943,3.034,3.0489,3.0506,3.0506,3.0506,3.0506,3.0506,3.0506,3.1234,3.1896,3.2497,3.3375,3.4104,3.4667,3.4054,3.4121,3.4634,3.3905,3.3988,3.4684,3.4684,3.4336,3.3856,3.4452,3.4402,3.4005,3.4005,3.4005,3.3922,1.82,1.82,1.8424,1.9183,1.9602,2.0113,2.0889,2.0653,2.0394,2.04,1.9646,1.9062,1.8958,1.891,1.8746,1.8386,1.8352,1.82,1.7817,1.78,1.78,1.78,1.78,1.8149,1.8877,1.8894,1.8894,1.8894,1.8894,1.8521,1.78,1.78,1.7789,1.7749,1.7749,1.7952,1.8395,1.9875,2.1287,2.264,2.3711,2.4763,2.5742,2.6071,2.6202,2.6202,2.6202,2.6202,2.6203,2.624,2.6061,2.5798,2.5464,2.5413,2.5428,2.5105,2.5527,2.6033,2.5693,2.5608,2.5506,2.5135,2.4492,0.0,0.0,2.3845,2.4031,2.4709,2.4827,2.5146,2.6284,2.6133,2.5913,2.6263,2.5645,2.5394,2.6104,2.5556,2.5374,2.6103,2.6202,2.6501,2.7216,2.763,2.8442,2.9827,3.029,3.0506,3.0506,3.0506,3.0506,3.0506,3.0506,3.0506,3.0506,3.1603,3.2332,3.2718,3.3806,3.4535,3.4866,3.4137,3.4203,3.4849,3.4104,3.422,3.4899,3.4899,3.4667,3.4386,3.475,3.4667,3.4336,3.4336,3.4336,3.4286,1.8211,1.82,1.8476,1.9372,1.9998,2.067,2.1475,2.1152,2.0978,2.1404,2.0469,1.9537,1.8956,1.9304,1.9338,1.8741,1.8691,1.8437,1.7834,1.78,1.78,1.78,1.78,1.8082,1.8674,1.8691,1.8691,1.8691,1.8691,1.8386,1.78,1.78,1.7845,1.7917,1.7917,1.8382,1.9299,2.0686,2.2044,2.3344,2.4046,2.5062,2.6202,2.6203,2.6203,2.6202,2.6202,2.6202,2.6219,2.6369,2.6426,2.6367,2.5813,2.6066,2.6471,2.5882,2.6135,2.6606,2.6691,2.6691,2.6691,2.6691,2.615,2.5474,0.0,0.0,0.0,2.474,2.4725,2.5061,2.6319,2.6,2.5664,2.6081,2.6114,2.6078,2.6006,2.4961,2.4713,2.6036,2.6202,2.6501,2.7216,2.8078,2.9003,3.0029,3.034,3.0506,3.0506,3.0506,3.0506,3.0506,3.0506,3.0506,3.0506,3.1818,3.2569,3.2718,3.4038,3.475,3.4866,3.4137,3.4121,3.4651,3.4054,3.4137,3.47,3.4833,3.4899,3.4899,3.4899,3.4899,3.4883,3.4733,3.4684,3.4667,1.8242,1.82,1.8648,2.0033,2.0343,2.067,2.1475,2.2026,2.2103,2.1416,1.9471,1.8348,1.8855,1.8403,1.802,1.7918,1.7918,1.7884,1.78,1.78,1.78,1.78,1.78,1.7834,1.7918,1.7918,1.7918,1.7918,1.7918,1.7884,1.78,1.78,1.8103,1.8668,1.8668,1.9404,2.0726,2.1544,2.2707,2.4047,2.478,2.5528,2.6203,2.6259,2.6241,2.6202,2.6202,2.6202,2.6303,2.695,2.6807,2.6413,2.6978,2.6866,2.6503,2.6471,2.6522,2.6606,2.6691,2.6691,2.6691,2.6691,2.615,2.5761,2.6319,0.0,2.5643,2.6285,0.0,2.6471,2.6624,0.0,0.0,2.5681,2.543,2.5313,2.5312,2.5111,2.5292,2.6103,2.6202,2.6501,2.7216,2.8489,2.9102,2.8674,2.9798,3.0506,3.0506,3.0506,3.0506,3.0506,3.0506,3.0506,3.0506,3.1317,3.2067,3.2718,3.3524,3.427,3.4866,3.4137,3.3839,3.3905,3.3822,3.3839,3.3972,3.4618,3.4899,3.4899,3.4899,3.4899,3.4816,3.4154,3.3905,3.3822,1.8979,1.8838,1.9183,2.0222,2.0785,2.1354,2.2113,2.1674,2.081,1.9541,1.8484,1.7952,1.8234,1.7986,1.7969,1.8403,1.8048,1.7969,1.8403,1.8036,1.78,1.78,1.78,1.78,1.78,1.78,1.78,1.78,1.78,1.78,1.7817,1.8251,1.8571,1.8836,1.9643,2.0572,2.1613,2.2742,2.3813,2.4813,2.5631,2.6062,2.6203,2.6222,2.6221,2.6252,2.6667,2.6851,2.6949,2.7696,2.7786,2.7609,2.7886,2.7542,2.7033,2.7106,2.6856,2.6571,2.6674,2.6674,2.6657,2.6674,2.6455,2.6269,2.6607,2.6454,2.6336,2.664,0.0,0.0,0.0,0.0,0.0,0.0,2.6067,2.5966,2.5863,2.5811,2.5892,2.617,2.6202,2.6501,2.7216,2.8227,2.8853,2.8969,2.9533,3.0042,3.0472,3.0506,3.0506,3.0506,3.0506,3.0506,3.0506,3.1234,3.1984,3.2718,3.3442,3.3955,3.427,3.4369,3.4203,3.3806,3.4237,3.4187,3.3856,3.4601,3.4651,3.4253,3.4253,3.4518,3.48,3.4054,3.3789,3.3673,2.013,1.9797,1.9838,2.0596,2.1027,2.1428,2.1936,2.0676,1.9337,1.837,1.7991,1.78,1.78,1.8155,1.8544,1.886,1.8792,1.8877,1.9181,1.8696,1.8397,1.8373,1.8194,1.8189,1.8373,1.7991,1.7901,1.8099,1.7901,1.7901,1.8104,1.864,1.9077,1.9458,2.07,2.1747,2.2655,2.3912,2.4846,2.5544,2.6398,2.6762,2.6783,2.6584,2.6634,2.6866,2.7415,2.7597,2.7696,2.8426,2.8597,2.8522,2.8644,2.8101,2.7394,2.7467,2.6968,2.6486,2.6624,2.664,2.6623,2.6691,2.6657,2.664,2.6674,2.6691,2.6691,2.6691,2.6268,0.0,0.0,0.0,2.5982,2.6286,0.0,2.647,2.6081,2.6179,2.6277,2.6203,2.6385,2.6634,2.6967,2.7845,2.8525,2.8804,2.9185,2.9628,3.0174,3.039,3.0506,3.0506,3.0506,3.0506,3.0506,3.1035,3.1664,3.2398,3.2945,3.3408,3.3806,3.4137,3.3988,3.3524,3.4054,3.3988,3.3564,3.4286,3.427,3.3789,3.3789,3.3988,3.4253,3.3905,3.3657,3.3475,2.1778,2.1022,2.0618,2.1423,2.0941,2.0393,2.0301,1.903,1.8268,1.8799,1.8251,1.78,1.78,1.9068,1.9659,1.8961,2.0242,2.0771,2.0002,1.9934,1.9896,1.9849,1.92,1.9162,1.9815,1.8508,1.8149,1.886,1.8149,1.8166,1.8872,1.8888,1.9634,2.0972,2.1796,2.2867,2.4097,2.4979,2.5663,2.6236,2.7058,2.7755,2.8243,2.7531,2.7696,2.8326,2.8359,2.8359,2.8475,2.9152,2.8979,2.8588,2.9188,2.8464,2.7411,2.7394,2.6878,2.6348,2.6555,2.6589,2.6623,2.6691,2.6691,2.6691,2.6691,2.6691,2.6691,2.6691,2.6674,2.6657,2.6691,2.6674,2.6437,2.5745,2.6185,0.0,0.0,2.588,2.6277,2.6203,2.6834,2.7,2.6301,2.7545,2.8111,2.7415,2.8638,2.9397,2.943,3.0108,3.0506,3.0506,3.0506,3.0506,3.0506,3.0522,3.0903,3.1648,3.1664,3.2431,3.3773,3.31,3.2768,3.2752,3.2768,3.2768,3.2801,3.3524,3.3806,3.3789,3.3789,3.3398,3.2868,3.3541,3.3365,3.295,2.2741,2.1983,2.1266,2.0861,2.1027,2.0813,1.971,1.9479,1.951,1.9665,1.99,2.023,2.0724,2.1214,2.162,2.1854,2.1904,2.1806,2.1536,2.1075,2.0555,1.998,2.0268,2.0285,1.9963,2.0031,1.9908,1.9625,1.9389,1.9389,1.9642,2.0162,2.0686,2.1218,2.2902,2.3853,2.4245,2.548,2.6078,2.627,2.7018,2.7767,2.8376,2.8111,2.8177,2.8459,2.8903,2.9069,2.9168,2.9877,2.998,2.9871,3.0063,2.9188,2.8068,2.8106,2.7611,2.6964,2.662,2.6837,2.7053,2.6724,2.6606,2.6589,2.6691,2.6691,2.6691,2.6691,2.6691,2.6691,2.6691,2.6691,2.6623,2.637,2.6928,2.7095,0.0,2.6318,2.6582,2.6959,2.7186,2.7017,2.6268,2.7081,2.7564,2.7315,2.8194,2.892,2.9383,3.0092,3.0506,3.0506,3.0506,3.0506,3.0506,3.0506,3.087,3.1615,3.21,3.2332,3.2381,3.3094,3.2895,3.2017,3.2481,3.2702,3.2718,3.2984,3.3061,3.3011,3.2531,3.2177,3.2017,3.2243,3.2497,3.2851,2.3429,2.2933,2.2205,2.1042,2.0773,2.0376,1.9287,1.9716,2.0131,2.006,2.0967,2.1769,2.2245,2.2784,2.3173,2.3376,2.346,2.3359,2.3105,2.2392,2.1738,2.1191,2.1407,2.1424,2.1174,2.1137,2.1032,2.0826,2.0272,2.0272,2.0826,2.1075,2.1478,2.2053,2.3688,2.4353,2.4293,2.5747,2.6461,2.6684,2.7644,2.8492,2.9135,2.9135,2.9135,2.9201,2.9648,2.9777,2.986,3.034,3.0506,3.0506,3.0506,2.9698,2.8724,2.8517,2.812,2.7607,2.6983,2.7297,0.0,2.739,2.7291,2.7207,2.7079,2.7063,2.6978,2.6725,2.6691,2.6691,2.664,2.6877,2.708,0.0,0.0,0.0,0.0,2.694,2.702,2.7361,2.7356,2.7153,2.6634,2.7265,2.7464,2.695,2.8061,2.8837,2.9036,2.998,3.0506,3.0506,3.0506,3.0506,3.0506,3.0506,3.0737,3.1217,3.1967,3.2067,3.1631,3.2597,3.2514,3.1615,3.1835,3.2067,3.2315,3.2315,3.2315,3.2266,3.178,3.1598,3.1598,3.1598,3.2067,3.2735,2.3847,2.3759,2.3275,2.1873,2.0268,1.9144,1.9091,1.9702,2.017,2.0166,2.1502,2.2482,2.2499,2.3765,2.4321,2.3613,2.4847,2.5338,2.4609,2.3864,2.3431,2.3356,2.262,2.2586,2.3339,2.1961,2.1602,2.2347,2.0893,2.0927,2.233,2.1597,2.202,2.3427,2.4169,2.4382,2.4293,2.5849,2.6797,2.7415,2.8804,2.9777,3.0456,3.0489,3.0506,3.0506,3.0506,3.0506,3.0506,3.0506,3.0506,3.0506,3.0506,2.9992,2.9284,2.8641,2.8442,2.8296,2.7624,2.7992,2.856,2.8586,2.8605,0.0,2.7866,2.775,2.7549,2.6841,2.6708,2.6708,2.662,2.7262,0.0,0.0,0.0,0.0,0.0,2.773,2.7623,2.7529,2.7478,2.7408,2.7317,2.7961,2.7796,2.6301,2.8155,2.9069,0.0,2.9748,3.0506,3.0506,3.0506,3.0506,3.0506,3.0506,3.0506,3.0506,3.125,3.1581,3.1548,3.1581,3.1581,3.1515,3.0803,3.0919,3.1598,3.1565,3.1565,3.1598,3.1565,3.1548,3.1548,3.1631,3.21,3.2597,2.3847,2.3202,2.2525,2.207,2.0185,1.9083,2.0044,2.0727,2.1473,2.2406,2.3833,2.495,2.5507,2.5912,2.6065,2.5862,2.6201,2.6099,2.5372,2.4643,2.422,2.4189,2.4003,2.3958,2.4115,2.4329,2.3973,2.3034,2.2704,2.2733,2.3105,2.2361,2.2513,2.3427,2.4169,2.4382,2.4293,2.5849,2.6797,2.7365,2.8293,2.9069,2.9744,3.029,3.0506,3.0506,3.0506,3.0506,3.0506,3.0506,3.0506,3.0506,3.0506,2.9992,2.9363,2.9201,2.9152,2.9003,2.8329,2.8644,2.9078,2.8624,2.8529,2.8498,0.0,0.0,0.0,0.0,0.0,0.0,0.0,2.7882,2.7904,0.0,0.0,0.0,2.9445,2.8987,2.8762,2.9059,2.8674,2.8083,2.7367,2.7961,2.7796,2.6301,2.7727,2.8591,2.8409,2.9748,3.0506,3.0506,3.0506,3.0506,3.0506,3.0506,3.0506,3.0506,3.125,3.1317,3.0803,3.135,3.13,3.077,3.0572,3.0919,3.1565,3.1002,3.1118,3.1548,3.1002,3.0787,3.0919,3.2017,3.2531,3.2663,2.4006,2.322,2.2656,2.2929,2.1424,2.0481,2.1381,2.1704,2.2225,2.3255,2.4678,2.5761,2.6167,2.6505,2.6691,2.6691,2.6691,2.6522,2.6116,2.5389,2.4983,2.4935,2.4871,2.484,2.4792,2.5211,2.5042,2.4266,2.3639,2.3701,2.4323,2.2939,2.2868,2.3898,2.4305,2.443,2.4424,2.65,2.7528,2.7862,2.8887,2.9549,0.0,3.034,3.0506,3.0506,3.0506,3.0506,3.0506,3.0506,3.0506,3.0506,3.0506,3.0208,2.981,2.9479,2.9628,2.9728,2.9019,2.935,2.9798,2.946,2.936,2.9317,2.9079,2.9032,2.8848,0.0,2.777,2.7519,0.0,2.791,2.856,0.0,0.0,0.0,3.004,2.9681,2.949,2.976,2.9646,2.9235,2.8386,2.8365,2.8061,2.7214,2.8191,2.8837,2.8837,2.9897,3.0506,3.0506,3.0506,3.0506,3.0506,3.0506,3.0506,3.0506,3.125,3.1217,3.0522,3.1267,3.1201,3.0506,3.0506,3.0737,3.1085,3.0671,3.0737,3.1118,3.1019,3.0986,3.1085,3.1918,3.2017,3.1785,2.4327,2.3647,2.3316,2.4092,2.3264,2.2594,2.2972,2.2819,2.288,2.3596,2.4898,2.5728,2.5728,2.6319,2.6691,2.6691,2.6691,2.6691,2.6691,2.5998,2.5611,2.563,2.5414,2.533,2.543,2.5397,2.5397,2.5462,2.42,2.428,2.5558,2.3528,2.3325,2.4643,2.4643,2.4665,2.4841,2.7297,2.8351,2.8508,2.9847,3.0406,3.0506,3.0506,3.0506,3.0506,3.0506,3.0506,3.0506,3.0506,3.0506,3.0506,3.0506,3.0506,3.0373,2.9728,2.9992,3.0357,2.9711,3.0009,3.0506,3.0506,3.0506,3.0361,2.9849,2.9736,2.9353,2.8056,2.7781,2.7564,2.6884,0.0,0.0,0.0,0.0,3.0205,3.0205,3.0095,3.002,3.0,3.0329,0.0,2.9776,2.8998,2.8492,2.8409,2.9019,2.9397,0.0,0.0,3.0506,3.0506,3.0506,3.0506,3.0506,3.0506,3.0506,3.0506,3.1151,3.1118,3.0522,3.1168,3.1118,3.0506,3.0506,3.0506,3.0506,3.0506,3.0506,3.0555,3.1217,3.1466,3.1466,3.1466,3.1052,3.0588,2.4982,2.4441,2.4101,2.4793,2.4372,2.4136,2.4764,2.4568,2.4569,2.5134,2.5964,2.6505,2.6505,2.6623,2.6691,2.6691,2.6691,2.6674,2.6623,2.5916,2.5748,2.6302,2.5665,2.5564,2.6113,2.6216,2.5966,2.533,2.5194,2.5275,2.5576,2.4577,2.4592,2.5423,2.5423,2.5679,2.6184,2.7126,2.7848,2.8475,2.9268,2.9959,3.0506,3.0506,3.0506,3.0506,3.0506,3.0506,3.0506,3.0506,3.0506,3.0506,3.0506,3.0506,3.0472,3.034,3.0406,3.0472,3.034,3.0406,3.0506,3.0506,3.0506,3.0456,3.0361,3.0328,3.0261,2.9996,2.947,2.9205,2.9645,0.0,0.0,0.0,3.0834,3.0767,3.0767,3.0731,3.0691,3.0573,3.0116,2.9956,3.0299,2.9665,2.9003,2.8442,2.9019,2.9397,0.0,0.0,3.0506,0.0,3.0506,3.0506,0.0,0.0,3.0506,3.0506,3.0621,3.0621,3.0506,3.0638,3.0621,3.0506,3.0506,3.0506,3.0506,3.0506,3.0506,3.0506,3.0638,3.0688,3.0688,3.0688,3.0605,3.0522,2.4616,2.4348,2.4221,2.4793,2.4852,2.5018,2.5577,2.5729,2.5737,2.5625,2.5913,2.6133,2.6133,2.6471,2.6691,2.6657,2.6657,2.6623,2.6554,2.6219,2.6134,2.6399,2.6031,2.5963,2.6241,2.631,2.6214,2.5916,2.5564,2.5647,2.615,2.5032,2.4897,2.5592,2.556,2.5866,0.0,0.0,2.8099,2.8492,2.9549,3.0174,3.0506,3.0506,3.0506,3.0506,3.0506,3.0506,3.0506,3.0506,3.0506,3.0506,3.0506,3.0506,3.0506,3.0506,3.0506,3.0506,3.0506,3.0506,3.0506,3.0506,3.0506,3.0506,3.0506,3.0506,3.039,3.0009,2.9645,2.9533,2.9941,3.0089,0.0,3.0825,3.0892,3.0892,3.0892,3.0851,3.081,3.081,3.0375,3.0211,3.0576,3.0216,2.9678,2.8969,2.9218,2.9397,0.0,0.0,3.0506,0.0,0.0,0.0,3.0506,0.0,3.0506,3.0506,3.0506,3.0506,3.0506,3.0506,3.0506,3.0506,3.0506,3.0506,3.0506,3.0506,3.0506,3.0506,3.0506,3.0506,3.0506,3.0506,3.0506,3.0506,2.4795,2.4603,2.4574,2.5171,2.5367,2.5599,2.6031,2.6445,2.6488,2.5913,2.5845,2.5845,2.5845,2.6336,2.6657,2.6589,2.6589,2.6537,2.6451,2.6468,2.6399,2.6294,2.6294,2.6241,2.6202,2.6202,2.6274,2.6468,2.5848,2.595,2.6641,0.0,0.0,0.0,0.0,0.0,0.0,0.0,2.845,2.8525,2.993,3.0506,3.0506,3.0506,3.0406,3.029,3.0439,3.0406,3.029,3.0456,3.0506,3.0506,3.0506,3.0506,3.0506,3.0506,3.0506,3.0506,3.0506,3.0506,3.0506,3.0506,3.0506,3.0506,3.0506,3.0506,3.034,2.9744,2.9628,2.9669,2.9769,2.9789,0.0,0.0,3.0794,3.0794,3.0794,3.0712,3.0692,3.081,3.063,3.0481,3.0434,3.0336,2.9959,2.9251,2.9446,2.9628,2.9628,0.0,0.0,0.0,0.0,3.0506,3.0506,0.0,3.0506,3.0506,3.0506,3.0506,3.0506,3.0506,3.0506,3.0506,3.0506,3.0506,3.0506,3.0506,3.0506,3.0506,3.0506,3.0506,3.0506,3.0506,3.0506,3.0506,2.7063,2.6339,2.5936,2.6965,2.646,2.6048,2.6411,2.6586,2.6674,2.6607,2.659,2.659,2.659,2.659,2.6606,2.6589,2.6537,2.6468,2.633,2.6313,2.6277,2.6203,2.6203,2.6203,2.6202,2.6202,2.6239,2.6313,2.6367,2.6453,2.6606,0.0,0.0,0.0,0.0,0.0,2.6395,2.7819,2.8409,2.8525,2.993,3.0506,3.0506,3.0506,3.0075,2.9579,3.0257,3.0075,2.9595,3.0274,3.0506,3.0506,3.0506,3.0506,3.0506,3.0506,3.0506,3.0506,3.0506,3.0506,3.0506,3.0506,3.0506,3.0506,3.0506,3.0506,3.0472,3.0406,3.039,3.039,3.041,3.0427,3.0427,0.0,0.0,3.0547,3.0547,3.0526,3.051,3.0547,3.0526,3.0241,2.9582,2.9516,2.9218,2.8542,2.9682,3.039,0.0,0.0,0.0,3.0506,3.0506,3.0506,3.0506,3.0506,3.0506,3.0506,3.0506,3.0506,3.0506,3.0506,3.0506,3.0506,3.0506,3.0506,3.0506,3.0506,3.0506,3.0506,3.0506,3.0506,3.0506,3.0506,3.0506,3.0506,2.6731,2.6409,2.6321,2.7033,2.6859,2.6739,2.7157,2.7267,2.7305,2.7305,2.6939,2.6691,2.6691,2.6674,2.6623,2.6554,2.652,2.6433,2.6258,2.624,2.6239,2.6202,2.6202,2.6202,2.6202,2.6202,2.6222,2.6295,2.6434,2.6537,0.0,0.0,0.0,0.0,0.0,2.6277,2.6307,2.7317,2.7995,2.8475,2.945,2.9827,2.9827,2.9827,2.9417,2.8887,2.9599,2.9645,2.9496,3.0241,3.0506,3.0506,3.0506,3.0506,3.0506,3.0506,3.0506,3.0506,3.0506,3.0506,3.0506,3.0506,3.0506,3.0506,3.0506,3.0506,3.0506,3.0506,3.0506,3.0506,3.0506,3.0506,3.0506,3.0506,0.0,0.0,0.0,0.0,3.0506,3.0506,0.0,3.0373,3.0092,3.0059,2.9943,2.9682,2.9761,2.9827,2.9827,0.0,0.0,3.0506,0.0,3.0506,3.0506,3.0506,3.0506,3.0506,3.0506,3.0506,3.0506,3.0506,3.0506,3.0506,3.0506,3.0506,3.0506,3.0506,3.0506,3.0506,3.0506,3.0506,3.0506,3.0506,3.0506,3.0506,2.6987,2.6898,2.6964,2.7402,2.7322,2.7351,2.7755,2.7742,2.7613,2.7385,2.6945,2.67,2.6824,2.6555,2.6387,2.6486,2.6468,2.6381,2.6239,2.6203,2.6203,2.6222,2.6203,2.6202,2.6202,2.6202,2.6221,2.6277,2.6399,0.0,0.0,0.0,0.0,0.0,2.6294,2.624,2.6252,2.7,2.7729,2.8459,2.9135,2.9529,2.9694,2.9479,2.8986,2.8492,2.9168,2.9135,2.8969,3.0108,3.0357,3.0208,3.0423,3.0506,3.0506,3.0506,3.0506,3.0506,3.0506,3.0506,3.0506,3.0506,3.0506,3.0506,3.0506,3.0506,3.0506,3.0506,3.0506,3.0506,3.0506,3.0506,3.0506,3.0506,0.0,0.0,0.0,3.0506,0.0,3.0506,3.0506,3.0406,3.0191,3.0174,3.0174,3.0174,2.9694,2.9479,2.9711,0.0,0.0,0.0,0.0,0.0,3.0506,3.0506,3.0506,3.0506,3.0506,3.0506,3.0506,3.0506,3.0506,3.0506,3.0506,3.0506,3.0506,3.0506,3.0506,3.0506,3.0506,3.0506,3.0506,3.0506,3.0506,3.0506,2.8594,2.8321,2.8179,2.8531,2.8083,2.7783,2.8061,2.7869,2.742,2.6619,2.65,2.6682,2.7142,2.6179,2.5782,2.6435,2.6382,2.6295,2.6295,2.624,2.6222,2.6295,2.624,2.6202,2.6202,2.6202,2.6202,2.6202,0.0,0.0,2.6295,0.0,2.6295,2.6295,2.6222,2.6202,2.6252,2.7,2.7729,2.8459,2.9135,2.9827,3.0406,2.9678,2.8986,2.8492,2.9168,2.8506,2.7647,2.9798,3.0009,2.9529,3.0257,3.0506,3.0506,3.0506,3.0506,3.0506,3.0506,3.0506,3.0506,3.0506,3.0506,3.0506,3.0506,3.0506,3.0506,3.0506,3.0506,3.0506,3.0506,3.0506,3.0506,3.0506,0.0,0.0,0.0,3.0506,0.0,3.0506,3.0506,3.0208,2.9479,2.9397,2.9397,2.9397,2.9397,2.9711,0.0,0.0,0.0,3.0506,3.0506,0.0,3.0506,3.0506,3.0506,3.0506,3.0506,3.0506,3.0506,3.0506,3.0506,3.0506,3.0506,3.0506,3.0506,3.0506,3.0506,3.0506,3.0506,3.0506,3.0506,3.0506,3.0506,3.0506,2.86,2.8518,2.8461,2.8587,2.844,2.8331,2.8422,2.8375,2.8017,2.7215,2.6947,2.6808,2.6731,2.6151,2.5758,2.5681,2.5597,2.5546,2.5545,2.5493,2.5673,2.6206,2.6203,2.6202,2.6202,2.6202,2.6202,2.6202,0.0,0.0,0.0,2.6295,2.6277,2.6222,2.6203,2.6202,2.6219,2.6452,2.6965,2.7663,2.7879,2.8111,2.8293,2.8061,2.7512,2.6998,2.7713,2.7995,2.8227,2.9367,2.9926,3.0191,3.0423,3.0506,3.0506,3.0506,3.0506,3.0506,3.0506,3.0506,3.0506,3.0506,3.0506,3.0506,3.0506,3.0506,3.0506,3.0506,3.0506,3.0506,3.0506,3.0506,3.0506,3.0506,3.0506,0.0,3.0506,0.0,3.0506,3.0506,3.0506,3.0406,3.0174,3.0141,3.0141,3.0141,3.0141,3.0241,0.0,0.0,0.0,0.0,3.0506,0.0,3.0506,3.0506,3.0506,3.0506,3.0506,3.0506,3.0506,3.0506,3.0506,3.0506,3.0506,3.0506,3.0506,3.0506,3.0506,3.0506,3.0506,3.0506,3.0506,3.0506,3.0506,3.0506,2.86,2.86,2.86,2.86,2.8346,2.8147,2.8147,2.8147,2.7857,2.7043,2.7066,2.7012,2.6647,2.606,2.5731,2.5749,2.5782,2.5749,2.5629,2.5646,2.5845,2.6224,2.6203,2.6202,2.6202,2.6202,0.0,2.6202,2.624,2.6259,2.6259,2.6259,2.624,2.6202,2.6202,2.6202,2.6202,2.6202,2.6617,2.7298,2.7298,2.7464,2.768,2.7398,2.7017,2.6667,2.7133,2.7597,2.8127,2.9085,2.9694,3.0141,3.0406,3.0506,3.0506,3.0506,3.0506,3.0506,3.0506,3.0506,3.0506,3.0506,3.0506,3.0506,3.0506,3.0506,3.0506,3.0506,3.0506,3.0506,3.0506,3.0506,3.0506,3.0506,3.0506,3.0506,3.0506,0.0,3.0506,0.0,0.0,3.0506,3.0506,3.0506,3.0506,0.0,0.0,0.0,0.0,0.0,3.0506,3.0506,3.0506,3.0506,3.0506,3.0506,3.0506,3.0506,3.0506,3.0506,3.0506,3.0506,3.0506,3.0506,3.0506,3.0506,3.0506,3.0506,3.0506,3.0506,3.0506,3.0506,3.0506,3.0506,3.0506,3.0506,2.86,2.86,2.8582,2.8527,2.7894,2.7405,2.7405,2.7405,2.7133,2.6373,2.6971,2.7318,2.685,2.6069,2.5846,2.6505,2.6623,2.6539,2.6264,2.6419,2.6436,2.6229,2.6206,2.6169,2.6119,2.6169,2.6202,2.6202,2.6202,2.6202,2.6202,2.6202,2.6202,2.6202,2.6202,2.6202,2.6202,2.6202,2.6601,2.7216,2.7216,2.763,2.8177,2.7481,2.7216,2.7216,2.7216,2.7249,2.7514,2.887,2.9347,2.9529,3.0257,3.0506,3.0506,3.0506,3.0506,3.0506,3.0506,3.0506,3.0506,3.0506,3.0506,3.0506,3.0506,3.0506,3.0506,3.0506,3.0506,3.0506,3.0506,3.0506,3.0506,3.0506,3.0506,3.0506,3.0506,3.0506,3.0506,3.0506,0.0,0.0,3.0506,3.0506,3.0506,0.0,0.0,0.0,0.0,0.0,3.0555,3.0506,3.0506,3.0506,3.0506,3.0506,3.0506,3.0506,3.0506,3.0506,3.0506,3.0506,3.0506,3.0506,3.0506,3.0506,3.0506,3.0506,3.0506,3.0506,3.0506,3.0506,3.0506,3.0506,3.0506,3.0506,2.86,2.86,2.8419,2.7785,2.7532,2.7405,2.7405,2.7405,2.7333,2.7133,2.7821,2.7974,2.7049,2.7156,2.7245,2.7129,2.5944,2.5363,2.5747,2.5764,2.5648,2.5393,2.5905,2.5937,2.5375,2.5904,2.6202,2.6202,2.6202,2.6202,2.6202,2.6202,2.6202,2.6202,2.6202,2.6202,2.6202,2.6202,2.6303,2.6468,2.6468,2.6568,2.67,2.6535,2.6468,2.6468,2.6468,2.6816,2.7431,2.8343,2.8969,2.9529,3.0257,3.0506,3.0506,3.0506,3.0506,3.0506,3.0506,3.0506,3.0506,3.0506,3.0506,3.0506,3.0506,3.0506,3.0506,3.0506,3.0506,3.0506,3.0506,3.0506,3.0506,3.0506,3.0506,3.0506,3.0506,3.0506,3.0506,0.0,3.0506,3.0506,3.0506,3.0506,3.0506,0.0,0.0,3.0506,3.0506,3.1035,3.1085,3.0522,3.0506,3.0506,3.0506,3.0506,3.0506,3.0506,3.0506,3.0506,3.0506,3.0506,3.0506,3.0506,3.0506,3.0506,3.0506,3.0506,3.0506,3.0506,3.0506,3.0506,3.0506,3.0506,3.0506,3.0506,2.86,2.831,2.7912,2.7477,2.679,2.6312,2.6312,2.662,2.6844,2.6844,2.7826,2.8296,2.7691,2.749,2.7317,2.7084,2.6068,2.5661,2.6195,2.5553,2.5038,2.4796,2.536,2.5341,2.4613,2.5639,2.6202,2.6202,2.6202,2.6202,2.6202,2.6202,2.6202,2.6202,2.6202,2.6202,2.6202,2.6202,2.6202,2.6202,2.6202,2.6202,2.6202,2.6202,2.6202,2.6202,2.6202,2.6667,2.7348,2.7746,2.8359,2.9003,2.9417,2.9764,2.9992,2.9992,3.0241,3.0506,3.0506,3.0506,3.0506,3.0506,3.0506,3.0506,3.0506,3.0506,3.0506,3.0506,3.0506,3.0506,3.0506,3.0506,3.0506,3.0506,3.0506,3.0506,3.0506,3.0506,3.0506,3.0506,3.0506,3.0506,3.0506,3.0506,3.0506,3.0506,3.0506,0.0,3.0986,3.1383,3.1416,3.1019,3.1002,3.1002,3.1002,3.0671,3.0837,3.1504,3.082,3.0837,3.1487,3.0803,3.0688,3.0986,3.0638,3.0506,3.0506,3.0506,3.0506,3.0506,3.0506,3.0506,3.0506,3.0506,3.0506,3.0506,2.86,2.7948,2.7405,2.7405,2.6156,2.5226,2.5335,2.595,2.6427,2.6513,2.7612,2.838,2.8367,2.7549,2.6977,2.6977,2.6584,2.645,2.6676,2.5244,2.4375,2.4382,2.4746,2.4696,2.4183,2.549,2.6202,2.6202,2.6202,2.6202,2.6202,2.6202,2.6202,2.6202,2.6202,2.6202,2.6202,2.6202,2.6202,2.6202,2.6202,2.6202,2.6202,2.6202,2.6202,2.6202,2.6336,2.6766,2.7315,2.7547,2.8028,2.8575,2.8691,2.9102,2.9562,2.9562,3.0009,3.0506,3.0506,3.0506,3.0506,3.0506,3.0506,3.0506,3.0506,3.0506,3.0506,3.0506,3.0506,3.0506,3.0506,3.0506,3.0506,3.0506,3.0506,3.0506,3.0506,0.0,3.0506,3.0506,3.0506,3.0506,3.0506,3.0506,3.0506,3.0506,3.0605,3.0936,3.1565,3.1813,3.1929,3.1929,3.1813,3.1763,3.1763,3.1035,3.1355,3.2685,3.1437,3.1487,3.2652,3.1305,3.1002,3.1565,3.082,3.0506,3.0506,3.0506,3.0506,3.0506,3.0506,3.0506,3.0506,3.0506,3.0506,3.0506,2.86,2.7948,2.7405,2.7405,2.6627,2.6228,2.6916,2.7133,2.7423,2.7982,2.8262,2.8353,2.8228,2.7988,2.7805,2.7805,2.7035,2.6208,2.536,2.3759,2.3274,2.4268,2.423,2.4414,2.4928,2.5755,2.6202,2.6202,2.6202,2.6202,2.6202,2.6202,2.6202,2.6202,2.6202,2.6202,2.6202,2.6202,2.6202,2.6202,2.6202,2.6202,2.6202,2.6202,2.6202,2.6286,2.6917,2.7199,2.7481,2.8671,2.9152,2.9367,2.9976,3.0241,3.0323,3.0323,3.0406,3.0506,3.0506,3.0506,3.0506,3.0506,3.0506,3.0506,3.0506,3.0506,3.0506,3.0506,3.0506,3.0506,3.0506,3.0506,3.0506,3.0506,3.0506,3.0506,3.0506,0.0,3.0506,3.0506,3.0506,3.0506,3.0506,3.0506,3.0506,3.0506,3.1085,3.1482,3.1598,3.2796,3.3458,3.3458,3.2845,3.2531,3.2531,3.1797,3.1868,3.2702,3.2486,3.2486,3.2669,3.1813,3.1499,3.1565,3.082,3.0506,3.0506,3.0506,3.0506,3.0506,3.0506,3.0506,3.0506,3.0506,3.0506,3.0506,2.7948,2.7314,2.662,2.6186,2.5805,2.5679,2.6059,2.6405,2.6909,2.7656,2.8022,2.815,2.8095,2.7936,2.7677,2.7289,2.6444,2.5677,2.5037,2.344,2.2889,2.371,2.353,2.4116,2.5656,2.602,2.6202,2.6202,2.6202,2.6202,2.6202,2.6202,2.6202,2.6202,2.6202,2.6202,2.6202,2.6202,2.6202,2.6202,2.6202,2.6202,2.6202,2.6202,2.6202,2.6235,2.6584,2.67,2.68,2.7443,2.7942,2.8343,2.8671,2.9301,2.991,2.991,3.0191,3.0506,3.0506,3.0506,3.0506,3.0506,3.0506,3.0506,3.0506,3.0506,3.0506,3.0506,3.0506,3.0506,3.0506,3.0506,3.0506,3.0506,3.0506,3.0506,3.0506,3.0506,3.0638,3.1052,3.1085,3.125,3.1653,3.1686,3.1686,3.1686,3.2,3.2365,3.2762,3.3425,3.3972,3.4369,3.3696,3.3276,3.3276,3.2564,3.2762,3.3872,3.3083,3.3133,3.3839,3.2713,3.2199,3.215,3.1416,3.087,3.0506,3.0506,3.0506,3.0506,3.0506,3.0506,3.0506,3.0506,3.0506,3.0506,2.7351,2.659,2.5787,2.5353,2.5113,2.5048,2.5229,2.5805,2.6444,2.7028,2.7642,2.7968,2.794,2.7634,2.7227,2.6651,2.5978,2.5401,2.4951,2.3522,2.3017,2.3759,2.3713,2.4381,2.5904,2.6103,2.6119,2.5937,2.6119,2.6202,2.6202,2.6202,2.6202,2.6202,2.6202,2.6202,2.6202,2.6202,2.6202,2.6202,2.6202,2.6301,2.6452,2.6268,2.6319,2.6468,2.6468,2.6468,2.6518,2.6831,2.7313,2.7812,2.7995,2.8787,2.9645,2.9645,3.0059,3.0506,3.0506,3.0506,3.0506,3.0506,3.0506,3.0506,3.0506,3.0506,3.0506,3.0506,3.0506,3.0506,3.0506,3.0506,3.0506,3.0506,0.0,3.0555,3.0737,3.0754,3.1019,3.1763,3.1846,3.2083,3.2652,3.2702,3.2702,3.2702,3.2868,3.3216,3.3756,3.3955,3.4319,3.4883,3.417,3.3872,3.4038,3.3309,3.3607,3.4883,3.374,3.3789,3.4849,3.3541,3.2868,3.2669,3.1934,3.1184,3.0506,3.0506,3.0506,3.0506,3.0506,3.0506,3.0506,3.0506,3.0506,3.0506,2.7242,2.6149,2.5298,2.5986,2.5436,2.5151,2.5907,2.6539,2.6898,2.6854,2.7518,2.7925,2.7745,2.7104,2.6651,2.6598,2.631,2.5742,2.4765,2.3788,2.3841,2.5194,2.5712,2.5705,2.5176,2.5838,2.5871,2.5193,2.5871,2.6202,2.6202,2.6202,2.6202,2.6202,2.6202,2.6202,2.6202,2.6202,2.6202,2.6202,2.6202,2.6601,2.7133,2.6468,2.6617,2.7216,2.7216,2.7216,2.7415,2.8721,2.9198,2.9347,3.0042,3.034,3.0423,3.0423,3.0456,3.0506,3.0506,3.0506,3.0506,3.0506,3.0506,3.0506,3.0506,3.0506,3.0506,3.0506,3.0506,3.0506,3.0506,3.0506,3.0506,3.0506,0.0,0.0,3.1416,3.1515,3.178,3.2531,3.2613,3.2652,3.2702,3.2702,3.2702,3.2702,3.3348,3.3723,3.3789,3.4435,3.4833,3.4899,3.417,3.4121,3.48,3.4087,3.4104,3.4899,3.4783,3.4783,3.4866,3.4071,3.3365,3.2669,3.1934,3.1184,3.0506,3.0506,3.0506,3.0506,3.0506,3.0506,3.0506,3.0506,3.0506,3.0506,2.6512,2.5769,2.4932,2.4696,2.5169,2.5506,2.5279,2.574,2.6127,2.6118,2.6272,2.6366,2.6279,2.6016,2.5875,2.5875,2.5648,2.5293,2.4733,2.381,2.3463,2.383,2.4481,2.5143,2.5772,2.5624,2.559,2.5772,2.6053,2.6202,2.6202,2.6202,2.6202,2.6202,2.6202,2.6202,2.6202,2.6202,2.6468,2.6884,2.6884,2.7332,2.7945,2.768,2.7746,2.7978,2.7978,2.7978,2.8061,2.8588,2.9069,2.9446,2.9728,3.0125,3.0506,3.0506,3.0506,3.0506,3.0506,3.0506,3.0506,3.0506,3.0506,3.0506,3.0506,3.0506,3.0506,3.0506,3.0853,3.1184,3.1184,3.157,3.1868,3.1868,0.0,3.1967,3.2249,3.2282,3.2564,3.3276,3.3398,3.3557,3.4005,3.4054,3.4054,3.4054,3.4319,3.4468,3.4468,3.475,3.4899,3.4899,3.4618,3.4618,3.4899,3.4618,3.4618,3.4899,3.4899,3.4899,3.4883,3.4601,3.3822,3.2685,3.2398,3.1603,3.0506,3.0506,3.0506,3.0506,3.0506,3.0506,3.0506,3.0506,3.0506,3.0506,2.5633,2.5111,2.4334,2.3735,2.4485,2.4944,2.4349,2.4789,2.5213,2.5256,2.5345,2.5401,2.5401,2.5401,2.5269,2.4956,2.4972,2.4807,2.4374,2.3911,2.3417,2.2923,2.3835,2.4713,2.549,2.5243,2.5341,2.5838,2.6086,2.6202,2.6202,2.6202,2.6202,2.6202,2.6202,2.6202,2.6202,2.6202,2.6617,2.7298,2.7298,2.7862,2.8691,2.8475,2.8525,2.8691,2.8475,2.8392,2.8426,2.8641,2.9019,2.943,2.9661,3.0092,3.0506,3.0506,3.0506,3.0506,3.0506,3.0506,3.0506,3.0506,3.0506,3.0506,3.0506,3.0506,3.0572,3.0803,3.125,3.1664,3.1896,3.2348,3.2702,3.2702,3.2702,3.2785,3.3017,3.305,3.3332,3.4054,3.4137,3.4336,3.4849,3.4899,3.4899,3.4899,3.4899,3.4899,3.4899,3.4899,3.4899,3.4899,3.4899,3.4899,3.4899,3.4899,3.4899,3.4899,3.4899,3.4899,3.4883,3.4651,3.3872,3.2702,3.2448,3.1653,3.0506,3.0506,3.0506,3.0506,3.0506,3.0506,3.0506,3.0506,3.0506,3.0506,2.4743,2.4144,2.3505,2.3523,2.3401,2.3318,2.3318,2.3874,2.4321,2.4304,2.4927,2.5384,2.5384,2.5384,2.4987,2.4,2.4402,2.4377,2.3636,2.4098,2.3954,2.2939,2.4315,2.4762,2.4017,2.4729,2.511,2.511,2.5838,2.6202,2.6202,2.6202,2.6202,2.6202,2.6202,2.6202,2.6202,2.6202,2.6634,2.7298,2.7298,2.816,2.935,2.8674,2.882,2.9334,2.8674,2.8426,2.8525,2.9185,2.9397,2.9529,3.0257,3.0506,3.0506,3.0506,3.0506,3.0506,3.0506,3.0506,3.0506,3.0506,3.0506,3.0506,3.0506,3.0506,3.0721,3.1449,3.1615,3.183,3.2564,3.2718,3.2718,3.2718,3.2718,3.2984,3.3707,3.3806,3.4071,3.48,3.4899,3.4899,3.4899,3.4899,3.4899,3.4899,3.4899,3.4899,3.4899,3.4899,3.4899,3.4899,3.4899,3.4899,3.4899,3.4899,3.4899,3.4899,3.4899,3.4899,3.4866,3.4137,3.3392,3.2669,3.1912,3.1184,3.0506,3.0506,3.0506,3.0506,3.0506,3.0506,3.0506,3.0506,3.0506,3.0506,2.4622,2.4498,2.4266,2.4218,2.46,2.489,2.4782,2.4954,2.4888,2.4361,2.4484,2.4401,2.3844,2.3663,2.3662,2.3877,2.3921,2.377,2.3403,2.3839,2.3749,2.2939,2.3818,2.4481,2.4779,2.4994,2.5341,2.5871,2.6086,2.6202,2.6202,2.6202,2.6202,2.6202,2.6202,2.6202,2.6219,2.675,2.7398,2.8111,2.8572,2.935,3.0141,2.9943,2.9992,3.0141,2.9963,2.988,2.9914,3.0092,3.0174,3.0208,3.0423,3.0506,3.0506,3.0506,3.0506,3.0506,3.0506,3.0506,3.0506,3.0506,3.0506,3.0506,3.0506,3.0903,3.1333,3.1548,3.2409,3.321,3.3425,3.3889,3.4237,3.4237,3.4237,3.4319,3.4535,3.4568,3.4651,3.4866,3.4899,3.4899,3.4899,3.4899,3.4899,3.4899,3.4899,3.4899,3.4899,3.4899,3.4899,3.4899,3.4899,3.4899,3.4899,3.4899,3.4899,3.4899,3.4899,3.4899,3.4883,3.4667,3.3889,3.2702,3.2464,3.1669,3.0506,3.0506,3.0506,3.0506,3.0506,3.0506,3.0506,3.0506,3.0506,3.0506,2.4141,2.4336,2.4369,2.4012,2.4582,2.5055,2.4976,2.4963,2.4787,2.4374,2.4027,2.3621,2.303,2.3124,2.3342,2.361,2.3804,2.3723,2.3302,2.3823,2.3914,2.3354,2.405,2.4646,2.5094,2.511,2.5457,2.6202,2.6202,2.6202,2.6202,2.6202,2.6202,2.6202,2.6202,2.6202,2.6219,2.6667,2.7464,2.8442,2.8837,2.9615,3.0506,3.0506,3.0506,3.0506,3.0506,3.0506,3.0506,3.0506,3.0506,3.0506,3.0506,3.0506,3.0506,3.0506,3.0506,3.0506,3.0506,3.0506,3.0506,3.0506,3.0506,3.0506,3.0506,3.0837,3.125,3.1548,3.231,3.311,3.369,3.4154,3.4551,3.4849,3.4899,3.4899,3.4899,3.4899,3.4899,3.4899,3.4899,3.4899,3.4899,3.4899,3.4899,3.4899,3.4899,3.4899,3.4899,3.4899,3.4899,3.4899,3.4899,3.4899,3.4899,3.4899,3.4899,3.4899,3.4899,3.4899,3.4883,3.4601,3.3806,3.2685,3.2381,3.1603,3.0506,3.0506,3.0506,3.0506,3.0506,3.0671,3.0903,3.0605,3.0688,3.0886,2.3536,2.3874,2.4062,2.3335,2.3804,2.4321,2.4379,2.4339,2.4304,2.4304,2.3651,2.3077,2.2829,2.3431,2.3701,2.3367,2.4062,2.4181,2.3444,2.4066,2.4342,2.4116,2.4812,2.5209,2.5209,2.5209,2.5541,2.6202,2.6202,2.6202,2.6202,2.6202,2.6202,2.6202,2.6202,2.6202,2.6202,2.6334,2.7164,2.8409,2.8542,2.935,3.0506,3.0506,3.0506,3.0506,3.0506,3.0506,3.0506,3.0506,3.0506,3.0506,3.0506,3.0506,3.0506,3.0506,3.0506,3.0506,3.0506,3.0506,3.0506,3.0506,3.0506,3.0506,3.0506,3.0555,3.0787,3.1466,3.1648,3.2128,3.3541,3.3789,3.4038,3.4767,3.4899,3.4899,3.4899,3.4899,3.4899,3.4899,3.4899,3.4899,3.4899,3.4899,3.4899,3.4899,3.4899,3.4899,3.4899,3.4899,3.4899,3.4899,3.4899,3.4899,3.4899,3.4899,3.4899,3.4899,3.4899,3.4899,3.4866,3.4137,3.3415,3.2669,3.2,3.1234,3.0506,3.0572,3.0605,3.0588,3.0522,3.0952,3.1515,3.077,3.0936,3.1416,2.4144,2.4193,2.4238,2.4062,2.4168,2.4484,2.5068,2.4677,2.4304,2.4304,2.3973,2.3493,2.2868,2.313,2.3621,2.4305,2.4932,2.5192,2.5007,2.4963,2.4912,2.4862,2.5556,2.5954,2.5954,2.5954,2.6036,2.6202,2.6202,2.6202,2.6202,2.6202,2.6202,2.6202,2.6202,2.6202,2.6286,2.7429,2.8111,2.8492,2.9599,3.0224,3.0506,3.0506,3.0506,3.0506,3.0506,3.0506,3.0506,3.0506,3.0506,3.0506,3.0506,3.0506,3.0506,3.0506,3.0506,3.0506,3.0506,3.0506,3.0506,3.0506,3.0506,3.0506,3.0506,3.0952,3.1416,3.1565,3.2067,3.2729,3.3624,3.3789,3.4038,3.4767,3.4899,3.4899,3.4899,3.4899,3.4899,3.4899,3.4899,3.4899,3.4899,3.4899,3.4899,3.4899,3.4899,3.4899,3.4899,3.4899,3.4899,3.4899,3.4899,3.4899,3.4899,3.4899,3.4899,3.4899,3.4899,3.4899,3.4866,3.4137,3.3415,3.2702,3.2531,3.1719,3.0539,3.1118,3.1366,3.13,3.0721,3.0952,3.1515,3.077,3.0605,3.0803,2.4462,2.4572,2.4576,2.3869,2.4045,2.4431,2.4818,2.4554,2.4304,2.4304,2.3759,2.3331,2.3192,2.3309,2.3733,2.4618,2.5073,2.5363,2.5446,2.5229,2.5259,2.5624,2.5987,2.6202,2.6202,2.6202,2.6202,2.6202,2.6202,2.6202,2.6202,2.6202,2.6202,2.6202,2.6202,2.6402,2.6766,2.7547,2.826,2.8936,2.9678,3.0191,3.0506,3.0506,3.0506,3.0506,3.0506,3.0506,3.0506,3.0506,3.0506,3.0506,3.0506,3.0506,3.0506,3.0506,3.0506,3.0506,3.0506,3.0506,3.0506,3.0506,3.0506,3.0506,3.0506,3.0803,3.1184,3.1532,3.1896,3.2514,3.3591,3.3789,3.4038,3.4767,3.4899,3.4899,3.4899,3.4899,3.4899,3.4899,3.4899,3.4899,3.4899,3.4899,3.4899,3.4899,3.4899,3.4899,3.4899,3.4899,3.4899,3.4899,3.4899,3.4899,3.4899,3.4899,3.4899,3.4899,3.4899,3.4899,3.4883,3.4502,3.3905,3.3232,3.3232,3.258,3.1586,3.1984,3.1934,3.1565,3.1184,3.1267,3.1548,3.1168,3.125,3.1504,2.4572,2.4695,2.4598,2.3318,2.3646,2.408,2.408,2.408,2.4085,2.4059,2.3319,2.3001,2.3537,2.3827,2.4259,2.4888,2.5196,2.5413,2.5531,2.5379,2.5574,2.6169,2.6202,2.6202,2.6202,2.6202,2.6202,2.6202,2.6202,2.6202,2.6202,2.6202,2.6202,2.6202,2.6336,2.6717,2.7315,2.7564,2.8323,2.9397,2.9529,2.9943,3.0506,3.0506,3.0506,3.0506,3.0506,3.0506,3.0506,3.0506,3.0506,3.0506,3.0506,3.0506,3.0506,3.0506,3.0506,3.0506,3.0506,3.0506,3.0506,3.0506,3.0588,3.0688,3.0688,3.0688,3.0903,3.1631,3.178,3.2194,3.3541,3.3789,3.4038,3.4767,3.4899,3.4899,3.4899,3.4899,3.4899,3.4899,3.4899,3.4899,3.4899,3.4899,3.4899,3.4899,3.4899,3.4899,3.4899,3.4899,3.4899,3.4899,3.4899,3.4899,3.4899,3.4899,3.4899,3.4899,3.4899,3.4899,3.4899,3.4767,3.4369,3.3789,3.3789,3.3398,3.2702,3.2702,3.2415,3.1929,3.1565,3.1565,3.1747,3.1499,3.1885,3.2332,2.4466,2.3821,2.3353,2.3142,2.3195,2.3265,2.3265,2.3265,2.3203,2.3037,2.2881,2.3014,2.3545,2.4799,2.5689,2.5979,2.6233,2.6317,2.6107,2.6071,2.6086,2.6202,2.6202,2.6202,2.6202,2.6202,2.6202,2.6202,2.6202,2.6202,2.6202,2.6202,2.6202,2.6219,2.6868,2.7199,2.7365,2.8605,2.9234,2.9446,3.0092,3.0406,3.0506,3.0506,3.0506,3.0506,3.0506,3.0506,3.0506,3.0506,3.0506,3.0506,3.0506,3.0506,3.0506,3.0506,3.0506,3.0506,3.0506,3.0506,3.0506,3.0506,3.0986,3.1449,3.1449,3.1449,3.1648,3.2398,3.2547,3.2796,3.3663,3.3789,3.4038,3.4767,3.4899,3.4899,3.4899,3.4899,3.4899,3.4899,3.4899,3.4899,3.4899,3.4899,3.4899,3.4899,3.4899,3.4899,3.4899,3.4899,3.4899,3.4899,3.4899,3.4899,3.4899,3.4899,3.4899,3.4899,3.4899,3.4899,3.4883,3.4237,3.3889,3.3789,3.3789,3.3398,3.2702,3.2702,3.3011,3.3309,3.1399,3.1437,3.2398,3.1101,3.1118,3.1714,2.5081,2.4629,2.4107,2.3247,2.3107,2.3107,2.3107,2.299,2.2944,2.2952,2.3136,2.3481,2.4089,2.5305,2.6168,2.6399,2.6398,2.6328,2.622,2.6202,2.6202,2.6202,2.6202,2.6202,2.6202,2.6202,2.6202,2.6202,2.6202,2.6202,2.6202,2.6202,2.6419,2.6834,2.7149,2.7746,2.8506,2.9152,2.9628,3.0042,3.0373,3.0506,3.0506,3.0506,3.0506,3.0506,3.0506,3.0506,3.0506,3.0506,3.0506,3.0506,3.0506,3.0506,3.0506,3.0506,3.0506,3.0506,3.0506,3.0506,3.0506,3.0506,3.1052,3.1714,3.2116,3.2531,3.2928,3.3265,3.3292,3.3547,3.427,3.4402,3.4518,3.4849,3.4899,3.4899,3.4899,3.4899,3.4899,3.4899,3.4899,3.4899,3.4899,3.4899,3.4899,3.4899,3.4899,3.4899,3.4899,3.4899,3.4899,3.4899,3.4899,3.4899,3.4899,3.4899,3.4899,3.4899,3.4899,3.4899,3.4883,3.4551,3.4402,3.4402,3.4402,3.3988,3.3292,3.3292,3.3011,3.2459,3.1499,3.1499,3.1967,3.0886,3.1217,3.21]}]]